<?xml version="1.0" encoding="UTF-8" standalone="no" ?>
<gpx xmlns="http://www.topografix.com/GPX/1/1" xmlns:xsi="http://www.w3.org/2001/XMLSchema-instance" xsi:schemaLocation="http://www.topografix.com/GPX/1/1 http://www.topografix.com/GPX/1/1/gpx.xsd" version="1.1" creator="VisuGPX - https://www.visugpx.com">
  <metadata>
    <name>RDA :St Etienne du Gres:10.06.2014</name>
    <desc><![CDATA[Balade au soleil !!!!]]></desc>
  </metadata>
  <trk>
    <name><![CDATA[ONmove 100 - 10/06/2014]]></name>
    <trkseg>
      <trkpt lat="43.76653" lon="4.69507">
        <ele>16</ele>
        <time>2014-06-10T09:13:34Z</time>
      </trkpt>
      <trkpt lat="43.76663" lon="4.69545">
        <ele>20.1</ele>
        <time>2014-06-10T09:14:13Z</time>
      </trkpt>
      <trkpt lat="43.76661" lon="4.69551">
        <ele>20.5</ele>
        <time>2014-06-10T09:14:19Z</time>
      </trkpt>
      <trkpt lat="43.76661" lon="4.69558">
        <ele>21.5</ele>
        <time>2014-06-10T09:14:26Z</time>
      </trkpt>
      <trkpt lat="43.76661" lon="4.69565">
        <ele>22.9</ele>
        <time>2014-06-10T09:14:32Z</time>
      </trkpt>
      <trkpt lat="43.76661" lon="4.69571">
        <ele>24.6</ele>
        <time>2014-06-10T09:14:41Z</time>
      </trkpt>
      <trkpt lat="43.76662" lon="4.69578">
        <ele>26.4</ele>
        <time>2014-06-10T09:14:48Z</time>
      </trkpt>
      <trkpt lat="43.76661" lon="4.69591">
        <ele>29.2</ele>
        <time>2014-06-10T09:15:02Z</time>
      </trkpt>
      <trkpt lat="43.76659" lon="4.69598">
        <ele>30.5</ele>
        <time>2014-06-10T09:15:09Z</time>
      </trkpt>
      <trkpt lat="43.76657" lon="4.69604">
        <ele>31.6</ele>
        <time>2014-06-10T09:15:16Z</time>
      </trkpt>
      <trkpt lat="43.76655" lon="4.6961">
        <ele>32.9</ele>
        <time>2014-06-10T09:15:22Z</time>
      </trkpt>
      <trkpt lat="43.76654" lon="4.69616">
        <ele>33.8</ele>
        <time>2014-06-10T09:15:34Z</time>
      </trkpt>
      <trkpt lat="43.76658" lon="4.69627">
        <ele>35.7</ele>
        <time>2014-06-10T09:15:47Z</time>
      </trkpt>
      <trkpt lat="43.76664" lon="4.69637">
        <ele>37.6</ele>
        <time>2014-06-10T09:16:02Z</time>
      </trkpt>
      <trkpt lat="43.76663" lon="4.69644">
        <ele>38.3</ele>
        <time>2014-06-10T09:16:08Z</time>
      </trkpt>
      <trkpt lat="43.76662" lon="4.69651">
        <ele>39</ele>
        <time>2014-06-10T09:16:14Z</time>
      </trkpt>
      <trkpt lat="43.76662" lon="4.69658">
        <ele>39.7</ele>
        <time>2014-06-10T09:16:24Z</time>
      </trkpt>
      <trkpt lat="43.76661" lon="4.69665">
        <ele>40.4</ele>
        <time>2014-06-10T09:16:29Z</time>
      </trkpt>
      <trkpt lat="43.76659" lon="4.69671">
        <ele>40.8</ele>
        <time>2014-06-10T09:16:34Z</time>
      </trkpt>
      <trkpt lat="43.76657" lon="4.69678">
        <ele>41.1</ele>
        <time>2014-06-10T09:16:39Z</time>
      </trkpt>
      <trkpt lat="43.76657" lon="4.69685">
        <ele>41.6</ele>
        <time>2014-06-10T09:16:45Z</time>
      </trkpt>
      <trkpt lat="43.76656" lon="4.69692">
        <ele>42</ele>
        <time>2014-06-10T09:16:50Z</time>
      </trkpt>
      <trkpt lat="43.76655" lon="4.69698">
        <ele>42.5</ele>
        <time>2014-06-10T09:16:56Z</time>
      </trkpt>
      <trkpt lat="43.76655" lon="4.69705">
        <ele>43.1</ele>
        <time>2014-06-10T09:17:03Z</time>
      </trkpt>
      <trkpt lat="43.76656" lon="4.69711">
        <ele>43.7</ele>
        <time>2014-06-10T09:17:10Z</time>
      </trkpt>
      <trkpt lat="43.76657" lon="4.69725">
        <ele>44.9</ele>
        <time>2014-06-10T09:17:28Z</time>
      </trkpt>
      <trkpt lat="43.76657" lon="4.69732">
        <ele>45.7</ele>
        <time>2014-06-10T09:17:34Z</time>
      </trkpt>
      <trkpt lat="43.76657" lon="4.69738">
        <ele>46.4</ele>
        <time>2014-06-10T09:17:40Z</time>
      </trkpt>
      <trkpt lat="43.76656" lon="4.69745">
        <ele>47.1</ele>
        <time>2014-06-10T09:17:47Z</time>
      </trkpt>
      <trkpt lat="43.76653" lon="4.69751">
        <ele>47.6</ele>
        <time>2014-06-10T09:17:53Z</time>
      </trkpt>
      <trkpt lat="43.76671" lon="4.69791">
        <ele>48</ele>
        <time>2014-06-10T09:19:23Z</time>
      </trkpt>
      <trkpt lat="43.76647" lon="4.6982">
        <ele>51.7</ele>
        <time>2014-06-10T09:24:14Z</time>
      </trkpt>
      <trkpt lat="43.76644" lon="4.69824">
        <ele>52.5</ele>
        <time>2014-06-10T09:24:20Z</time>
      </trkpt>
      <trkpt lat="43.76641" lon="4.69829">
        <ele>53.4</ele>
        <time>2014-06-10T09:24:25Z</time>
      </trkpt>
      <trkpt lat="43.76633" lon="4.69839">
        <ele>53.9</ele>
        <time>2014-06-10T09:24:34Z</time>
      </trkpt>
      <trkpt lat="43.7663" lon="4.69843">
        <ele>53.9</ele>
        <time>2014-06-10T09:24:39Z</time>
      </trkpt>
      <trkpt lat="43.76623" lon="4.69852">
        <ele>54.1</ele>
        <time>2014-06-10T09:24:50Z</time>
      </trkpt>
      <trkpt lat="43.7662" lon="4.69857">
        <ele>54.3</ele>
        <time>2014-06-10T09:24:55Z</time>
      </trkpt>
      <trkpt lat="43.76615" lon="4.69861">
        <ele>54.7</ele>
        <time>2014-06-10T09:25:01Z</time>
      </trkpt>
      <trkpt lat="43.76612" lon="4.69866">
        <ele>55</ele>
        <time>2014-06-10T09:25:06Z</time>
      </trkpt>
      <trkpt lat="43.76609" lon="4.69872">
        <ele>55.1</ele>
        <time>2014-06-10T09:25:11Z</time>
      </trkpt>
      <trkpt lat="43.76605" lon="4.69876">
        <ele>55.3</ele>
        <time>2014-06-10T09:25:16Z</time>
      </trkpt>
      <trkpt lat="43.76601" lon="4.69881">
        <ele>55.6</ele>
        <time>2014-06-10T09:25:21Z</time>
      </trkpt>
      <trkpt lat="43.76597" lon="4.69885">
        <ele>56</ele>
        <time>2014-06-10T09:25:26Z</time>
      </trkpt>
      <trkpt lat="43.76593" lon="4.6989">
        <ele>56.4</ele>
        <time>2014-06-10T09:25:31Z</time>
      </trkpt>
      <trkpt lat="43.7659" lon="4.69896">
        <ele>56.8</ele>
        <time>2014-06-10T09:25:36Z</time>
      </trkpt>
      <trkpt lat="43.76588" lon="4.69902">
        <ele>57.2</ele>
        <time>2014-06-10T09:25:41Z</time>
      </trkpt>
      <trkpt lat="43.76585" lon="4.69908">
        <ele>57.6</ele>
        <time>2014-06-10T09:25:47Z</time>
      </trkpt>
      <trkpt lat="43.76585" lon="4.69915">
        <ele>57.8</ele>
        <time>2014-06-10T09:26:09Z</time>
      </trkpt>
      <trkpt lat="43.76544" lon="4.69922">
        <ele>59.4</ele>
        <time>2014-06-10T09:27:03Z</time>
      </trkpt>
      <trkpt lat="43.76539" lon="4.69924">
        <ele>59.5</ele>
        <time>2014-06-10T09:27:08Z</time>
      </trkpt>
      <trkpt lat="43.76534" lon="4.69925">
        <ele>59.6</ele>
        <time>2014-06-10T09:27:13Z</time>
      </trkpt>
      <trkpt lat="43.76525" lon="4.69926">
        <ele>59.7</ele>
        <time>2014-06-10T09:27:23Z</time>
      </trkpt>
      <trkpt lat="43.7652" lon="4.69927">
        <ele>59.7</ele>
        <time>2014-06-10T09:27:28Z</time>
      </trkpt>
      <trkpt lat="43.76515" lon="4.69928">
        <ele>59.8</ele>
        <time>2014-06-10T09:27:33Z</time>
      </trkpt>
      <trkpt lat="43.76509" lon="4.69928">
        <ele>59.8</ele>
        <time>2014-06-10T09:27:38Z</time>
      </trkpt>
      <trkpt lat="43.76505" lon="4.69928">
        <ele>59.8</ele>
        <time>2014-06-10T09:27:42Z</time>
      </trkpt>
      <trkpt lat="43.765" lon="4.69928">
        <ele>59.8</ele>
        <time>2014-06-10T09:27:46Z</time>
      </trkpt>
      <trkpt lat="43.7649" lon="4.69929">
        <ele>59.9</ele>
        <time>2014-06-10T09:27:55Z</time>
      </trkpt>
      <trkpt lat="43.76485" lon="4.69928">
        <ele>59.8</ele>
        <time>2014-06-10T09:28:00Z</time>
      </trkpt>
      <trkpt lat="43.76476" lon="4.69924">
        <ele>59.6</ele>
        <time>2014-06-10T09:28:09Z</time>
      </trkpt>
      <trkpt lat="43.76471" lon="4.69924">
        <ele>59.5</ele>
        <time>2014-06-10T09:28:14Z</time>
      </trkpt>
      <trkpt lat="43.76466" lon="4.69925">
        <ele>59.3</ele>
        <time>2014-06-10T09:28:18Z</time>
      </trkpt>
      <trkpt lat="43.76461" lon="4.69924">
        <ele>59.1</ele>
        <time>2014-06-10T09:28:23Z</time>
      </trkpt>
      <trkpt lat="43.76456" lon="4.6992">
        <ele>58.7</ele>
        <time>2014-06-10T09:28:28Z</time>
      </trkpt>
      <trkpt lat="43.76448" lon="4.69918">
        <ele>58.2</ele>
        <time>2014-06-10T09:28:36Z</time>
      </trkpt>
      <trkpt lat="43.76443" lon="4.69916">
        <ele>57.9</ele>
        <time>2014-06-10T09:28:41Z</time>
      </trkpt>
      <trkpt lat="43.76438" lon="4.69917">
        <ele>57.8</ele>
        <time>2014-06-10T09:28:45Z</time>
      </trkpt>
      <trkpt lat="43.76433" lon="4.69915">
        <ele>57.5</ele>
        <time>2014-06-10T09:28:50Z</time>
      </trkpt>
      <trkpt lat="43.76428" lon="4.69915">
        <ele>57.3</ele>
        <time>2014-06-10T09:28:55Z</time>
      </trkpt>
      <trkpt lat="43.76423" lon="4.69915">
        <ele>57.1</ele>
        <time>2014-06-10T09:28:59Z</time>
      </trkpt>
      <trkpt lat="43.76417" lon="4.69916">
        <ele>57</ele>
        <time>2014-06-10T09:29:04Z</time>
      </trkpt>
      <trkpt lat="43.76413" lon="4.69918">
        <ele>56.6</ele>
        <time>2014-06-10T09:29:09Z</time>
      </trkpt>
      <trkpt lat="43.76408" lon="4.69921">
        <ele>56.1</ele>
        <time>2014-06-10T09:29:16Z</time>
      </trkpt>
      <trkpt lat="43.76404" lon="4.69926">
        <ele>55.9</ele>
        <time>2014-06-10T09:29:21Z</time>
      </trkpt>
      <trkpt lat="43.76401" lon="4.69932">
        <ele>55.6</ele>
        <time>2014-06-10T09:29:26Z</time>
      </trkpt>
      <trkpt lat="43.76397" lon="4.69937">
        <ele>55.1</ele>
        <time>2014-06-10T09:29:33Z</time>
      </trkpt>
      <trkpt lat="43.76392" lon="4.6994">
        <ele>54.5</ele>
        <time>2014-06-10T09:29:37Z</time>
      </trkpt>
      <trkpt lat="43.76387" lon="4.6994">
        <ele>53.9</ele>
        <time>2014-06-10T09:29:41Z</time>
      </trkpt>
      <trkpt lat="43.76383" lon="4.69939">
        <ele>53.6</ele>
        <time>2014-06-10T09:29:46Z</time>
      </trkpt>
      <trkpt lat="43.76378" lon="4.69935">
        <ele>53.1</ele>
        <time>2014-06-10T09:29:52Z</time>
      </trkpt>
      <trkpt lat="43.7637" lon="4.69932">
        <ele>52</ele>
        <time>2014-06-10T09:30:02Z</time>
      </trkpt>
      <trkpt lat="43.76365" lon="4.69931">
        <ele>51.5</ele>
        <time>2014-06-10T09:30:07Z</time>
      </trkpt>
      <trkpt lat="43.76357" lon="4.69926">
        <ele>50.6</ele>
        <time>2014-06-10T09:30:15Z</time>
      </trkpt>
      <trkpt lat="43.76352" lon="4.69924">
        <ele>50.5</ele>
        <time>2014-06-10T09:30:19Z</time>
      </trkpt>
      <trkpt lat="43.76348" lon="4.69922">
        <ele>50.3</ele>
        <time>2014-06-10T09:30:23Z</time>
      </trkpt>
      <trkpt lat="43.76343" lon="4.69921">
        <ele>50.3</ele>
        <time>2014-06-10T09:30:28Z</time>
      </trkpt>
      <trkpt lat="43.76338" lon="4.69919">
        <ele>50.2</ele>
        <time>2014-06-10T09:30:33Z</time>
      </trkpt>
      <trkpt lat="43.76334" lon="4.69917">
        <ele>50.1</ele>
        <time>2014-06-10T09:30:37Z</time>
      </trkpt>
      <trkpt lat="43.76329" lon="4.69915">
        <ele>50.1</ele>
        <time>2014-06-10T09:30:41Z</time>
      </trkpt>
      <trkpt lat="43.76324" lon="4.69911">
        <ele>50</ele>
        <time>2014-06-10T09:30:46Z</time>
      </trkpt>
      <trkpt lat="43.76319" lon="4.69908">
        <ele>50.1</ele>
        <time>2014-06-10T09:30:51Z</time>
      </trkpt>
      <trkpt lat="43.76314" lon="4.69905">
        <ele>50.2</ele>
        <time>2014-06-10T09:30:56Z</time>
      </trkpt>
      <trkpt lat="43.7631" lon="4.69902">
        <ele>50.5</ele>
        <time>2014-06-10T09:31:00Z</time>
      </trkpt>
      <trkpt lat="43.76305" lon="4.69899">
        <ele>50.7</ele>
        <time>2014-06-10T09:31:05Z</time>
      </trkpt>
      <trkpt lat="43.76301" lon="4.69897">
        <ele>50.6</ele>
        <time>2014-06-10T09:31:09Z</time>
      </trkpt>
      <trkpt lat="43.76296" lon="4.69895">
        <ele>50.5</ele>
        <time>2014-06-10T09:31:13Z</time>
      </trkpt>
      <trkpt lat="43.76292" lon="4.69893">
        <ele>50.4</ele>
        <time>2014-06-10T09:31:17Z</time>
      </trkpt>
      <trkpt lat="43.76287" lon="4.69891">
        <ele>50.2</ele>
        <time>2014-06-10T09:31:22Z</time>
      </trkpt>
      <trkpt lat="43.76282" lon="4.69891">
        <ele>50.2</ele>
        <time>2014-06-10T09:31:27Z</time>
      </trkpt>
      <trkpt lat="43.76277" lon="4.69891">
        <ele>50.3</ele>
        <time>2014-06-10T09:31:31Z</time>
      </trkpt>
      <trkpt lat="43.76271" lon="4.69891">
        <ele>50.5</ele>
        <time>2014-06-10T09:31:35Z</time>
      </trkpt>
      <trkpt lat="43.76266" lon="4.69891">
        <ele>50.6</ele>
        <time>2014-06-10T09:31:39Z</time>
      </trkpt>
      <trkpt lat="43.76257" lon="4.69889">
        <ele>50.7</ele>
        <time>2014-06-10T09:31:48Z</time>
      </trkpt>
      <trkpt lat="43.76252" lon="4.69888">
        <ele>50.8</ele>
        <time>2014-06-10T09:31:53Z</time>
      </trkpt>
      <trkpt lat="43.76246" lon="4.69887">
        <ele>50.7</ele>
        <time>2014-06-10T09:31:58Z</time>
      </trkpt>
      <trkpt lat="43.76241" lon="4.69888">
        <ele>50.6</ele>
        <time>2014-06-10T09:32:03Z</time>
      </trkpt>
      <trkpt lat="43.76235" lon="4.69888">
        <ele>50.4</ele>
        <time>2014-06-10T09:32:08Z</time>
      </trkpt>
      <trkpt lat="43.76227" lon="4.69894">
        <ele>50.5</ele>
        <time>2014-06-10T09:32:17Z</time>
      </trkpt>
      <trkpt lat="43.76224" lon="4.69899">
        <ele>50.8</ele>
        <time>2014-06-10T09:32:24Z</time>
      </trkpt>
      <trkpt lat="43.76222" lon="4.69905">
        <ele>51.1</ele>
        <time>2014-06-10T09:32:29Z</time>
      </trkpt>
      <trkpt lat="43.7622" lon="4.6991">
        <ele>51.5</ele>
        <time>2014-06-10T09:32:34Z</time>
      </trkpt>
      <trkpt lat="43.76217" lon="4.69916">
        <ele>51.7</ele>
        <time>2014-06-10T09:32:43Z</time>
      </trkpt>
      <trkpt lat="43.76215" lon="4.69922">
        <ele>52</ele>
        <time>2014-06-10T09:32:48Z</time>
      </trkpt>
      <trkpt lat="43.76214" lon="4.69928">
        <ele>52.2</ele>
        <time>2014-06-10T09:32:53Z</time>
      </trkpt>
      <trkpt lat="43.76213" lon="4.69936">
        <ele>52.6</ele>
        <time>2014-06-10T09:32:59Z</time>
      </trkpt>
      <trkpt lat="43.76213" lon="4.69943">
        <ele>52.9</ele>
        <time>2014-06-10T09:33:05Z</time>
      </trkpt>
      <trkpt lat="43.76212" lon="4.6995">
        <ele>53.4</ele>
        <time>2014-06-10T09:33:10Z</time>
      </trkpt>
      <trkpt lat="43.7621" lon="4.69957">
        <ele>53.9</ele>
        <time>2014-06-10T09:33:16Z</time>
      </trkpt>
      <trkpt lat="43.76208" lon="4.69964">
        <ele>54.4</ele>
        <time>2014-06-10T09:33:22Z</time>
      </trkpt>
      <trkpt lat="43.76207" lon="4.6997">
        <ele>54.9</ele>
        <time>2014-06-10T09:33:28Z</time>
      </trkpt>
      <trkpt lat="43.76204" lon="4.69976">
        <ele>55.4</ele>
        <time>2014-06-10T09:33:34Z</time>
      </trkpt>
      <trkpt lat="43.76199" lon="4.69987">
        <ele>56.2</ele>
        <time>2014-06-10T09:33:44Z</time>
      </trkpt>
      <trkpt lat="43.76192" lon="4.69996">
        <ele>56.7</ele>
        <time>2014-06-10T09:33:53Z</time>
      </trkpt>
      <trkpt lat="43.76184" lon="4.70004">
        <ele>57.5</ele>
        <time>2014-06-10T09:34:02Z</time>
      </trkpt>
      <trkpt lat="43.76181" lon="4.70009">
        <ele>58</ele>
        <time>2014-06-10T09:34:07Z</time>
      </trkpt>
      <trkpt lat="43.76176" lon="4.70013">
        <ele>58.2</ele>
        <time>2014-06-10T09:34:13Z</time>
      </trkpt>
      <trkpt lat="43.76172" lon="4.70017">
        <ele>58.5</ele>
        <time>2014-06-10T09:34:19Z</time>
      </trkpt>
      <trkpt lat="43.76168" lon="4.70021">
        <ele>58.6</ele>
        <time>2014-06-10T09:34:24Z</time>
      </trkpt>
      <trkpt lat="43.76164" lon="4.70024">
        <ele>58.7</ele>
        <time>2014-06-10T09:34:29Z</time>
      </trkpt>
      <trkpt lat="43.76159" lon="4.70027">
        <ele>58.9</ele>
        <time>2014-06-10T09:34:33Z</time>
      </trkpt>
      <trkpt lat="43.76155" lon="4.7003">
        <ele>59.3</ele>
        <time>2014-06-10T09:34:37Z</time>
      </trkpt>
      <trkpt lat="43.76151" lon="4.70033">
        <ele>59.6</ele>
        <time>2014-06-10T09:34:41Z</time>
      </trkpt>
      <trkpt lat="43.76146" lon="4.70037">
        <ele>60.1</ele>
        <time>2014-06-10T09:34:46Z</time>
      </trkpt>
      <trkpt lat="43.76142" lon="4.70039">
        <ele>60.2</ele>
        <time>2014-06-10T09:34:51Z</time>
      </trkpt>
      <trkpt lat="43.76137" lon="4.70042">
        <ele>60.5</ele>
        <time>2014-06-10T09:34:56Z</time>
      </trkpt>
      <trkpt lat="43.76128" lon="4.70047">
        <ele>61.1</ele>
        <time>2014-06-10T09:35:06Z</time>
      </trkpt>
      <trkpt lat="43.76124" lon="4.7005">
        <ele>61.4</ele>
        <time>2014-06-10T09:35:11Z</time>
      </trkpt>
      <trkpt lat="43.7612" lon="4.70054">
        <ele>61.8</ele>
        <time>2014-06-10T09:35:15Z</time>
      </trkpt>
      <trkpt lat="43.76115" lon="4.70057">
        <ele>62.1</ele>
        <time>2014-06-10T09:35:20Z</time>
      </trkpt>
      <trkpt lat="43.76111" lon="4.7006">
        <ele>62.4</ele>
        <time>2014-06-10T09:35:25Z</time>
      </trkpt>
      <trkpt lat="43.76108" lon="4.70064">
        <ele>62.9</ele>
        <time>2014-06-10T09:35:29Z</time>
      </trkpt>
      <trkpt lat="43.76105" lon="4.70069">
        <ele>63.3</ele>
        <time>2014-06-10T09:35:34Z</time>
      </trkpt>
      <trkpt lat="43.761" lon="4.70079">
        <ele>64.2</ele>
        <time>2014-06-10T09:35:44Z</time>
      </trkpt>
      <trkpt lat="43.76098" lon="4.70086">
        <ele>64.6</ele>
        <time>2014-06-10T09:35:50Z</time>
      </trkpt>
      <trkpt lat="43.76096" lon="4.70092">
        <ele>64.8</ele>
        <time>2014-06-10T09:35:55Z</time>
      </trkpt>
      <trkpt lat="43.76096" lon="4.70098">
        <ele>64.9</ele>
        <time>2014-06-10T09:36:00Z</time>
      </trkpt>
      <trkpt lat="43.76096" lon="4.70106">
        <ele>65.2</ele>
        <time>2014-06-10T09:36:05Z</time>
      </trkpt>
      <trkpt lat="43.76097" lon="4.70112">
        <ele>65.5</ele>
        <time>2014-06-10T09:36:10Z</time>
      </trkpt>
      <trkpt lat="43.76099" lon="4.70119">
        <ele>65.9</ele>
        <time>2014-06-10T09:36:16Z</time>
      </trkpt>
      <trkpt lat="43.76102" lon="4.70125">
        <ele>66.3</ele>
        <time>2014-06-10T09:36:21Z</time>
      </trkpt>
      <trkpt lat="43.76105" lon="4.70131">
        <ele>66.8</ele>
        <time>2014-06-10T09:36:26Z</time>
      </trkpt>
      <trkpt lat="43.76107" lon="4.70137">
        <ele>67.3</ele>
        <time>2014-06-10T09:36:31Z</time>
      </trkpt>
      <trkpt lat="43.76111" lon="4.70142">
        <ele>67.8</ele>
        <time>2014-06-10T09:36:37Z</time>
      </trkpt>
      <trkpt lat="43.76114" lon="4.70147">
        <ele>67.9</ele>
        <time>2014-06-10T09:36:43Z</time>
      </trkpt>
      <trkpt lat="43.76121" lon="4.70156">
        <ele>68.3</ele>
        <time>2014-06-10T09:36:54Z</time>
      </trkpt>
      <trkpt lat="43.76125" lon="4.70161">
        <ele>68.6</ele>
        <time>2014-06-10T09:37:00Z</time>
      </trkpt>
      <trkpt lat="43.76129" lon="4.70165">
        <ele>69</ele>
        <time>2014-06-10T09:37:06Z</time>
      </trkpt>
      <trkpt lat="43.76133" lon="4.70169">
        <ele>69.2</ele>
        <time>2014-06-10T09:37:11Z</time>
      </trkpt>
      <trkpt lat="43.76136" lon="4.70174">
        <ele>69.6</ele>
        <time>2014-06-10T09:37:16Z</time>
      </trkpt>
      <trkpt lat="43.7614" lon="4.70178">
        <ele>70.1</ele>
        <time>2014-06-10T09:37:21Z</time>
      </trkpt>
      <trkpt lat="43.76144" lon="4.70182">
        <ele>70.4</ele>
        <time>2014-06-10T09:37:27Z</time>
      </trkpt>
      <trkpt lat="43.76148" lon="4.70187">
        <ele>70.7</ele>
        <time>2014-06-10T09:37:32Z</time>
      </trkpt>
      <trkpt lat="43.76152" lon="4.70191">
        <ele>70.9</ele>
        <time>2014-06-10T09:37:37Z</time>
      </trkpt>
      <trkpt lat="43.76155" lon="4.70196">
        <ele>71.2</ele>
        <time>2014-06-10T09:37:42Z</time>
      </trkpt>
      <trkpt lat="43.76162" lon="4.70205">
        <ele>72</ele>
        <time>2014-06-10T09:37:54Z</time>
      </trkpt>
      <trkpt lat="43.76165" lon="4.70209">
        <ele>72.4</ele>
        <time>2014-06-10T09:37:59Z</time>
      </trkpt>
      <trkpt lat="43.76169" lon="4.70214">
        <ele>72.9</ele>
        <time>2014-06-10T09:38:04Z</time>
      </trkpt>
      <trkpt lat="43.76176" lon="4.70223">
        <ele>73.6</ele>
        <time>2014-06-10T09:38:14Z</time>
      </trkpt>
      <trkpt lat="43.76179" lon="4.70228">
        <ele>74</ele>
        <time>2014-06-10T09:38:19Z</time>
      </trkpt>
      <trkpt lat="43.76183" lon="4.70232">
        <ele>74.3</ele>
        <time>2014-06-10T09:38:24Z</time>
      </trkpt>
      <trkpt lat="43.76186" lon="4.70237">
        <ele>74.6</ele>
        <time>2014-06-10T09:38:29Z</time>
      </trkpt>
      <trkpt lat="43.76193" lon="4.70246">
        <ele>74.9</ele>
        <time>2014-06-10T09:38:39Z</time>
      </trkpt>
      <trkpt lat="43.76196" lon="4.70251">
        <ele>75.2</ele>
        <time>2014-06-10T09:38:44Z</time>
      </trkpt>
      <trkpt lat="43.76199" lon="4.70257">
        <ele>75.8</ele>
        <time>2014-06-10T09:38:50Z</time>
      </trkpt>
      <trkpt lat="43.76202" lon="4.70262">
        <ele>76.3</ele>
        <time>2014-06-10T09:38:55Z</time>
      </trkpt>
      <trkpt lat="43.76204" lon="4.70269">
        <ele>76.8</ele>
        <time>2014-06-10T09:39:09Z</time>
      </trkpt>
      <trkpt lat="43.76204" lon="4.70275">
        <ele>77.2</ele>
        <time>2014-06-10T09:39:14Z</time>
      </trkpt>
      <trkpt lat="43.76201" lon="4.70282">
        <ele>77.4</ele>
        <time>2014-06-10T09:39:20Z</time>
      </trkpt>
      <trkpt lat="43.76193" lon="4.70288">
        <ele>77.3</ele>
        <time>2014-06-10T09:39:32Z</time>
      </trkpt>
      <trkpt lat="43.7619" lon="4.70293">
        <ele>77.1</ele>
        <time>2014-06-10T09:39:38Z</time>
      </trkpt>
      <trkpt lat="43.76186" lon="4.70298">
        <ele>76.9</ele>
        <time>2014-06-10T09:39:43Z</time>
      </trkpt>
      <trkpt lat="43.76182" lon="4.70302">
        <ele>76.6</ele>
        <time>2014-06-10T09:39:49Z</time>
      </trkpt>
      <trkpt lat="43.76179" lon="4.70307">
        <ele>76.3</ele>
        <time>2014-06-10T09:39:55Z</time>
      </trkpt>
      <trkpt lat="43.76176" lon="4.70313">
        <ele>76.3</ele>
        <time>2014-06-10T09:40:00Z</time>
      </trkpt>
      <trkpt lat="43.76174" lon="4.70319">
        <ele>76.4</ele>
        <time>2014-06-10T09:40:06Z</time>
      </trkpt>
      <trkpt lat="43.76171" lon="4.70324">
        <ele>76.6</ele>
        <time>2014-06-10T09:40:12Z</time>
      </trkpt>
      <trkpt lat="43.76167" lon="4.7033">
        <ele>76.8</ele>
        <time>2014-06-10T09:40:18Z</time>
      </trkpt>
      <trkpt lat="43.76161" lon="4.70339">
        <ele>76.8</ele>
        <time>2014-06-10T09:40:28Z</time>
      </trkpt>
      <trkpt lat="43.76158" lon="4.70344">
        <ele>76.9</ele>
        <time>2014-06-10T09:40:33Z</time>
      </trkpt>
      <trkpt lat="43.76154" lon="4.70349">
        <ele>76.9</ele>
        <time>2014-06-10T09:40:38Z</time>
      </trkpt>
      <trkpt lat="43.76145" lon="4.70353">
        <ele>76.7</ele>
        <time>2014-06-10T09:40:47Z</time>
      </trkpt>
      <trkpt lat="43.76136" lon="4.70352">
        <ele>76.5</ele>
        <time>2014-06-10T09:40:57Z</time>
      </trkpt>
      <trkpt lat="43.76131" lon="4.7035">
        <ele>76.7</ele>
        <time>2014-06-10T09:41:02Z</time>
      </trkpt>
      <trkpt lat="43.76126" lon="4.70348">
        <ele>76.8</ele>
        <time>2014-06-10T09:41:07Z</time>
      </trkpt>
      <trkpt lat="43.76122" lon="4.70344">
        <ele>76.6</ele>
        <time>2014-06-10T09:41:12Z</time>
      </trkpt>
      <trkpt lat="43.76118" lon="4.70339">
        <ele>76.3</ele>
        <time>2014-06-10T09:41:17Z</time>
      </trkpt>
      <trkpt lat="43.76114" lon="4.70336">
        <ele>76.2</ele>
        <time>2014-06-10T09:41:22Z</time>
      </trkpt>
      <trkpt lat="43.7611" lon="4.70332">
        <ele>76</ele>
        <time>2014-06-10T09:41:27Z</time>
      </trkpt>
      <trkpt lat="43.76107" lon="4.70327">
        <ele>75.9</ele>
        <time>2014-06-10T09:41:32Z</time>
      </trkpt>
      <trkpt lat="43.76104" lon="4.70322">
        <ele>75.9</ele>
        <time>2014-06-10T09:41:38Z</time>
      </trkpt>
      <trkpt lat="43.761" lon="4.70318">
        <ele>75.9</ele>
        <time>2014-06-10T09:41:43Z</time>
      </trkpt>
      <trkpt lat="43.76092" lon="4.70311">
        <ele>75.9</ele>
        <time>2014-06-10T09:41:53Z</time>
      </trkpt>
      <trkpt lat="43.76084" lon="4.70303">
        <ele>75.8</ele>
        <time>2014-06-10T09:42:03Z</time>
      </trkpt>
      <trkpt lat="43.7608" lon="4.70298">
        <ele>75.5</ele>
        <time>2014-06-10T09:42:08Z</time>
      </trkpt>
      <trkpt lat="43.76076" lon="4.70295">
        <ele>75.2</ele>
        <time>2014-06-10T09:42:13Z</time>
      </trkpt>
      <trkpt lat="43.76072" lon="4.70291">
        <ele>75</ele>
        <time>2014-06-10T09:42:18Z</time>
      </trkpt>
      <trkpt lat="43.76067" lon="4.70287">
        <ele>74.7</ele>
        <time>2014-06-10T09:42:24Z</time>
      </trkpt>
      <trkpt lat="43.76062" lon="4.70285">
        <ele>74.5</ele>
        <time>2014-06-10T09:42:29Z</time>
      </trkpt>
      <trkpt lat="43.76056" lon="4.70285">
        <ele>74.5</ele>
        <time>2014-06-10T09:42:34Z</time>
      </trkpt>
      <trkpt lat="43.76051" lon="4.70286">
        <ele>74.6</ele>
        <time>2014-06-10T09:42:40Z</time>
      </trkpt>
      <trkpt lat="43.76047" lon="4.70291">
        <ele>74.8</ele>
        <time>2014-06-10T09:42:45Z</time>
      </trkpt>
      <trkpt lat="43.76045" lon="4.70297">
        <ele>75.1</ele>
        <time>2014-06-10T09:42:50Z</time>
      </trkpt>
      <trkpt lat="43.76043" lon="4.70304">
        <ele>75.4</ele>
        <time>2014-06-10T09:42:55Z</time>
      </trkpt>
      <trkpt lat="43.76041" lon="4.7031">
        <ele>75.6</ele>
        <time>2014-06-10T09:43:00Z</time>
      </trkpt>
      <trkpt lat="43.7604" lon="4.70317">
        <ele>75.8</ele>
        <time>2014-06-10T09:43:05Z</time>
      </trkpt>
      <trkpt lat="43.76039" lon="4.70324">
        <ele>76.1</ele>
        <time>2014-06-10T09:43:10Z</time>
      </trkpt>
      <trkpt lat="43.76039" lon="4.7033">
        <ele>76.3</ele>
        <time>2014-06-10T09:43:15Z</time>
      </trkpt>
      <trkpt lat="43.76038" lon="4.70338">
        <ele>76.4</ele>
        <time>2014-06-10T09:43:21Z</time>
      </trkpt>
      <trkpt lat="43.76038" lon="4.70345">
        <ele>76.4</ele>
        <time>2014-06-10T09:43:26Z</time>
      </trkpt>
      <trkpt lat="43.76037" lon="4.70352">
        <ele>76.3</ele>
        <time>2014-06-10T09:43:31Z</time>
      </trkpt>
      <trkpt lat="43.76037" lon="4.70358">
        <ele>76.3</ele>
        <time>2014-06-10T09:43:36Z</time>
      </trkpt>
      <trkpt lat="43.76036" lon="4.70371">
        <ele>76.9</ele>
        <time>2014-06-10T09:43:47Z</time>
      </trkpt>
      <trkpt lat="43.76035" lon="4.70384">
        <ele>77.7</ele>
        <time>2014-06-10T09:43:57Z</time>
      </trkpt>
      <trkpt lat="43.76033" lon="4.70391">
        <ele>78.1</ele>
        <time>2014-06-10T09:44:03Z</time>
      </trkpt>
      <trkpt lat="43.76032" lon="4.70399">
        <ele>78.4</ele>
        <time>2014-06-10T09:44:09Z</time>
      </trkpt>
      <trkpt lat="43.7603" lon="4.70405">
        <ele>78.6</ele>
        <time>2014-06-10T09:44:16Z</time>
      </trkpt>
      <trkpt lat="43.76029" lon="4.70418">
        <ele>79.2</ele>
        <time>2014-06-10T09:44:27Z</time>
      </trkpt>
      <trkpt lat="43.76028" lon="4.70425">
        <ele>79.6</ele>
        <time>2014-06-10T09:44:32Z</time>
      </trkpt>
      <trkpt lat="43.76026" lon="4.70431">
        <ele>80</ele>
        <time>2014-06-10T09:44:39Z</time>
      </trkpt>
      <trkpt lat="43.76025" lon="4.70437">
        <ele>80.4</ele>
        <time>2014-06-10T09:44:45Z</time>
      </trkpt>
      <trkpt lat="43.76023" lon="4.70444">
        <ele>80.8</ele>
        <time>2014-06-10T09:44:52Z</time>
      </trkpt>
      <trkpt lat="43.76022" lon="4.7045">
        <ele>81.2</ele>
        <time>2014-06-10T09:44:59Z</time>
      </trkpt>
      <trkpt lat="43.76022" lon="4.70457">
        <ele>81.7</ele>
        <time>2014-06-10T09:45:05Z</time>
      </trkpt>
      <trkpt lat="43.76022" lon="4.70464">
        <ele>82.2</ele>
        <time>2014-06-10T09:45:10Z</time>
      </trkpt>
      <trkpt lat="43.76021" lon="4.70471">
        <ele>82.7</ele>
        <time>2014-06-10T09:45:16Z</time>
      </trkpt>
      <trkpt lat="43.76019" lon="4.70478">
        <ele>83.2</ele>
        <time>2014-06-10T09:45:24Z</time>
      </trkpt>
      <trkpt lat="43.76017" lon="4.70484">
        <ele>83.7</ele>
        <time>2014-06-10T09:45:30Z</time>
      </trkpt>
      <trkpt lat="43.76015" lon="4.7049">
        <ele>84.2</ele>
        <time>2014-06-10T09:45:36Z</time>
      </trkpt>
      <trkpt lat="43.76014" lon="4.70497">
        <ele>84.7</ele>
        <time>2014-06-10T09:45:41Z</time>
      </trkpt>
      <trkpt lat="43.76011" lon="4.70503">
        <ele>85.1</ele>
        <time>2014-06-10T09:45:46Z</time>
      </trkpt>
      <trkpt lat="43.7601" lon="4.70509">
        <ele>85.3</ele>
        <time>2014-06-10T09:45:51Z</time>
      </trkpt>
      <trkpt lat="43.76007" lon="4.70515">
        <ele>85.6</ele>
        <time>2014-06-10T09:45:56Z</time>
      </trkpt>
      <trkpt lat="43.76004" lon="4.7052">
        <ele>85.7</ele>
        <time>2014-06-10T09:46:01Z</time>
      </trkpt>
      <trkpt lat="43.75999" lon="4.70524">
        <ele>85.7</ele>
        <time>2014-06-10T09:46:06Z</time>
      </trkpt>
      <trkpt lat="43.75995" lon="4.70527">
        <ele>85.8</ele>
        <time>2014-06-10T09:46:11Z</time>
      </trkpt>
      <trkpt lat="43.7599" lon="4.7053">
        <ele>85.8</ele>
        <time>2014-06-10T09:46:17Z</time>
      </trkpt>
      <trkpt lat="43.75986" lon="4.70532">
        <ele>85.9</ele>
        <time>2014-06-10T09:46:20Z</time>
      </trkpt>
      <trkpt lat="43.7598" lon="4.70533">
        <ele>85.8</ele>
        <time>2014-06-10T09:46:24Z</time>
      </trkpt>
      <trkpt lat="43.75974" lon="4.70535">
        <ele>85.8</ele>
        <time>2014-06-10T09:46:29Z</time>
      </trkpt>
      <trkpt lat="43.75968" lon="4.70534">
        <ele>85.7</ele>
        <time>2014-06-10T09:46:34Z</time>
      </trkpt>
      <trkpt lat="43.75962" lon="4.70534">
        <ele>85.7</ele>
        <time>2014-06-10T09:46:39Z</time>
      </trkpt>
      <trkpt lat="43.75956" lon="4.70533">
        <ele>85.5</ele>
        <time>2014-06-10T09:46:44Z</time>
      </trkpt>
      <trkpt lat="43.75951" lon="4.70529">
        <ele>85.2</ele>
        <time>2014-06-10T09:46:49Z</time>
      </trkpt>
      <trkpt lat="43.75945" lon="4.70528">
        <ele>85</ele>
        <time>2014-06-10T09:46:54Z</time>
      </trkpt>
      <trkpt lat="43.75939" lon="4.70527">
        <ele>85.1</ele>
        <time>2014-06-10T09:46:59Z</time>
      </trkpt>
      <trkpt lat="43.75934" lon="4.70524">
        <ele>85</ele>
        <time>2014-06-10T09:47:04Z</time>
      </trkpt>
      <trkpt lat="43.75928" lon="4.70521">
        <ele>85</ele>
        <time>2014-06-10T09:47:09Z</time>
      </trkpt>
      <trkpt lat="43.75923" lon="4.70519">
        <ele>84.9</ele>
        <time>2014-06-10T09:47:14Z</time>
      </trkpt>
      <trkpt lat="43.75918" lon="4.70518">
        <ele>84.9</ele>
        <time>2014-06-10T09:47:19Z</time>
      </trkpt>
      <trkpt lat="43.75912" lon="4.70517">
        <ele>84.8</ele>
        <time>2014-06-10T09:47:24Z</time>
      </trkpt>
      <trkpt lat="43.75906" lon="4.70518">
        <ele>84.8</ele>
        <time>2014-06-10T09:47:29Z</time>
      </trkpt>
      <trkpt lat="43.75901" lon="4.70518">
        <ele>84.8</ele>
        <time>2014-06-10T09:47:34Z</time>
      </trkpt>
      <trkpt lat="43.75895" lon="4.7052">
        <ele>84.8</ele>
        <time>2014-06-10T09:47:39Z</time>
      </trkpt>
      <trkpt lat="43.7589" lon="4.70522">
        <ele>84.8</ele>
        <time>2014-06-10T09:47:44Z</time>
      </trkpt>
      <trkpt lat="43.75885" lon="4.70525">
        <ele>84.8</ele>
        <time>2014-06-10T09:47:49Z</time>
      </trkpt>
      <trkpt lat="43.7588" lon="4.70528">
        <ele>84.7</ele>
        <time>2014-06-10T09:47:54Z</time>
      </trkpt>
      <trkpt lat="43.75876" lon="4.7053">
        <ele>84.6</ele>
        <time>2014-06-10T09:47:59Z</time>
      </trkpt>
      <trkpt lat="43.75848" lon="4.7056">
        <ele>84.2</ele>
        <time>2014-06-10T09:54:09Z</time>
      </trkpt>
      <trkpt lat="43.75845" lon="4.70565">
        <ele>84.2</ele>
        <time>2014-06-10T09:54:15Z</time>
      </trkpt>
      <trkpt lat="43.75843" lon="4.70571">
        <ele>84.3</ele>
        <time>2014-06-10T09:54:19Z</time>
      </trkpt>
      <trkpt lat="43.75841" lon="4.70579">
        <ele>84.4</ele>
        <time>2014-06-10T09:54:25Z</time>
      </trkpt>
      <trkpt lat="43.75839" lon="4.70586">
        <ele>84.5</ele>
        <time>2014-06-10T09:54:31Z</time>
      </trkpt>
      <trkpt lat="43.75837" lon="4.70599">
        <ele>84.8</ele>
        <time>2014-06-10T09:54:40Z</time>
      </trkpt>
      <trkpt lat="43.75834" lon="4.70606">
        <ele>84.9</ele>
        <time>2014-06-10T09:54:45Z</time>
      </trkpt>
      <trkpt lat="43.75832" lon="4.70613">
        <ele>85</ele>
        <time>2014-06-10T09:54:50Z</time>
      </trkpt>
      <trkpt lat="43.75829" lon="4.70618">
        <ele>85</ele>
        <time>2014-06-10T09:54:54Z</time>
      </trkpt>
      <trkpt lat="43.75824" lon="4.70622">
        <ele>85</ele>
        <time>2014-06-10T09:54:59Z</time>
      </trkpt>
      <trkpt lat="43.75819" lon="4.70624">
        <ele>84.9</ele>
        <time>2014-06-10T09:55:04Z</time>
      </trkpt>
      <trkpt lat="43.75814" lon="4.70626">
        <ele>84.8</ele>
        <time>2014-06-10T09:55:09Z</time>
      </trkpt>
      <trkpt lat="43.75808" lon="4.70625">
        <ele>84.6</ele>
        <time>2014-06-10T09:55:14Z</time>
      </trkpt>
      <trkpt lat="43.75802" lon="4.70624">
        <ele>84.5</ele>
        <time>2014-06-10T09:55:19Z</time>
      </trkpt>
      <trkpt lat="43.75797" lon="4.70623">
        <ele>84.6</ele>
        <time>2014-06-10T09:55:24Z</time>
      </trkpt>
      <trkpt lat="43.75791" lon="4.70622">
        <ele>84.6</ele>
        <time>2014-06-10T09:55:29Z</time>
      </trkpt>
      <trkpt lat="43.75786" lon="4.70621">
        <ele>84.8</ele>
        <time>2014-06-10T09:55:34Z</time>
      </trkpt>
      <trkpt lat="43.75781" lon="4.7062">
        <ele>84.8</ele>
        <time>2014-06-10T09:55:39Z</time>
      </trkpt>
      <trkpt lat="43.75776" lon="4.70617">
        <ele>84.7</ele>
        <time>2014-06-10T09:55:44Z</time>
      </trkpt>
      <trkpt lat="43.75771" lon="4.70615">
        <ele>84.6</ele>
        <time>2014-06-10T09:55:49Z</time>
      </trkpt>
      <trkpt lat="43.75727" lon="4.70598">
        <ele>84</ele>
        <time>2014-06-10T09:56:47Z</time>
      </trkpt>
      <trkpt lat="43.75722" lon="4.70595">
        <ele>83.9</ele>
        <time>2014-06-10T09:56:52Z</time>
      </trkpt>
      <trkpt lat="43.75717" lon="4.70594">
        <ele>83.9</ele>
        <time>2014-06-10T09:56:56Z</time>
      </trkpt>
      <trkpt lat="43.75712" lon="4.70593">
        <ele>83.9</ele>
        <time>2014-06-10T09:57:01Z</time>
      </trkpt>
      <trkpt lat="43.75707" lon="4.70591">
        <ele>84</ele>
        <time>2014-06-10T09:57:06Z</time>
      </trkpt>
      <trkpt lat="43.75701" lon="4.70591">
        <ele>84.1</ele>
        <time>2014-06-10T09:57:11Z</time>
      </trkpt>
      <trkpt lat="43.75696" lon="4.70591">
        <ele>84.2</ele>
        <time>2014-06-10T09:57:16Z</time>
      </trkpt>
      <trkpt lat="43.75691" lon="4.70593">
        <ele>84</ele>
        <time>2014-06-10T09:57:21Z</time>
      </trkpt>
      <trkpt lat="43.75686" lon="4.70595">
        <ele>83.6</ele>
        <time>2014-06-10T09:57:26Z</time>
      </trkpt>
      <trkpt lat="43.75681" lon="4.70598">
        <ele>83.3</ele>
        <time>2014-06-10T09:57:31Z</time>
      </trkpt>
      <trkpt lat="43.75677" lon="4.70601">
        <ele>83.1</ele>
        <time>2014-06-10T09:57:36Z</time>
      </trkpt>
      <trkpt lat="43.75672" lon="4.70605">
        <ele>83</ele>
        <time>2014-06-10T09:57:41Z</time>
      </trkpt>
      <trkpt lat="43.75668" lon="4.70609">
        <ele>82.9</ele>
        <time>2014-06-10T09:57:46Z</time>
      </trkpt>
      <trkpt lat="43.75663" lon="4.70612">
        <ele>82.9</ele>
        <time>2014-06-10T09:57:51Z</time>
      </trkpt>
      <trkpt lat="43.75658" lon="4.70615">
        <ele>83</ele>
        <time>2014-06-10T09:57:56Z</time>
      </trkpt>
      <trkpt lat="43.7565" lon="4.70622">
        <ele>83.1</ele>
        <time>2014-06-10T09:58:06Z</time>
      </trkpt>
      <trkpt lat="43.75645" lon="4.70625">
        <ele>83.2</ele>
        <time>2014-06-10T09:58:11Z</time>
      </trkpt>
      <trkpt lat="43.75641" lon="4.70629">
        <ele>83.3</ele>
        <time>2014-06-10T09:58:17Z</time>
      </trkpt>
      <trkpt lat="43.75636" lon="4.70629">
        <ele>83.3</ele>
        <time>2014-06-10T09:58:30Z</time>
      </trkpt>
      <trkpt lat="43.75631" lon="4.70631">
        <ele>83.5</ele>
        <time>2014-06-10T09:58:35Z</time>
      </trkpt>
      <trkpt lat="43.75626" lon="4.70633">
        <ele>83.7</ele>
        <time>2014-06-10T09:58:40Z</time>
      </trkpt>
      <trkpt lat="43.75621" lon="4.70634">
        <ele>83.8</ele>
        <time>2014-06-10T09:58:44Z</time>
      </trkpt>
      <trkpt lat="43.75616" lon="4.70634">
        <ele>83.8</ele>
        <time>2014-06-10T09:58:49Z</time>
      </trkpt>
      <trkpt lat="43.7561" lon="4.70631">
        <ele>83.8</ele>
        <time>2014-06-10T09:58:59Z</time>
      </trkpt>
      <trkpt lat="43.75604" lon="4.70628">
        <ele>83.8</ele>
        <time>2014-06-10T09:59:04Z</time>
      </trkpt>
      <trkpt lat="43.756" lon="4.70623">
        <ele>83.8</ele>
        <time>2014-06-10T09:59:09Z</time>
      </trkpt>
      <trkpt lat="43.75596" lon="4.70619">
        <ele>83.8</ele>
        <time>2014-06-10T09:59:14Z</time>
      </trkpt>
      <trkpt lat="43.75592" lon="4.70612">
        <ele>83.7</ele>
        <time>2014-06-10T09:59:19Z</time>
      </trkpt>
      <trkpt lat="43.7559" lon="4.70605">
        <ele>83.5</ele>
        <time>2014-06-10T09:59:24Z</time>
      </trkpt>
      <trkpt lat="43.75588" lon="4.70599">
        <ele>83.4</ele>
        <time>2014-06-10T09:59:30Z</time>
      </trkpt>
      <trkpt lat="43.75555" lon="4.70639">
        <ele>85</ele>
        <time>2014-06-10T10:04:34Z</time>
      </trkpt>
      <trkpt lat="43.75552" lon="4.70645">
        <ele>85.2</ele>
        <time>2014-06-10T10:04:40Z</time>
      </trkpt>
      <trkpt lat="43.75545" lon="4.70654">
        <ele>85.3</ele>
        <time>2014-06-10T10:04:50Z</time>
      </trkpt>
      <trkpt lat="43.75543" lon="4.7066">
        <ele>85.4</ele>
        <time>2014-06-10T10:04:55Z</time>
      </trkpt>
      <trkpt lat="43.7554" lon="4.70666">
        <ele>85.4</ele>
        <time>2014-06-10T10:05:01Z</time>
      </trkpt>
      <trkpt lat="43.75537" lon="4.70671">
        <ele>85.4</ele>
        <time>2014-06-10T10:05:06Z</time>
      </trkpt>
      <trkpt lat="43.75534" lon="4.70677">
        <ele>85.3</ele>
        <time>2014-06-10T10:05:10Z</time>
      </trkpt>
      <trkpt lat="43.75533" lon="4.70683">
        <ele>85.3</ele>
        <time>2014-06-10T10:05:16Z</time>
      </trkpt>
      <trkpt lat="43.7553" lon="4.70688">
        <ele>85.1</ele>
        <time>2014-06-10T10:05:21Z</time>
      </trkpt>
      <trkpt lat="43.75527" lon="4.70695">
        <ele>85</ele>
        <time>2014-06-10T10:05:26Z</time>
      </trkpt>
      <trkpt lat="43.75525" lon="4.70701">
        <ele>85.1</ele>
        <time>2014-06-10T10:05:30Z</time>
      </trkpt>
      <trkpt lat="43.75521" lon="4.70707">
        <ele>85.1</ele>
        <time>2014-06-10T10:05:35Z</time>
      </trkpt>
      <trkpt lat="43.75519" lon="4.70713">
        <ele>85.2</ele>
        <time>2014-06-10T10:05:40Z</time>
      </trkpt>
      <trkpt lat="43.75517" lon="4.70719">
        <ele>85.1</ele>
        <time>2014-06-10T10:05:45Z</time>
      </trkpt>
      <trkpt lat="43.75514" lon="4.70725">
        <ele>85</ele>
        <time>2014-06-10T10:05:49Z</time>
      </trkpt>
      <trkpt lat="43.75511" lon="4.70731">
        <ele>85</ele>
        <time>2014-06-10T10:05:54Z</time>
      </trkpt>
      <trkpt lat="43.75509" lon="4.70738">
        <ele>85</ele>
        <time>2014-06-10T10:05:59Z</time>
      </trkpt>
      <trkpt lat="43.75506" lon="4.70744">
        <ele>85</ele>
        <time>2014-06-10T10:06:04Z</time>
      </trkpt>
      <trkpt lat="43.75504" lon="4.70749">
        <ele>85.1</ele>
        <time>2014-06-10T10:06:09Z</time>
      </trkpt>
      <trkpt lat="43.75502" lon="4.70755">
        <ele>85.3</ele>
        <time>2014-06-10T10:06:16Z</time>
      </trkpt>
      <trkpt lat="43.755" lon="4.70762">
        <ele>85.4</ele>
        <time>2014-06-10T10:06:22Z</time>
      </trkpt>
      <trkpt lat="43.75497" lon="4.70769">
        <ele>85.4</ele>
        <time>2014-06-10T10:06:29Z</time>
      </trkpt>
      <trkpt lat="43.75494" lon="4.70775">
        <ele>85.5</ele>
        <time>2014-06-10T10:06:34Z</time>
      </trkpt>
      <trkpt lat="43.75493" lon="4.70781">
        <ele>85.5</ele>
        <time>2014-06-10T10:06:39Z</time>
      </trkpt>
      <trkpt lat="43.75491" lon="4.70788">
        <ele>85.3</ele>
        <time>2014-06-10T10:06:44Z</time>
      </trkpt>
      <trkpt lat="43.75488" lon="4.70796">
        <ele>85.1</ele>
        <time>2014-06-10T10:06:49Z</time>
      </trkpt>
      <trkpt lat="43.75486" lon="4.70808">
        <ele>84.8</ele>
        <time>2014-06-10T10:06:59Z</time>
      </trkpt>
      <trkpt lat="43.75484" lon="4.70815">
        <ele>84.1</ele>
        <time>2014-06-10T10:07:04Z</time>
      </trkpt>
      <trkpt lat="43.75482" lon="4.7082">
        <ele>83.3</ele>
        <time>2014-06-10T10:07:09Z</time>
      </trkpt>
      <trkpt lat="43.75442" lon="4.70819">
        <ele>79.6</ele>
        <time>2014-06-10T10:08:04Z</time>
      </trkpt>
      <trkpt lat="43.75438" lon="4.70819">
        <ele>78.8</ele>
        <time>2014-06-10T10:08:09Z</time>
      </trkpt>
      <trkpt lat="43.75432" lon="4.70818">
        <ele>77.9</ele>
        <time>2014-06-10T10:08:14Z</time>
      </trkpt>
      <trkpt lat="43.75428" lon="4.70817">
        <ele>77.3</ele>
        <time>2014-06-10T10:08:19Z</time>
      </trkpt>
      <trkpt lat="43.7542" lon="4.70811">
        <ele>76.8</ele>
        <time>2014-06-10T10:08:29Z</time>
      </trkpt>
      <trkpt lat="43.75415" lon="4.70808">
        <ele>76.4</ele>
        <time>2014-06-10T10:08:35Z</time>
      </trkpt>
      <trkpt lat="43.7541" lon="4.70805">
        <ele>75.8</ele>
        <time>2014-06-10T10:08:41Z</time>
      </trkpt>
      <trkpt lat="43.75405" lon="4.70804">
        <ele>75</ele>
        <time>2014-06-10T10:08:47Z</time>
      </trkpt>
      <trkpt lat="43.75401" lon="4.70805">
        <ele>74.1</ele>
        <time>2014-06-10T10:08:56Z</time>
      </trkpt>
      <trkpt lat="43.75404" lon="4.70817">
        <ele>72.8</ele>
        <time>2014-06-10T10:09:09Z</time>
      </trkpt>
      <trkpt lat="43.75407" lon="4.70823">
        <ele>72.3</ele>
        <time>2014-06-10T10:09:14Z</time>
      </trkpt>
      <trkpt lat="43.75411" lon="4.7083">
        <ele>72</ele>
        <time>2014-06-10T10:09:19Z</time>
      </trkpt>
      <trkpt lat="43.75414" lon="4.70837">
        <ele>71.7</ele>
        <time>2014-06-10T10:09:24Z</time>
      </trkpt>
      <trkpt lat="43.75418" lon="4.70848">
        <ele>70.7</ele>
        <time>2014-06-10T10:09:37Z</time>
      </trkpt>
      <trkpt lat="43.7542" lon="4.70854">
        <ele>70.1</ele>
        <time>2014-06-10T10:09:56Z</time>
      </trkpt>
      <trkpt lat="43.75382" lon="4.70862">
        <ele>58</ele>
        <time>2014-06-10T10:11:41Z</time>
      </trkpt>
      <trkpt lat="43.75377" lon="4.70861">
        <ele>57</ele>
        <time>2014-06-10T10:11:47Z</time>
      </trkpt>
      <trkpt lat="43.75372" lon="4.70858">
        <ele>56.4</ele>
        <time>2014-06-10T10:11:54Z</time>
      </trkpt>
      <trkpt lat="43.75367" lon="4.70857">
        <ele>55.4</ele>
        <time>2014-06-10T10:12:00Z</time>
      </trkpt>
      <trkpt lat="43.75362" lon="4.70856">
        <ele>54.4</ele>
        <time>2014-06-10T10:12:05Z</time>
      </trkpt>
      <trkpt lat="43.75357" lon="4.70854">
        <ele>53.9</ele>
        <time>2014-06-10T10:12:11Z</time>
      </trkpt>
      <trkpt lat="43.75347" lon="4.70851">
        <ele>52.8</ele>
        <time>2014-06-10T10:12:24Z</time>
      </trkpt>
      <trkpt lat="43.75342" lon="4.7085">
        <ele>52.2</ele>
        <time>2014-06-10T10:12:30Z</time>
      </trkpt>
      <trkpt lat="43.75334" lon="4.70848">
        <ele>50.9</ele>
        <time>2014-06-10T10:12:46Z</time>
      </trkpt>
      <trkpt lat="43.75329" lon="4.70849">
        <ele>50.5</ele>
        <time>2014-06-10T10:12:54Z</time>
      </trkpt>
      <trkpt lat="43.75324" lon="4.7085">
        <ele>50.2</ele>
        <time>2014-06-10T10:13:01Z</time>
      </trkpt>
      <trkpt lat="43.75321" lon="4.70855">
        <ele>49.7</ele>
        <time>2014-06-10T10:13:09Z</time>
      </trkpt>
      <trkpt lat="43.75318" lon="4.7086">
        <ele>49.6</ele>
        <time>2014-06-10T10:13:15Z</time>
      </trkpt>
      <trkpt lat="43.75277" lon="4.70844">
        <ele>47.8</ele>
        <time>2014-06-10T10:15:44Z</time>
      </trkpt>
      <trkpt lat="43.75272" lon="4.70842">
        <ele>47.9</ele>
        <time>2014-06-10T10:15:49Z</time>
      </trkpt>
      <trkpt lat="43.75267" lon="4.70838">
        <ele>47.7</ele>
        <time>2014-06-10T10:15:54Z</time>
      </trkpt>
      <trkpt lat="43.75262" lon="4.70835">
        <ele>47.9</ele>
        <time>2014-06-10T10:15:59Z</time>
      </trkpt>
      <trkpt lat="43.75257" lon="4.70832">
        <ele>48.2</ele>
        <time>2014-06-10T10:16:04Z</time>
      </trkpt>
      <trkpt lat="43.75253" lon="4.70828">
        <ele>48.3</ele>
        <time>2014-06-10T10:16:09Z</time>
      </trkpt>
      <trkpt lat="43.75249" lon="4.70825">
        <ele>48.4</ele>
        <time>2014-06-10T10:16:14Z</time>
      </trkpt>
      <trkpt lat="43.75244" lon="4.70821">
        <ele>48.3</ele>
        <time>2014-06-10T10:16:19Z</time>
      </trkpt>
      <trkpt lat="43.75239" lon="4.70817">
        <ele>48.2</ele>
        <time>2014-06-10T10:16:24Z</time>
      </trkpt>
      <trkpt lat="43.75235" lon="4.70814">
        <ele>48.4</ele>
        <time>2014-06-10T10:16:29Z</time>
      </trkpt>
      <trkpt lat="43.7523" lon="4.7081">
        <ele>48.4</ele>
        <time>2014-06-10T10:16:34Z</time>
      </trkpt>
      <trkpt lat="43.75226" lon="4.70805">
        <ele>48.2</ele>
        <time>2014-06-10T10:16:39Z</time>
      </trkpt>
      <trkpt lat="43.75222" lon="4.708">
        <ele>47.6</ele>
        <time>2014-06-10T10:16:44Z</time>
      </trkpt>
      <trkpt lat="43.75216" lon="4.70798">
        <ele>46.8</ele>
        <time>2014-06-10T10:16:49Z</time>
      </trkpt>
      <trkpt lat="43.75211" lon="4.708">
        <ele>46.9</ele>
        <time>2014-06-10T10:16:54Z</time>
      </trkpt>
      <trkpt lat="43.75207" lon="4.70806">
        <ele>47.4</ele>
        <time>2014-06-10T10:16:59Z</time>
      </trkpt>
      <trkpt lat="43.75206" lon="4.70812">
        <ele>47.9</ele>
        <time>2014-06-10T10:17:04Z</time>
      </trkpt>
      <trkpt lat="43.75204" lon="4.70818">
        <ele>48.4</ele>
        <time>2014-06-10T10:17:09Z</time>
      </trkpt>
      <trkpt lat="43.75202" lon="4.70825">
        <ele>48.8</ele>
        <time>2014-06-10T10:17:14Z</time>
      </trkpt>
      <trkpt lat="43.75201" lon="4.70832">
        <ele>49.2</ele>
        <time>2014-06-10T10:17:19Z</time>
      </trkpt>
      <trkpt lat="43.75199" lon="4.70839">
        <ele>49.1</ele>
        <time>2014-06-10T10:17:24Z</time>
      </trkpt>
      <trkpt lat="43.75199" lon="4.70847">
        <ele>49</ele>
        <time>2014-06-10T10:17:29Z</time>
      </trkpt>
      <trkpt lat="43.75197" lon="4.70853">
        <ele>48.6</ele>
        <time>2014-06-10T10:17:46Z</time>
      </trkpt>
      <trkpt lat="43.75195" lon="4.7086">
        <ele>48</ele>
        <time>2014-06-10T10:18:01Z</time>
      </trkpt>
      <trkpt lat="43.75194" lon="4.70867">
        <ele>48.2</ele>
        <time>2014-06-10T10:18:06Z</time>
      </trkpt>
      <trkpt lat="43.75195" lon="4.70874">
        <ele>48.7</ele>
        <time>2014-06-10T10:18:10Z</time>
      </trkpt>
      <trkpt lat="43.75195" lon="4.70881">
        <ele>48.8</ele>
        <time>2014-06-10T10:18:15Z</time>
      </trkpt>
      <trkpt lat="43.75192" lon="4.70887">
        <ele>48.6</ele>
        <time>2014-06-10T10:18:20Z</time>
      </trkpt>
      <trkpt lat="43.75165" lon="4.70931">
        <ele>49.4</ele>
        <time>2014-06-10T10:19:07Z</time>
      </trkpt>
      <trkpt lat="43.75163" lon="4.70943">
        <ele>49.5</ele>
        <time>2014-06-10T10:19:15Z</time>
      </trkpt>
      <trkpt lat="43.75162" lon="4.70951">
        <ele>49.6</ele>
        <time>2014-06-10T10:19:20Z</time>
      </trkpt>
      <trkpt lat="43.75161" lon="4.70958">
        <ele>49.5</ele>
        <time>2014-06-10T10:19:25Z</time>
      </trkpt>
      <trkpt lat="43.75159" lon="4.70964">
        <ele>49.3</ele>
        <time>2014-06-10T10:19:30Z</time>
      </trkpt>
      <trkpt lat="43.75157" lon="4.70971">
        <ele>49.1</ele>
        <time>2014-06-10T10:19:35Z</time>
      </trkpt>
      <trkpt lat="43.75155" lon="4.70977">
        <ele>49</ele>
        <time>2014-06-10T10:19:40Z</time>
      </trkpt>
      <trkpt lat="43.75153" lon="4.70983">
        <ele>49</ele>
        <time>2014-06-10T10:19:45Z</time>
      </trkpt>
      <trkpt lat="43.75151" lon="4.7099">
        <ele>49.2</ele>
        <time>2014-06-10T10:19:50Z</time>
      </trkpt>
      <trkpt lat="43.7515" lon="4.70996">
        <ele>49.3</ele>
        <time>2014-06-10T10:19:55Z</time>
      </trkpt>
      <trkpt lat="43.75148" lon="4.71003">
        <ele>49.4</ele>
        <time>2014-06-10T10:20:00Z</time>
      </trkpt>
      <trkpt lat="43.75146" lon="4.7101">
        <ele>49.4</ele>
        <time>2014-06-10T10:20:05Z</time>
      </trkpt>
      <trkpt lat="43.75144" lon="4.71017">
        <ele>49.4</ele>
        <time>2014-06-10T10:20:10Z</time>
      </trkpt>
      <trkpt lat="43.75143" lon="4.71024">
        <ele>49.6</ele>
        <time>2014-06-10T10:20:15Z</time>
      </trkpt>
      <trkpt lat="43.75142" lon="4.71031">
        <ele>49.5</ele>
        <time>2014-06-10T10:20:20Z</time>
      </trkpt>
      <trkpt lat="43.75141" lon="4.71038">
        <ele>49</ele>
        <time>2014-06-10T10:20:25Z</time>
      </trkpt>
      <trkpt lat="43.75141" lon="4.71044">
        <ele>48.9</ele>
        <time>2014-06-10T10:20:29Z</time>
      </trkpt>
      <trkpt lat="43.75143" lon="4.71051">
        <ele>49</ele>
        <time>2014-06-10T10:20:34Z</time>
      </trkpt>
      <trkpt lat="43.75145" lon="4.71058">
        <ele>48.8</ele>
        <time>2014-06-10T10:20:39Z</time>
      </trkpt>
      <trkpt lat="43.75149" lon="4.71063">
        <ele>48.5</ele>
        <time>2014-06-10T10:20:44Z</time>
      </trkpt>
      <trkpt lat="43.75152" lon="4.71067">
        <ele>48.1</ele>
        <time>2014-06-10T10:20:49Z</time>
      </trkpt>
      <trkpt lat="43.75156" lon="4.71071">
        <ele>48</ele>
        <time>2014-06-10T10:20:54Z</time>
      </trkpt>
      <trkpt lat="43.7516" lon="4.71075">
        <ele>47.8</ele>
        <time>2014-06-10T10:20:59Z</time>
      </trkpt>
      <trkpt lat="43.75163" lon="4.71079">
        <ele>47.4</ele>
        <time>2014-06-10T10:21:05Z</time>
      </trkpt>
      <trkpt lat="43.7517" lon="4.71088">
        <ele>47.1</ele>
        <time>2014-06-10T10:21:16Z</time>
      </trkpt>
      <trkpt lat="43.75174" lon="4.71093">
        <ele>47</ele>
        <time>2014-06-10T10:21:22Z</time>
      </trkpt>
      <trkpt lat="43.75178" lon="4.71097">
        <ele>47.1</ele>
        <time>2014-06-10T10:21:26Z</time>
      </trkpt>
      <trkpt lat="43.75183" lon="4.71101">
        <ele>47.2</ele>
        <time>2014-06-10T10:21:31Z</time>
      </trkpt>
      <trkpt lat="43.75186" lon="4.71105">
        <ele>46.9</ele>
        <time>2014-06-10T10:21:35Z</time>
      </trkpt>
      <trkpt lat="43.75191" lon="4.71109">
        <ele>46.9</ele>
        <time>2014-06-10T10:21:40Z</time>
      </trkpt>
      <trkpt lat="43.75195" lon="4.71113">
        <ele>47.1</ele>
        <time>2014-06-10T10:21:46Z</time>
      </trkpt>
      <trkpt lat="43.75199" lon="4.71118">
        <ele>47.7</ele>
        <time>2014-06-10T10:21:52Z</time>
      </trkpt>
      <trkpt lat="43.75202" lon="4.71124">
        <ele>47.9</ele>
        <time>2014-06-10T10:22:01Z</time>
      </trkpt>
      <trkpt lat="43.75204" lon="4.7113">
        <ele>47.8</ele>
        <time>2014-06-10T10:22:06Z</time>
      </trkpt>
      <trkpt lat="43.75208" lon="4.71135">
        <ele>47.9</ele>
        <time>2014-06-10T10:22:11Z</time>
      </trkpt>
      <trkpt lat="43.75211" lon="4.7114">
        <ele>47.9</ele>
        <time>2014-06-10T10:22:16Z</time>
      </trkpt>
      <trkpt lat="43.75216" lon="4.71145">
        <ele>48.5</ele>
        <time>2014-06-10T10:22:21Z</time>
      </trkpt>
      <trkpt lat="43.75222" lon="4.71154">
        <ele>48.5</ele>
        <time>2014-06-10T10:22:31Z</time>
      </trkpt>
      <trkpt lat="43.75226" lon="4.71157">
        <ele>48.7</ele>
        <time>2014-06-10T10:22:36Z</time>
      </trkpt>
      <trkpt lat="43.7523" lon="4.7116">
        <ele>48.8</ele>
        <time>2014-06-10T10:22:41Z</time>
      </trkpt>
      <trkpt lat="43.75234" lon="4.71165">
        <ele>48.5</ele>
        <time>2014-06-10T10:22:47Z</time>
      </trkpt>
      <trkpt lat="43.75238" lon="4.7117">
        <ele>49.4</ele>
        <time>2014-06-10T10:22:52Z</time>
      </trkpt>
      <trkpt lat="43.7524" lon="4.71176">
        <ele>50.8</ele>
        <time>2014-06-10T10:22:59Z</time>
      </trkpt>
      <trkpt lat="43.75244" lon="4.71181">
        <ele>51.5</ele>
        <time>2014-06-10T10:23:05Z</time>
      </trkpt>
      <trkpt lat="43.75247" lon="4.71186">
        <ele>52</ele>
        <time>2014-06-10T10:23:12Z</time>
      </trkpt>
      <trkpt lat="43.75251" lon="4.7119">
        <ele>52.2</ele>
        <time>2014-06-10T10:23:17Z</time>
      </trkpt>
      <trkpt lat="43.75255" lon="4.71194">
        <ele>52.4</ele>
        <time>2014-06-10T10:23:22Z</time>
      </trkpt>
      <trkpt lat="43.75258" lon="4.71199">
        <ele>53.2</ele>
        <time>2014-06-10T10:23:29Z</time>
      </trkpt>
      <trkpt lat="43.75262" lon="4.71204">
        <ele>54</ele>
        <time>2014-06-10T10:23:35Z</time>
      </trkpt>
      <trkpt lat="43.75269" lon="4.71212">
        <ele>54.4</ele>
        <time>2014-06-10T10:23:46Z</time>
      </trkpt>
      <trkpt lat="43.75274" lon="4.71218">
        <ele>54.3</ele>
        <time>2014-06-10T10:23:54Z</time>
      </trkpt>
      <trkpt lat="43.75278" lon="4.71223">
        <ele>54.1</ele>
        <time>2014-06-10T10:24:01Z</time>
      </trkpt>
      <trkpt lat="43.75283" lon="4.71228">
        <ele>55.5</ele>
        <time>2014-06-10T10:24:09Z</time>
      </trkpt>
      <trkpt lat="43.75287" lon="4.71232">
        <ele>56.3</ele>
        <time>2014-06-10T10:24:15Z</time>
      </trkpt>
      <trkpt lat="43.75291" lon="4.71235">
        <ele>56.8</ele>
        <time>2014-06-10T10:24:21Z</time>
      </trkpt>
      <trkpt lat="43.75295" lon="4.71239">
        <ele>57.2</ele>
        <time>2014-06-10T10:24:27Z</time>
      </trkpt>
      <trkpt lat="43.75299" lon="4.71242">
        <ele>57.3</ele>
        <time>2014-06-10T10:24:32Z</time>
      </trkpt>
      <trkpt lat="43.75307" lon="4.71249">
        <ele>57.7</ele>
        <time>2014-06-10T10:24:45Z</time>
      </trkpt>
      <trkpt lat="43.75311" lon="4.71253">
        <ele>58.5</ele>
        <time>2014-06-10T10:24:51Z</time>
      </trkpt>
      <trkpt lat="43.75314" lon="4.71257">
        <ele>59.3</ele>
        <time>2014-06-10T10:24:56Z</time>
      </trkpt>
      <trkpt lat="43.75318" lon="4.71261">
        <ele>60.1</ele>
        <time>2014-06-10T10:25:02Z</time>
      </trkpt>
      <trkpt lat="43.75322" lon="4.71265">
        <ele>60.9</ele>
        <time>2014-06-10T10:25:10Z</time>
      </trkpt>
      <trkpt lat="43.75326" lon="4.71268">
        <ele>61.2</ele>
        <time>2014-06-10T10:25:17Z</time>
      </trkpt>
      <trkpt lat="43.75331" lon="4.71273">
        <ele>61.9</ele>
        <time>2014-06-10T10:25:24Z</time>
      </trkpt>
      <trkpt lat="43.75335" lon="4.71276">
        <ele>62.3</ele>
        <time>2014-06-10T10:25:29Z</time>
      </trkpt>
      <trkpt lat="43.75336" lon="4.71285">
        <ele>65.1</ele>
        <time>2014-06-10T10:25:41Z</time>
      </trkpt>
      <trkpt lat="43.7533" lon="4.71284">
        <ele>65.5</ele>
        <time>2014-06-10T10:25:47Z</time>
      </trkpt>
      <trkpt lat="43.75321" lon="4.71279">
        <ele>65.3</ele>
        <time>2014-06-10T10:25:59Z</time>
      </trkpt>
      <trkpt lat="43.75311" lon="4.71276">
        <ele>65.7</ele>
        <time>2014-06-10T10:26:11Z</time>
      </trkpt>
      <trkpt lat="43.75302" lon="4.71275">
        <ele>67</ele>
        <time>2014-06-10T10:26:21Z</time>
      </trkpt>
      <trkpt lat="43.75297" lon="4.71273">
        <ele>67.4</ele>
        <time>2014-06-10T10:26:27Z</time>
      </trkpt>
      <trkpt lat="43.75292" lon="4.71271">
        <ele>68.3</ele>
        <time>2014-06-10T10:26:34Z</time>
      </trkpt>
      <trkpt lat="43.75287" lon="4.7127">
        <ele>69</ele>
        <time>2014-06-10T10:26:39Z</time>
      </trkpt>
      <trkpt lat="43.75282" lon="4.71269">
        <ele>69.6</ele>
        <time>2014-06-10T10:26:45Z</time>
      </trkpt>
      <trkpt lat="43.75277" lon="4.71267">
        <ele>70.2</ele>
        <time>2014-06-10T10:26:51Z</time>
      </trkpt>
      <trkpt lat="43.75272" lon="4.71265">
        <ele>70.6</ele>
        <time>2014-06-10T10:26:57Z</time>
      </trkpt>
      <trkpt lat="43.75268" lon="4.71262">
        <ele>70.6</ele>
        <time>2014-06-10T10:27:02Z</time>
      </trkpt>
      <trkpt lat="43.75263" lon="4.7126">
        <ele>71.1</ele>
        <time>2014-06-10T10:27:09Z</time>
      </trkpt>
      <trkpt lat="43.75258" lon="4.71258">
        <ele>71.6</ele>
        <time>2014-06-10T10:27:15Z</time>
      </trkpt>
      <trkpt lat="43.75249" lon="4.71255">
        <ele>72.5</ele>
        <time>2014-06-10T10:27:26Z</time>
      </trkpt>
      <trkpt lat="43.75244" lon="4.71253">
        <ele>72.4</ele>
        <time>2014-06-10T10:27:32Z</time>
      </trkpt>
      <trkpt lat="43.75239" lon="4.7125">
        <ele>72.3</ele>
        <time>2014-06-10T10:27:39Z</time>
      </trkpt>
      <trkpt lat="43.75233" lon="4.7125">
        <ele>72.7</ele>
        <time>2014-06-10T10:27:45Z</time>
      </trkpt>
      <trkpt lat="43.75228" lon="4.71249">
        <ele>73</ele>
        <time>2014-06-10T10:27:51Z</time>
      </trkpt>
      <trkpt lat="43.75224" lon="4.71248">
        <ele>73.4</ele>
        <time>2014-06-10T10:27:57Z</time>
      </trkpt>
      <trkpt lat="43.75218" lon="4.71247">
        <ele>73.8</ele>
        <time>2014-06-10T10:28:04Z</time>
      </trkpt>
      <trkpt lat="43.75213" lon="4.71247">
        <ele>74.2</ele>
        <time>2014-06-10T10:28:10Z</time>
      </trkpt>
      <trkpt lat="43.75208" lon="4.71248">
        <ele>74.9</ele>
        <time>2014-06-10T10:28:16Z</time>
      </trkpt>
      <trkpt lat="43.75203" lon="4.71247">
        <ele>75.2</ele>
        <time>2014-06-10T10:28:24Z</time>
      </trkpt>
      <trkpt lat="43.75194" lon="4.71248">
        <ele>76.6</ele>
        <time>2014-06-10T10:28:34Z</time>
      </trkpt>
      <trkpt lat="43.75189" lon="4.7125">
        <ele>77.1</ele>
        <time>2014-06-10T10:28:39Z</time>
      </trkpt>
      <trkpt lat="43.7518" lon="4.71257">
        <ele>78.1</ele>
        <time>2014-06-10T10:28:51Z</time>
      </trkpt>
      <trkpt lat="43.75177" lon="4.71262">
        <ele>78.6</ele>
        <time>2014-06-10T10:28:57Z</time>
      </trkpt>
      <trkpt lat="43.75174" lon="4.71269">
        <ele>79.2</ele>
        <time>2014-06-10T10:29:02Z</time>
      </trkpt>
      <trkpt lat="43.75172" lon="4.71275">
        <ele>79.7</ele>
        <time>2014-06-10T10:29:07Z</time>
      </trkpt>
      <trkpt lat="43.75172" lon="4.71281">
        <ele>80.2</ele>
        <time>2014-06-10T10:29:12Z</time>
      </trkpt>
      <trkpt lat="43.75172" lon="4.71289">
        <ele>80.8</ele>
        <time>2014-06-10T10:29:19Z</time>
      </trkpt>
      <trkpt lat="43.75173" lon="4.71295">
        <ele>81.6</ele>
        <time>2014-06-10T10:29:25Z</time>
      </trkpt>
      <trkpt lat="43.75176" lon="4.71301">
        <ele>82.5</ele>
        <time>2014-06-10T10:29:34Z</time>
      </trkpt>
      <trkpt lat="43.75177" lon="4.71307">
        <ele>83.3</ele>
        <time>2014-06-10T10:29:40Z</time>
      </trkpt>
      <trkpt lat="43.75179" lon="4.71314">
        <ele>83.8</ele>
        <time>2014-06-10T10:29:46Z</time>
      </trkpt>
      <trkpt lat="43.75179" lon="4.7132">
        <ele>84.3</ele>
        <time>2014-06-10T10:29:52Z</time>
      </trkpt>
      <trkpt lat="43.75181" lon="4.71328">
        <ele>84.8</ele>
        <time>2014-06-10T10:29:59Z</time>
      </trkpt>
      <trkpt lat="43.75175" lon="4.71388">
        <ele>89.8</ele>
        <time>2014-06-10T10:34:42Z</time>
      </trkpt>
      <trkpt lat="43.75172" lon="4.71394">
        <ele>90</ele>
        <time>2014-06-10T10:34:47Z</time>
      </trkpt>
      <trkpt lat="43.75171" lon="4.71402">
        <ele>90.4</ele>
        <time>2014-06-10T10:34:52Z</time>
      </trkpt>
      <trkpt lat="43.75169" lon="4.71408">
        <ele>90.7</ele>
        <time>2014-06-10T10:34:57Z</time>
      </trkpt>
      <trkpt lat="43.75169" lon="4.71415">
        <ele>91.2</ele>
        <time>2014-06-10T10:35:02Z</time>
      </trkpt>
      <trkpt lat="43.75169" lon="4.71423">
        <ele>91.7</ele>
        <time>2014-06-10T10:35:09Z</time>
      </trkpt>
      <trkpt lat="43.7517" lon="4.7143">
        <ele>92.4</ele>
        <time>2014-06-10T10:35:14Z</time>
      </trkpt>
      <trkpt lat="43.75172" lon="4.71436">
        <ele>93.1</ele>
        <time>2014-06-10T10:35:19Z</time>
      </trkpt>
      <trkpt lat="43.75174" lon="4.71448">
        <ele>94.2</ele>
        <time>2014-06-10T10:35:31Z</time>
      </trkpt>
      <trkpt lat="43.75177" lon="4.7146">
        <ele>95.2</ele>
        <time>2014-06-10T10:35:44Z</time>
      </trkpt>
      <trkpt lat="43.75177" lon="4.71467">
        <ele>95.6</ele>
        <time>2014-06-10T10:35:50Z</time>
      </trkpt>
      <trkpt lat="43.75179" lon="4.71473">
        <ele>96.2</ele>
        <time>2014-06-10T10:35:56Z</time>
      </trkpt>
      <trkpt lat="43.75179" lon="4.71479">
        <ele>96.5</ele>
        <time>2014-06-10T10:36:02Z</time>
      </trkpt>
      <trkpt lat="43.7518" lon="4.71487">
        <ele>96.9</ele>
        <time>2014-06-10T10:36:09Z</time>
      </trkpt>
      <trkpt lat="43.75182" lon="4.71494">
        <ele>97.5</ele>
        <time>2014-06-10T10:36:15Z</time>
      </trkpt>
      <trkpt lat="43.75183" lon="4.71501">
        <ele>97.9</ele>
        <time>2014-06-10T10:36:20Z</time>
      </trkpt>
      <trkpt lat="43.75184" lon="4.71507">
        <ele>98.2</ele>
        <time>2014-06-10T10:36:26Z</time>
      </trkpt>
      <trkpt lat="43.75188" lon="4.71512">
        <ele>99</ele>
        <time>2014-06-10T10:36:32Z</time>
      </trkpt>
      <trkpt lat="43.75192" lon="4.71513">
        <ele>99.9</ele>
        <time>2014-06-10T10:36:40Z</time>
      </trkpt>
      <trkpt lat="43.75197" lon="4.71511">
        <ele>100.7</ele>
        <time>2014-06-10T10:36:46Z</time>
      </trkpt>
      <trkpt lat="43.75202" lon="4.71508">
        <ele>101.2</ele>
        <time>2014-06-10T10:36:54Z</time>
      </trkpt>
      <trkpt lat="43.75206" lon="4.71503">
        <ele>101.4</ele>
        <time>2014-06-10T10:37:00Z</time>
      </trkpt>
      <trkpt lat="43.7521" lon="4.71499">
        <ele>101.7</ele>
        <time>2014-06-10T10:37:05Z</time>
      </trkpt>
      <trkpt lat="43.75214" lon="4.71495">
        <ele>102</ele>
        <time>2014-06-10T10:37:10Z</time>
      </trkpt>
      <trkpt lat="43.75218" lon="4.71491">
        <ele>102.2</ele>
        <time>2014-06-10T10:37:16Z</time>
      </trkpt>
      <trkpt lat="43.75222" lon="4.71487">
        <ele>102.5</ele>
        <time>2014-06-10T10:37:22Z</time>
      </trkpt>
      <trkpt lat="43.75227" lon="4.71483">
        <ele>102.9</ele>
        <time>2014-06-10T10:37:29Z</time>
      </trkpt>
      <trkpt lat="43.75232" lon="4.7148">
        <ele>103.4</ele>
        <time>2014-06-10T10:37:35Z</time>
      </trkpt>
      <trkpt lat="43.75237" lon="4.71478">
        <ele>103.9</ele>
        <time>2014-06-10T10:37:41Z</time>
      </trkpt>
      <trkpt lat="43.75241" lon="4.71475">
        <ele>104.2</ele>
        <time>2014-06-10T10:37:47Z</time>
      </trkpt>
      <trkpt lat="43.75246" lon="4.71474">
        <ele>104.7</ele>
        <time>2014-06-10T10:37:52Z</time>
      </trkpt>
      <trkpt lat="43.75252" lon="4.71474">
        <ele>105.4</ele>
        <time>2014-06-10T10:37:59Z</time>
      </trkpt>
      <trkpt lat="43.75258" lon="4.71474">
        <ele>105.9</ele>
        <time>2014-06-10T10:38:05Z</time>
      </trkpt>
      <trkpt lat="43.75263" lon="4.71474">
        <ele>106.5</ele>
        <time>2014-06-10T10:38:11Z</time>
      </trkpt>
      <trkpt lat="43.75268" lon="4.71474">
        <ele>107</ele>
        <time>2014-06-10T10:38:17Z</time>
      </trkpt>
      <trkpt lat="43.75274" lon="4.71473">
        <ele>107.6</ele>
        <time>2014-06-10T10:38:24Z</time>
      </trkpt>
      <trkpt lat="43.75279" lon="4.71473">
        <ele>108.2</ele>
        <time>2014-06-10T10:38:30Z</time>
      </trkpt>
      <trkpt lat="43.75289" lon="4.71472">
        <ele>109.2</ele>
        <time>2014-06-10T10:38:41Z</time>
      </trkpt>
      <trkpt lat="43.75294" lon="4.71471">
        <ele>109.7</ele>
        <time>2014-06-10T10:38:47Z</time>
      </trkpt>
      <trkpt lat="43.75299" lon="4.7147">
        <ele>110.2</ele>
        <time>2014-06-10T10:38:52Z</time>
      </trkpt>
      <trkpt lat="43.75303" lon="4.71469">
        <ele>110.7</ele>
        <time>2014-06-10T10:38:57Z</time>
      </trkpt>
      <trkpt lat="43.75313" lon="4.71469">
        <ele>111.4</ele>
        <time>2014-06-10T10:39:07Z</time>
      </trkpt>
      <trkpt lat="43.75322" lon="4.71467">
        <ele>112</ele>
        <time>2014-06-10T10:39:17Z</time>
      </trkpt>
      <trkpt lat="43.75327" lon="4.71467">
        <ele>112.4</ele>
        <time>2014-06-10T10:39:24Z</time>
      </trkpt>
      <trkpt lat="43.75333" lon="4.71466">
        <ele>112.7</ele>
        <time>2014-06-10T10:39:30Z</time>
      </trkpt>
      <trkpt lat="43.75342" lon="4.71464">
        <ele>113.4</ele>
        <time>2014-06-10T10:39:41Z</time>
      </trkpt>
      <trkpt lat="43.75348" lon="4.71463">
        <ele>113.9</ele>
        <time>2014-06-10T10:39:49Z</time>
      </trkpt>
      <trkpt lat="43.75353" lon="4.71461">
        <ele>114.1</ele>
        <time>2014-06-10T10:39:59Z</time>
      </trkpt>
      <trkpt lat="43.75357" lon="4.71461">
        <ele>114.5</ele>
        <time>2014-06-10T10:40:04Z</time>
      </trkpt>
      <trkpt lat="43.75367" lon="4.71459">
        <ele>114.6</ele>
        <time>2014-06-10T10:40:15Z</time>
      </trkpt>
      <trkpt lat="43.75371" lon="4.71459">
        <ele>114.8</ele>
        <time>2014-06-10T10:40:24Z</time>
      </trkpt>
      <trkpt lat="43.75376" lon="4.71461">
        <ele>115.1</ele>
        <time>2014-06-10T10:40:30Z</time>
      </trkpt>
      <trkpt lat="43.7538" lon="4.71466">
        <ele>115.8</ele>
        <time>2014-06-10T10:40:40Z</time>
      </trkpt>
      <trkpt lat="43.75383" lon="4.71471">
        <ele>116.6</ele>
        <time>2014-06-10T10:40:45Z</time>
      </trkpt>
      <trkpt lat="43.75386" lon="4.71477">
        <ele>117.3</ele>
        <time>2014-06-10T10:40:50Z</time>
      </trkpt>
      <trkpt lat="43.75388" lon="4.71483">
        <ele>118.1</ele>
        <time>2014-06-10T10:40:56Z</time>
      </trkpt>
      <trkpt lat="43.7539" lon="4.71489">
        <ele>118.8</ele>
        <time>2014-06-10T10:41:01Z</time>
      </trkpt>
      <trkpt lat="43.75391" lon="4.71496">
        <ele>119.6</ele>
        <time>2014-06-10T10:41:07Z</time>
      </trkpt>
      <trkpt lat="43.75392" lon="4.71502">
        <ele>120.2</ele>
        <time>2014-06-10T10:41:12Z</time>
      </trkpt>
      <trkpt lat="43.75392" lon="4.7151">
        <ele>120.6</ele>
        <time>2014-06-10T10:41:19Z</time>
      </trkpt>
      <trkpt lat="43.75395" lon="4.71516">
        <ele>121</ele>
        <time>2014-06-10T10:41:25Z</time>
      </trkpt>
      <trkpt lat="43.75396" lon="4.71524">
        <ele>121.5</ele>
        <time>2014-06-10T10:41:31Z</time>
      </trkpt>
      <trkpt lat="43.75398" lon="4.71537">
        <ele>122.7</ele>
        <time>2014-06-10T10:41:42Z</time>
      </trkpt>
      <trkpt lat="43.75399" lon="4.71545">
        <ele>123.4</ele>
        <time>2014-06-10T10:41:49Z</time>
      </trkpt>
      <trkpt lat="43.75401" lon="4.71551">
        <ele>124</ele>
        <time>2014-06-10T10:41:54Z</time>
      </trkpt>
      <trkpt lat="43.75402" lon="4.71557">
        <ele>124.5</ele>
        <time>2014-06-10T10:42:00Z</time>
      </trkpt>
      <trkpt lat="43.75403" lon="4.71564">
        <ele>124.7</ele>
        <time>2014-06-10T10:42:06Z</time>
      </trkpt>
      <trkpt lat="43.75404" lon="4.71571">
        <ele>124.8</ele>
        <time>2014-06-10T10:42:16Z</time>
      </trkpt>
      <trkpt lat="43.75405" lon="4.71578">
        <ele>125</ele>
        <time>2014-06-10T10:42:25Z</time>
      </trkpt>
      <trkpt lat="43.75408" lon="4.7159">
        <ele>125.8</ele>
        <time>2014-06-10T10:42:35Z</time>
      </trkpt>
      <trkpt lat="43.7541" lon="4.71597">
        <ele>126.5</ele>
        <time>2014-06-10T10:42:41Z</time>
      </trkpt>
      <trkpt lat="43.75412" lon="4.71604">
        <ele>127.1</ele>
        <time>2014-06-10T10:42:47Z</time>
      </trkpt>
      <trkpt lat="43.75414" lon="4.71612">
        <ele>127.9</ele>
        <time>2014-06-10T10:42:54Z</time>
      </trkpt>
      <trkpt lat="43.75416" lon="4.71619">
        <ele>128.2</ele>
        <time>2014-06-10T10:43:00Z</time>
      </trkpt>
      <trkpt lat="43.75418" lon="4.71625">
        <ele>128.6</ele>
        <time>2014-06-10T10:43:06Z</time>
      </trkpt>
      <trkpt lat="43.75437" lon="4.71678">
        <ele>132.2</ele>
        <time>2014-06-10T10:44:09Z</time>
      </trkpt>
      <trkpt lat="43.7544" lon="4.71684">
        <ele>132.5</ele>
        <time>2014-06-10T10:44:15Z</time>
      </trkpt>
      <trkpt lat="43.75442" lon="4.71689">
        <ele>132.8</ele>
        <time>2014-06-10T10:44:20Z</time>
      </trkpt>
      <trkpt lat="43.75445" lon="4.71695">
        <ele>133</ele>
        <time>2014-06-10T10:44:26Z</time>
      </trkpt>
      <trkpt lat="43.75448" lon="4.71701">
        <ele>133</ele>
        <time>2014-06-10T10:44:32Z</time>
      </trkpt>
      <trkpt lat="43.75451" lon="4.71706">
        <ele>133.2</ele>
        <time>2014-06-10T10:44:37Z</time>
      </trkpt>
      <trkpt lat="43.75454" lon="4.71711">
        <ele>133.5</ele>
        <time>2014-06-10T10:44:42Z</time>
      </trkpt>
      <trkpt lat="43.75457" lon="4.71716">
        <ele>133.9</ele>
        <time>2014-06-10T10:44:57Z</time>
      </trkpt>
      <trkpt lat="43.75461" lon="4.71721">
        <ele>134.4</ele>
        <time>2014-06-10T10:45:04Z</time>
      </trkpt>
      <trkpt lat="43.75464" lon="4.71726">
        <ele>134.7</ele>
        <time>2014-06-10T10:45:10Z</time>
      </trkpt>
      <trkpt lat="43.75471" lon="4.71735">
        <ele>135.7</ele>
        <time>2014-06-10T10:45:22Z</time>
      </trkpt>
      <trkpt lat="43.75475" lon="4.71741">
        <ele>136.2</ele>
        <time>2014-06-10T10:45:29Z</time>
      </trkpt>
      <trkpt lat="43.75482" lon="4.71749">
        <ele>137</ele>
        <time>2014-06-10T10:45:41Z</time>
      </trkpt>
      <trkpt lat="43.75485" lon="4.71754">
        <ele>137</ele>
        <time>2014-06-10T10:45:46Z</time>
      </trkpt>
      <trkpt lat="43.75488" lon="4.71759">
        <ele>137.1</ele>
        <time>2014-06-10T10:45:51Z</time>
      </trkpt>
      <trkpt lat="43.75492" lon="4.71764">
        <ele>137.5</ele>
        <time>2014-06-10T10:45:57Z</time>
      </trkpt>
      <trkpt lat="43.75497" lon="4.71769">
        <ele>138.3</ele>
        <time>2014-06-10T10:46:04Z</time>
      </trkpt>
      <trkpt lat="43.755" lon="4.71774">
        <ele>139</ele>
        <time>2014-06-10T10:46:09Z</time>
      </trkpt>
      <trkpt lat="43.75505" lon="4.71778">
        <ele>139.3</ele>
        <time>2014-06-10T10:46:15Z</time>
      </trkpt>
      <trkpt lat="43.75508" lon="4.71783">
        <ele>139.5</ele>
        <time>2014-06-10T10:46:21Z</time>
      </trkpt>
      <trkpt lat="43.7555" lon="4.71792">
        <ele>142.2</ele>
        <time>2014-06-10T10:51:09Z</time>
      </trkpt>
      <trkpt lat="43.75555" lon="4.71792">
        <ele>142.5</ele>
        <time>2014-06-10T10:51:14Z</time>
      </trkpt>
      <trkpt lat="43.7556" lon="4.71792">
        <ele>142.7</ele>
        <time>2014-06-10T10:51:19Z</time>
      </trkpt>
      <trkpt lat="43.75565" lon="4.71792">
        <ele>142.9</ele>
        <time>2014-06-10T10:51:24Z</time>
      </trkpt>
      <trkpt lat="43.75571" lon="4.71792">
        <ele>143.1</ele>
        <time>2014-06-10T10:51:29Z</time>
      </trkpt>
      <trkpt lat="43.75576" lon="4.71793">
        <ele>143.3</ele>
        <time>2014-06-10T10:51:34Z</time>
      </trkpt>
      <trkpt lat="43.75582" lon="4.71794">
        <ele>143.5</ele>
        <time>2014-06-10T10:51:39Z</time>
      </trkpt>
      <trkpt lat="43.75587" lon="4.71794">
        <ele>143.7</ele>
        <time>2014-06-10T10:51:44Z</time>
      </trkpt>
      <trkpt lat="43.75592" lon="4.71795">
        <ele>143.8</ele>
        <time>2014-06-10T10:51:49Z</time>
      </trkpt>
      <trkpt lat="43.75597" lon="4.71796">
        <ele>144</ele>
        <time>2014-06-10T10:51:54Z</time>
      </trkpt>
      <trkpt lat="43.75603" lon="4.71798">
        <ele>144.2</ele>
        <time>2014-06-10T10:51:59Z</time>
      </trkpt>
      <trkpt lat="43.75612" lon="4.71802">
        <ele>144.8</ele>
        <time>2014-06-10T10:52:09Z</time>
      </trkpt>
      <trkpt lat="43.75616" lon="4.71805">
        <ele>144.9</ele>
        <time>2014-06-10T10:52:14Z</time>
      </trkpt>
      <trkpt lat="43.75621" lon="4.71808">
        <ele>145.1</ele>
        <time>2014-06-10T10:52:19Z</time>
      </trkpt>
      <trkpt lat="43.75625" lon="4.71812">
        <ele>145.2</ele>
        <time>2014-06-10T10:52:24Z</time>
      </trkpt>
      <trkpt lat="43.75629" lon="4.71816">
        <ele>145.4</ele>
        <time>2014-06-10T10:52:29Z</time>
      </trkpt>
      <trkpt lat="43.75633" lon="4.71822">
        <ele>145.6</ele>
        <time>2014-06-10T10:52:34Z</time>
      </trkpt>
      <trkpt lat="43.75636" lon="4.71827">
        <ele>145.8</ele>
        <time>2014-06-10T10:52:39Z</time>
      </trkpt>
      <trkpt lat="43.75638" lon="4.71833">
        <ele>146</ele>
        <time>2014-06-10T10:52:44Z</time>
      </trkpt>
      <trkpt lat="43.75641" lon="4.71839">
        <ele>146.2</ele>
        <time>2014-06-10T10:52:49Z</time>
      </trkpt>
      <trkpt lat="43.75643" lon="4.71845">
        <ele>146.5</ele>
        <time>2014-06-10T10:52:54Z</time>
      </trkpt>
      <trkpt lat="43.75645" lon="4.71852">
        <ele>147</ele>
        <time>2014-06-10T10:52:59Z</time>
      </trkpt>
      <trkpt lat="43.75649" lon="4.71864">
        <ele>147.7</ele>
        <time>2014-06-10T10:53:09Z</time>
      </trkpt>
      <trkpt lat="43.75651" lon="4.71871">
        <ele>147.7</ele>
        <time>2014-06-10T10:53:14Z</time>
      </trkpt>
      <trkpt lat="43.75653" lon="4.71877">
        <ele>147.8</ele>
        <time>2014-06-10T10:53:19Z</time>
      </trkpt>
      <trkpt lat="43.75656" lon="4.71884">
        <ele>147.9</ele>
        <time>2014-06-10T10:53:24Z</time>
      </trkpt>
      <trkpt lat="43.75658" lon="4.71891">
        <ele>148.1</ele>
        <time>2014-06-10T10:53:29Z</time>
      </trkpt>
      <trkpt lat="43.7566" lon="4.71898">
        <ele>148.6</ele>
        <time>2014-06-10T10:53:34Z</time>
      </trkpt>
      <trkpt lat="43.75662" lon="4.71905">
        <ele>149.1</ele>
        <time>2014-06-10T10:53:39Z</time>
      </trkpt>
      <trkpt lat="43.75664" lon="4.71911">
        <ele>149.6</ele>
        <time>2014-06-10T10:53:44Z</time>
      </trkpt>
      <trkpt lat="43.75666" lon="4.71918">
        <ele>150.1</ele>
        <time>2014-06-10T10:53:49Z</time>
      </trkpt>
      <trkpt lat="43.75668" lon="4.71926">
        <ele>149.8</ele>
        <time>2014-06-10T10:53:54Z</time>
      </trkpt>
      <trkpt lat="43.75669" lon="4.71932">
        <ele>149.5</ele>
        <time>2014-06-10T10:53:59Z</time>
      </trkpt>
      <trkpt lat="43.7567" lon="4.71938">
        <ele>149.2</ele>
        <time>2014-06-10T10:54:04Z</time>
      </trkpt>
      <trkpt lat="43.75671" lon="4.71944">
        <ele>148.9</ele>
        <time>2014-06-10T10:54:09Z</time>
      </trkpt>
      <trkpt lat="43.75673" lon="4.71951">
        <ele>148.6</ele>
        <time>2014-06-10T10:54:14Z</time>
      </trkpt>
      <trkpt lat="43.75674" lon="4.71957">
        <ele>148.7</ele>
        <time>2014-06-10T10:54:19Z</time>
      </trkpt>
      <trkpt lat="43.75676" lon="4.71964">
        <ele>148.7</ele>
        <time>2014-06-10T10:54:24Z</time>
      </trkpt>
      <trkpt lat="43.75677" lon="4.71971">
        <ele>149.2</ele>
        <time>2014-06-10T10:54:29Z</time>
      </trkpt>
      <trkpt lat="43.75678" lon="4.71978">
        <ele>149.3</ele>
        <time>2014-06-10T10:54:34Z</time>
      </trkpt>
      <trkpt lat="43.75679" lon="4.71985">
        <ele>149.3</ele>
        <time>2014-06-10T10:54:39Z</time>
      </trkpt>
      <trkpt lat="43.75679" lon="4.71993">
        <ele>149.5</ele>
        <time>2014-06-10T10:54:44Z</time>
      </trkpt>
      <trkpt lat="43.7568" lon="4.72">
        <ele>149.7</ele>
        <time>2014-06-10T10:54:49Z</time>
      </trkpt>
      <trkpt lat="43.7568" lon="4.72007">
        <ele>149.9</ele>
        <time>2014-06-10T10:54:54Z</time>
      </trkpt>
      <trkpt lat="43.7568" lon="4.72015">
        <ele>150.1</ele>
        <time>2014-06-10T10:54:59Z</time>
      </trkpt>
      <trkpt lat="43.75681" lon="4.72022">
        <ele>150.3</ele>
        <time>2014-06-10T10:55:04Z</time>
      </trkpt>
      <trkpt lat="43.75681" lon="4.7203">
        <ele>150.6</ele>
        <time>2014-06-10T10:55:09Z</time>
      </trkpt>
      <trkpt lat="43.7568" lon="4.72037">
        <ele>150.9</ele>
        <time>2014-06-10T10:55:14Z</time>
      </trkpt>
      <trkpt lat="43.7568" lon="4.72044">
        <ele>151.2</ele>
        <time>2014-06-10T10:55:19Z</time>
      </trkpt>
      <trkpt lat="43.7568" lon="4.72051">
        <ele>151.5</ele>
        <time>2014-06-10T10:55:24Z</time>
      </trkpt>
      <trkpt lat="43.75679" lon="4.72058">
        <ele>151.7</ele>
        <time>2014-06-10T10:55:29Z</time>
      </trkpt>
      <trkpt lat="43.75679" lon="4.72065">
        <ele>152</ele>
        <time>2014-06-10T10:55:34Z</time>
      </trkpt>
      <trkpt lat="43.75679" lon="4.72072">
        <ele>152.2</ele>
        <time>2014-06-10T10:55:39Z</time>
      </trkpt>
      <trkpt lat="43.75677" lon="4.72079">
        <ele>152.5</ele>
        <time>2014-06-10T10:55:45Z</time>
      </trkpt>
      <trkpt lat="43.75676" lon="4.72086">
        <ele>152.9</ele>
        <time>2014-06-10T10:55:50Z</time>
      </trkpt>
      <trkpt lat="43.75675" lon="4.72093">
        <ele>153.7</ele>
        <time>2014-06-10T10:55:55Z</time>
      </trkpt>
      <trkpt lat="43.75672" lon="4.72099">
        <ele>154.2</ele>
        <time>2014-06-10T10:56:00Z</time>
      </trkpt>
      <trkpt lat="43.7567" lon="4.72105">
        <ele>154.7</ele>
        <time>2014-06-10T10:56:05Z</time>
      </trkpt>
      <trkpt lat="43.75665" lon="4.72109">
        <ele>154.9</ele>
        <time>2014-06-10T10:56:10Z</time>
      </trkpt>
      <trkpt lat="43.75661" lon="4.72111">
        <ele>155.2</ele>
        <time>2014-06-10T10:56:15Z</time>
      </trkpt>
      <trkpt lat="43.75656" lon="4.72111">
        <ele>155.4</ele>
        <time>2014-06-10T10:56:20Z</time>
      </trkpt>
      <trkpt lat="43.75651" lon="4.7211">
        <ele>155.4</ele>
        <time>2014-06-10T10:56:25Z</time>
      </trkpt>
      <trkpt lat="43.75646" lon="4.72108">
        <ele>155.4</ele>
        <time>2014-06-10T10:56:30Z</time>
      </trkpt>
      <trkpt lat="43.75641" lon="4.72106">
        <ele>155.4</ele>
        <time>2014-06-10T10:56:35Z</time>
      </trkpt>
      <trkpt lat="43.75637" lon="4.72105">
        <ele>155.3</ele>
        <time>2014-06-10T10:56:39Z</time>
      </trkpt>
      <trkpt lat="43.75631" lon="4.72105">
        <ele>155.3</ele>
        <time>2014-06-10T10:56:44Z</time>
      </trkpt>
      <trkpt lat="43.75626" lon="4.72105">
        <ele>155.3</ele>
        <time>2014-06-10T10:56:49Z</time>
      </trkpt>
      <trkpt lat="43.75621" lon="4.72105">
        <ele>155.3</ele>
        <time>2014-06-10T10:56:54Z</time>
      </trkpt>
      <trkpt lat="43.75615" lon="4.72105">
        <ele>155.3</ele>
        <time>2014-06-10T10:56:59Z</time>
      </trkpt>
      <trkpt lat="43.75609" lon="4.72106">
        <ele>155.3</ele>
        <time>2014-06-10T10:57:04Z</time>
      </trkpt>
      <trkpt lat="43.75604" lon="4.72107">
        <ele>155.4</ele>
        <time>2014-06-10T10:57:09Z</time>
      </trkpt>
      <trkpt lat="43.75599" lon="4.7211">
        <ele>155.4</ele>
        <time>2014-06-10T10:57:14Z</time>
      </trkpt>
      <trkpt lat="43.75594" lon="4.72112">
        <ele>155.4</ele>
        <time>2014-06-10T10:57:19Z</time>
      </trkpt>
      <trkpt lat="43.75589" lon="4.72113">
        <ele>155.5</ele>
        <time>2014-06-10T10:57:24Z</time>
      </trkpt>
      <trkpt lat="43.75585" lon="4.72115">
        <ele>155.6</ele>
        <time>2014-06-10T10:57:29Z</time>
      </trkpt>
      <trkpt lat="43.7558" lon="4.72118">
        <ele>156.1</ele>
        <time>2014-06-10T10:57:34Z</time>
      </trkpt>
      <trkpt lat="43.75576" lon="4.7212">
        <ele>156.4</ele>
        <time>2014-06-10T10:57:39Z</time>
      </trkpt>
      <trkpt lat="43.7557" lon="4.72121">
        <ele>156.7</ele>
        <time>2014-06-10T10:57:44Z</time>
      </trkpt>
      <trkpt lat="43.75565" lon="4.72122">
        <ele>156.9</ele>
        <time>2014-06-10T10:57:49Z</time>
      </trkpt>
      <trkpt lat="43.7556" lon="4.72124">
        <ele>157.3</ele>
        <time>2014-06-10T10:57:54Z</time>
      </trkpt>
      <trkpt lat="43.75555" lon="4.72125">
        <ele>157.5</ele>
        <time>2014-06-10T10:57:59Z</time>
      </trkpt>
      <trkpt lat="43.7555" lon="4.72128">
        <ele>157.6</ele>
        <time>2014-06-10T10:58:04Z</time>
      </trkpt>
      <trkpt lat="43.75545" lon="4.72131">
        <ele>157.7</ele>
        <time>2014-06-10T10:58:09Z</time>
      </trkpt>
      <trkpt lat="43.7554" lon="4.72133">
        <ele>157.8</ele>
        <time>2014-06-10T10:58:14Z</time>
      </trkpt>
      <trkpt lat="43.75536" lon="4.72136">
        <ele>158</ele>
        <time>2014-06-10T10:58:19Z</time>
      </trkpt>
      <trkpt lat="43.75532" lon="4.7214">
        <ele>158.3</ele>
        <time>2014-06-10T10:58:24Z</time>
      </trkpt>
      <trkpt lat="43.75529" lon="4.72145">
        <ele>158.7</ele>
        <time>2014-06-10T10:58:29Z</time>
      </trkpt>
      <trkpt lat="43.75526" lon="4.72151">
        <ele>159.1</ele>
        <time>2014-06-10T10:58:34Z</time>
      </trkpt>
      <trkpt lat="43.75524" lon="4.72157">
        <ele>159.6</ele>
        <time>2014-06-10T10:58:39Z</time>
      </trkpt>
      <trkpt lat="43.75522" lon="4.72162">
        <ele>160</ele>
        <time>2014-06-10T10:58:44Z</time>
      </trkpt>
      <trkpt lat="43.75519" lon="4.72168">
        <ele>160.4</ele>
        <time>2014-06-10T10:58:49Z</time>
      </trkpt>
      <trkpt lat="43.75515" lon="4.72173">
        <ele>160.6</ele>
        <time>2014-06-10T10:58:54Z</time>
      </trkpt>
      <trkpt lat="43.75512" lon="4.72177">
        <ele>160.8</ele>
        <time>2014-06-10T10:58:59Z</time>
      </trkpt>
      <trkpt lat="43.75508" lon="4.72181">
        <ele>160.9</ele>
        <time>2014-06-10T10:59:04Z</time>
      </trkpt>
      <trkpt lat="43.75503" lon="4.72183">
        <ele>160.9</ele>
        <time>2014-06-10T10:59:10Z</time>
      </trkpt>
      <trkpt lat="43.75498" lon="4.72185">
        <ele>161</ele>
        <time>2014-06-10T10:59:15Z</time>
      </trkpt>
      <trkpt lat="43.75493" lon="4.72187">
        <ele>161</ele>
        <time>2014-06-10T10:59:21Z</time>
      </trkpt>
      <trkpt lat="43.75489" lon="4.72191">
        <ele>161.3</ele>
        <time>2014-06-10T10:59:26Z</time>
      </trkpt>
      <trkpt lat="43.75485" lon="4.72196">
        <ele>161.6</ele>
        <time>2014-06-10T10:59:31Z</time>
      </trkpt>
      <trkpt lat="43.75479" lon="4.72205">
        <ele>162</ele>
        <time>2014-06-10T10:59:39Z</time>
      </trkpt>
      <trkpt lat="43.75476" lon="4.72211">
        <ele>162.4</ele>
        <time>2014-06-10T10:59:44Z</time>
      </trkpt>
      <trkpt lat="43.75474" lon="4.72217">
        <ele>162.7</ele>
        <time>2014-06-10T10:59:49Z</time>
      </trkpt>
      <trkpt lat="43.75473" lon="4.72224">
        <ele>163.2</ele>
        <time>2014-06-10T10:59:54Z</time>
      </trkpt>
      <trkpt lat="43.75473" lon="4.72237">
        <ele>164.1</ele>
        <time>2014-06-10T11:00:05Z</time>
      </trkpt>
      <trkpt lat="43.75476" lon="4.72243">
        <ele>164.7</ele>
        <time>2014-06-10T11:00:12Z</time>
      </trkpt>
      <trkpt lat="43.7548" lon="4.72247">
        <ele>165.3</ele>
        <time>2014-06-10T11:00:19Z</time>
      </trkpt>
      <trkpt lat="43.75484" lon="4.7225">
        <ele>165.8</ele>
        <time>2014-06-10T11:00:26Z</time>
      </trkpt>
      <trkpt lat="43.75523" lon="4.72244">
        <ele>168.1</ele>
        <time>2014-06-10T11:05:30Z</time>
      </trkpt>
      <trkpt lat="43.75528" lon="4.72242">
        <ele>168.2</ele>
        <time>2014-06-10T11:05:35Z</time>
      </trkpt>
      <trkpt lat="43.75532" lon="4.72241">
        <ele>168.3</ele>
        <time>2014-06-10T11:05:40Z</time>
      </trkpt>
      <trkpt lat="43.75537" lon="4.72239">
        <ele>168.5</ele>
        <time>2014-06-10T11:05:46Z</time>
      </trkpt>
      <trkpt lat="43.75542" lon="4.72237">
        <ele>168.6</ele>
        <time>2014-06-10T11:05:51Z</time>
      </trkpt>
      <trkpt lat="43.75546" lon="4.72235">
        <ele>168.7</ele>
        <time>2014-06-10T11:05:56Z</time>
      </trkpt>
      <trkpt lat="43.75551" lon="4.72234">
        <ele>168.9</ele>
        <time>2014-06-10T11:06:01Z</time>
      </trkpt>
      <trkpt lat="43.75556" lon="4.72233">
        <ele>169.2</ele>
        <time>2014-06-10T11:06:06Z</time>
      </trkpt>
      <trkpt lat="43.75566" lon="4.72233">
        <ele>169.7</ele>
        <time>2014-06-10T11:06:17Z</time>
      </trkpt>
      <trkpt lat="43.75575" lon="4.72235">
        <ele>170.4</ele>
        <time>2014-06-10T11:06:27Z</time>
      </trkpt>
      <trkpt lat="43.7558" lon="4.72236">
        <ele>170.8</ele>
        <time>2014-06-10T11:06:32Z</time>
      </trkpt>
      <trkpt lat="43.75585" lon="4.7224">
        <ele>171.3</ele>
        <time>2014-06-10T11:06:39Z</time>
      </trkpt>
      <trkpt lat="43.7559" lon="4.72242">
        <ele>171.6</ele>
        <time>2014-06-10T11:06:45Z</time>
      </trkpt>
      <trkpt lat="43.75598" lon="4.72249">
        <ele>172.4</ele>
        <time>2014-06-10T11:06:55Z</time>
      </trkpt>
      <trkpt lat="43.75603" lon="4.72252">
        <ele>172.9</ele>
        <time>2014-06-10T11:07:01Z</time>
      </trkpt>
      <trkpt lat="43.75607" lon="4.72256">
        <ele>173.5</ele>
        <time>2014-06-10T11:07:06Z</time>
      </trkpt>
      <trkpt lat="43.75609" lon="4.72262">
        <ele>174.2</ele>
        <time>2014-06-10T11:07:12Z</time>
      </trkpt>
      <trkpt lat="43.75611" lon="4.7227">
        <ele>175.2</ele>
        <time>2014-06-10T11:07:19Z</time>
      </trkpt>
      <trkpt lat="43.7561" lon="4.72276">
        <ele>175.8</ele>
        <time>2014-06-10T11:07:24Z</time>
      </trkpt>
      <trkpt lat="43.75609" lon="4.72282">
        <ele>176.2</ele>
        <time>2014-06-10T11:07:29Z</time>
      </trkpt>
      <trkpt lat="43.75607" lon="4.72288">
        <ele>176.5</ele>
        <time>2014-06-10T11:07:34Z</time>
      </trkpt>
      <trkpt lat="43.75603" lon="4.72293">
        <ele>176.7</ele>
        <time>2014-06-10T11:07:39Z</time>
      </trkpt>
      <trkpt lat="43.75599" lon="4.72297">
        <ele>176.6</ele>
        <time>2014-06-10T11:07:44Z</time>
      </trkpt>
      <trkpt lat="43.75594" lon="4.72301">
        <ele>176.5</ele>
        <time>2014-06-10T11:07:49Z</time>
      </trkpt>
      <trkpt lat="43.7559" lon="4.72305">
        <ele>176.4</ele>
        <time>2014-06-10T11:07:54Z</time>
      </trkpt>
      <trkpt lat="43.75585" lon="4.72309">
        <ele>176.3</ele>
        <time>2014-06-10T11:07:59Z</time>
      </trkpt>
      <trkpt lat="43.75581" lon="4.72313">
        <ele>176.4</ele>
        <time>2014-06-10T11:08:04Z</time>
      </trkpt>
      <trkpt lat="43.75576" lon="4.72317">
        <ele>176.5</ele>
        <time>2014-06-10T11:08:09Z</time>
      </trkpt>
      <trkpt lat="43.75572" lon="4.72321">
        <ele>176.5</ele>
        <time>2014-06-10T11:08:14Z</time>
      </trkpt>
      <trkpt lat="43.75568" lon="4.72325">
        <ele>176.5</ele>
        <time>2014-06-10T11:08:19Z</time>
      </trkpt>
      <trkpt lat="43.75564" lon="4.72329">
        <ele>176.4</ele>
        <time>2014-06-10T11:08:24Z</time>
      </trkpt>
      <trkpt lat="43.75559" lon="4.72333">
        <ele>176.2</ele>
        <time>2014-06-10T11:08:29Z</time>
      </trkpt>
      <trkpt lat="43.75555" lon="4.72337">
        <ele>176.3</ele>
        <time>2014-06-10T11:08:34Z</time>
      </trkpt>
      <trkpt lat="43.75551" lon="4.72342">
        <ele>176.4</ele>
        <time>2014-06-10T11:08:39Z</time>
      </trkpt>
      <trkpt lat="43.75547" lon="4.72347">
        <ele>176.6</ele>
        <time>2014-06-10T11:08:44Z</time>
      </trkpt>
      <trkpt lat="43.75543" lon="4.72351">
        <ele>176.8</ele>
        <time>2014-06-10T11:08:49Z</time>
      </trkpt>
      <trkpt lat="43.75538" lon="4.72355">
        <ele>176.9</ele>
        <time>2014-06-10T11:08:54Z</time>
      </trkpt>
      <trkpt lat="43.75534" lon="4.72359">
        <ele>177</ele>
        <time>2014-06-10T11:08:59Z</time>
      </trkpt>
      <trkpt lat="43.75529" lon="4.72363">
        <ele>177.2</ele>
        <time>2014-06-10T11:09:04Z</time>
      </trkpt>
      <trkpt lat="43.75525" lon="4.72367">
        <ele>177.1</ele>
        <time>2014-06-10T11:09:09Z</time>
      </trkpt>
      <trkpt lat="43.75521" lon="4.72372">
        <ele>177.1</ele>
        <time>2014-06-10T11:09:14Z</time>
      </trkpt>
      <trkpt lat="43.75517" lon="4.72377">
        <ele>177</ele>
        <time>2014-06-10T11:09:19Z</time>
      </trkpt>
      <trkpt lat="43.75513" lon="4.72382">
        <ele>176.9</ele>
        <time>2014-06-10T11:09:24Z</time>
      </trkpt>
      <trkpt lat="43.7551" lon="4.72388">
        <ele>177</ele>
        <time>2014-06-10T11:09:29Z</time>
      </trkpt>
      <trkpt lat="43.75506" lon="4.72393">
        <ele>177</ele>
        <time>2014-06-10T11:09:34Z</time>
      </trkpt>
      <trkpt lat="43.75503" lon="4.72399">
        <ele>177.1</ele>
        <time>2014-06-10T11:09:39Z</time>
      </trkpt>
      <trkpt lat="43.755" lon="4.72405">
        <ele>177.2</ele>
        <time>2014-06-10T11:09:44Z</time>
      </trkpt>
      <trkpt lat="43.75497" lon="4.72411">
        <ele>177.2</ele>
        <time>2014-06-10T11:09:49Z</time>
      </trkpt>
      <trkpt lat="43.75494" lon="4.72417">
        <ele>177.4</ele>
        <time>2014-06-10T11:09:54Z</time>
      </trkpt>
      <trkpt lat="43.7549" lon="4.72423">
        <ele>177.4</ele>
        <time>2014-06-10T11:09:59Z</time>
      </trkpt>
      <trkpt lat="43.75487" lon="4.72428">
        <ele>177.4</ele>
        <time>2014-06-10T11:10:04Z</time>
      </trkpt>
      <trkpt lat="43.75483" lon="4.72434">
        <ele>177.4</ele>
        <time>2014-06-10T11:10:09Z</time>
      </trkpt>
      <trkpt lat="43.75479" lon="4.7244">
        <ele>177.4</ele>
        <time>2014-06-10T11:10:14Z</time>
      </trkpt>
      <trkpt lat="43.75475" lon="4.72446">
        <ele>177.4</ele>
        <time>2014-06-10T11:10:19Z</time>
      </trkpt>
      <trkpt lat="43.75472" lon="4.72451">
        <ele>177.4</ele>
        <time>2014-06-10T11:10:24Z</time>
      </trkpt>
      <trkpt lat="43.75467" lon="4.72456">
        <ele>177.3</ele>
        <time>2014-06-10T11:10:29Z</time>
      </trkpt>
      <trkpt lat="43.75464" lon="4.72461">
        <ele>177.3</ele>
        <time>2014-06-10T11:10:34Z</time>
      </trkpt>
      <trkpt lat="43.75461" lon="4.72467">
        <ele>177.3</ele>
        <time>2014-06-10T11:10:39Z</time>
      </trkpt>
      <trkpt lat="43.75457" lon="4.72472">
        <ele>177.3</ele>
        <time>2014-06-10T11:10:44Z</time>
      </trkpt>
      <trkpt lat="43.75454" lon="4.72477">
        <ele>177.3</ele>
        <time>2014-06-10T11:10:49Z</time>
      </trkpt>
      <trkpt lat="43.75451" lon="4.72482">
        <ele>177.4</ele>
        <time>2014-06-10T11:10:54Z</time>
      </trkpt>
      <trkpt lat="43.75449" lon="4.72488">
        <ele>177.6</ele>
        <time>2014-06-10T11:10:59Z</time>
      </trkpt>
      <trkpt lat="43.75444" lon="4.72499">
        <ele>177.9</ele>
        <time>2014-06-10T11:11:09Z</time>
      </trkpt>
      <trkpt lat="43.7544" lon="4.72504">
        <ele>178</ele>
        <time>2014-06-10T11:11:14Z</time>
      </trkpt>
      <trkpt lat="43.75437" lon="4.7251">
        <ele>178.2</ele>
        <time>2014-06-10T11:11:19Z</time>
      </trkpt>
      <trkpt lat="43.75435" lon="4.72515">
        <ele>178.4</ele>
        <time>2014-06-10T11:11:24Z</time>
      </trkpt>
      <trkpt lat="43.75433" lon="4.72521">
        <ele>178.7</ele>
        <time>2014-06-10T11:11:29Z</time>
      </trkpt>
      <trkpt lat="43.75431" lon="4.72527">
        <ele>179</ele>
        <time>2014-06-10T11:11:34Z</time>
      </trkpt>
      <trkpt lat="43.7543" lon="4.72533">
        <ele>179.3</ele>
        <time>2014-06-10T11:11:39Z</time>
      </trkpt>
      <trkpt lat="43.75429" lon="4.7254">
        <ele>179.8</ele>
        <time>2014-06-10T11:11:44Z</time>
      </trkpt>
      <trkpt lat="43.75428" lon="4.72553">
        <ele>180.6</ele>
        <time>2014-06-10T11:11:55Z</time>
      </trkpt>
      <trkpt lat="43.75427" lon="4.7256">
        <ele>180.9</ele>
        <time>2014-06-10T11:12:01Z</time>
      </trkpt>
      <trkpt lat="43.75428" lon="4.72567">
        <ele>181.3</ele>
        <time>2014-06-10T11:12:06Z</time>
      </trkpt>
      <trkpt lat="43.75429" lon="4.72573">
        <ele>181.8</ele>
        <time>2014-06-10T11:12:12Z</time>
      </trkpt>
      <trkpt lat="43.75431" lon="4.72581">
        <ele>182.4</ele>
        <time>2014-06-10T11:12:19Z</time>
      </trkpt>
      <trkpt lat="43.75434" lon="4.72587">
        <ele>182.8</ele>
        <time>2014-06-10T11:12:25Z</time>
      </trkpt>
      <trkpt lat="43.75436" lon="4.72594">
        <ele>183.1</ele>
        <time>2014-06-10T11:12:39Z</time>
      </trkpt>
      <trkpt lat="43.7544" lon="4.72599">
        <ele>183.5</ele>
        <time>2014-06-10T11:12:44Z</time>
      </trkpt>
      <trkpt lat="43.75443" lon="4.72604">
        <ele>183.8</ele>
        <time>2014-06-10T11:12:50Z</time>
      </trkpt>
      <trkpt lat="43.75447" lon="4.72609">
        <ele>184.2</ele>
        <time>2014-06-10T11:12:56Z</time>
      </trkpt>
      <trkpt lat="43.75451" lon="4.72612">
        <ele>184.6</ele>
        <time>2014-06-10T11:13:02Z</time>
      </trkpt>
      <trkpt lat="43.75456" lon="4.72616">
        <ele>184.7</ele>
        <time>2014-06-10T11:13:09Z</time>
      </trkpt>
      <trkpt lat="43.7546" lon="4.7262">
        <ele>184.9</ele>
        <time>2014-06-10T11:13:15Z</time>
      </trkpt>
      <trkpt lat="43.75465" lon="4.72622">
        <ele>185.2</ele>
        <time>2014-06-10T11:13:21Z</time>
      </trkpt>
      <trkpt lat="43.75469" lon="4.72626">
        <ele>185.6</ele>
        <time>2014-06-10T11:13:27Z</time>
      </trkpt>
      <trkpt lat="43.75474" lon="4.72627">
        <ele>186</ele>
        <time>2014-06-10T11:13:32Z</time>
      </trkpt>
      <trkpt lat="43.75479" lon="4.72629">
        <ele>186.5</ele>
        <time>2014-06-10T11:13:39Z</time>
      </trkpt>
      <trkpt lat="43.75484" lon="4.72631">
        <ele>186.9</ele>
        <time>2014-06-10T11:13:45Z</time>
      </trkpt>
      <trkpt lat="43.75489" lon="4.72633">
        <ele>187.2</ele>
        <time>2014-06-10T11:13:51Z</time>
      </trkpt>
      <trkpt lat="43.75494" lon="4.72635">
        <ele>187.6</ele>
        <time>2014-06-10T11:13:57Z</time>
      </trkpt>
      <trkpt lat="43.75499" lon="4.72636">
        <ele>188</ele>
        <time>2014-06-10T11:14:02Z</time>
      </trkpt>
      <trkpt lat="43.75503" lon="4.72638">
        <ele>188.3</ele>
        <time>2014-06-10T11:14:07Z</time>
      </trkpt>
      <trkpt lat="43.75508" lon="4.72639">
        <ele>188.5</ele>
        <time>2014-06-10T11:14:12Z</time>
      </trkpt>
      <trkpt lat="43.75513" lon="4.72641">
        <ele>188.7</ele>
        <time>2014-06-10T11:14:17Z</time>
      </trkpt>
      <trkpt lat="43.75517" lon="4.72644">
        <ele>188.8</ele>
        <time>2014-06-10T11:14:22Z</time>
      </trkpt>
      <trkpt lat="43.75522" lon="4.72646">
        <ele>189</ele>
        <time>2014-06-10T11:14:27Z</time>
      </trkpt>
      <trkpt lat="43.75527" lon="4.72649">
        <ele>189.2</ele>
        <time>2014-06-10T11:14:32Z</time>
      </trkpt>
      <trkpt lat="43.75531" lon="4.72652">
        <ele>189.4</ele>
        <time>2014-06-10T11:14:37Z</time>
      </trkpt>
      <trkpt lat="43.75535" lon="4.72655">
        <ele>189.7</ele>
        <time>2014-06-10T11:14:42Z</time>
      </trkpt>
      <trkpt lat="43.75539" lon="4.72659">
        <ele>190.1</ele>
        <time>2014-06-10T11:14:47Z</time>
      </trkpt>
      <trkpt lat="43.75544" lon="4.72663">
        <ele>190.6</ele>
        <time>2014-06-10T11:14:54Z</time>
      </trkpt>
      <trkpt lat="43.75552" lon="4.7267">
        <ele>191.1</ele>
        <time>2014-06-10T11:15:04Z</time>
      </trkpt>
      <trkpt lat="43.75555" lon="4.72674">
        <ele>191.2</ele>
        <time>2014-06-10T11:15:09Z</time>
      </trkpt>
      <trkpt lat="43.75589" lon="4.72709">
        <ele>191.5</ele>
        <time>2014-06-10T11:16:36Z</time>
      </trkpt>
      <trkpt lat="43.75593" lon="4.72712">
        <ele>191.6</ele>
        <time>2014-06-10T11:16:41Z</time>
      </trkpt>
      <trkpt lat="43.75597" lon="4.72716">
        <ele>191.8</ele>
        <time>2014-06-10T11:16:46Z</time>
      </trkpt>
      <trkpt lat="43.75631" lon="4.72748">
        <ele>192.3</ele>
        <time>2014-06-10T11:19:56Z</time>
      </trkpt>
      <trkpt lat="43.75635" lon="4.72752">
        <ele>192.3</ele>
        <time>2014-06-10T11:20:01Z</time>
      </trkpt>
      <trkpt lat="43.75638" lon="4.72757">
        <ele>192.2</ele>
        <time>2014-06-10T11:20:06Z</time>
      </trkpt>
      <trkpt lat="43.75643" lon="4.72761">
        <ele>192.2</ele>
        <time>2014-06-10T11:20:11Z</time>
      </trkpt>
      <trkpt lat="43.75647" lon="4.72764">
        <ele>192.2</ele>
        <time>2014-06-10T11:20:16Z</time>
      </trkpt>
      <trkpt lat="43.75651" lon="4.72768">
        <ele>192.3</ele>
        <time>2014-06-10T11:20:21Z</time>
      </trkpt>
      <trkpt lat="43.75656" lon="4.72772">
        <ele>192.4</ele>
        <time>2014-06-10T11:20:26Z</time>
      </trkpt>
      <trkpt lat="43.7566" lon="4.72776">
        <ele>192.5</ele>
        <time>2014-06-10T11:20:32Z</time>
      </trkpt>
      <trkpt lat="43.75664" lon="4.72779">
        <ele>192.7</ele>
        <time>2014-06-10T11:20:37Z</time>
      </trkpt>
      <trkpt lat="43.75669" lon="4.72783">
        <ele>193</ele>
        <time>2014-06-10T11:20:42Z</time>
      </trkpt>
      <trkpt lat="43.75673" lon="4.72787">
        <ele>193.1</ele>
        <time>2014-06-10T11:20:47Z</time>
      </trkpt>
      <trkpt lat="43.75677" lon="4.7279">
        <ele>193.3</ele>
        <time>2014-06-10T11:20:52Z</time>
      </trkpt>
      <trkpt lat="43.75682" lon="4.72794">
        <ele>193.5</ele>
        <time>2014-06-10T11:20:57Z</time>
      </trkpt>
      <trkpt lat="43.75686" lon="4.72797">
        <ele>193.7</ele>
        <time>2014-06-10T11:21:02Z</time>
      </trkpt>
      <trkpt lat="43.7569" lon="4.72799">
        <ele>193.9</ele>
        <time>2014-06-10T11:21:07Z</time>
      </trkpt>
      <trkpt lat="43.75696" lon="4.72801">
        <ele>194.2</ele>
        <time>2014-06-10T11:21:12Z</time>
      </trkpt>
      <trkpt lat="43.75701" lon="4.72803">
        <ele>194.3</ele>
        <time>2014-06-10T11:21:17Z</time>
      </trkpt>
      <trkpt lat="43.75705" lon="4.72804">
        <ele>194.4</ele>
        <time>2014-06-10T11:21:22Z</time>
      </trkpt>
      <trkpt lat="43.7571" lon="4.72806">
        <ele>194.6</ele>
        <time>2014-06-10T11:21:27Z</time>
      </trkpt>
      <trkpt lat="43.75715" lon="4.72807">
        <ele>194.7</ele>
        <time>2014-06-10T11:21:32Z</time>
      </trkpt>
      <trkpt lat="43.7572" lon="4.72808">
        <ele>194.9</ele>
        <time>2014-06-10T11:21:37Z</time>
      </trkpt>
      <trkpt lat="43.75725" lon="4.72808">
        <ele>195</ele>
        <time>2014-06-10T11:21:42Z</time>
      </trkpt>
      <trkpt lat="43.7573" lon="4.72808">
        <ele>195</ele>
        <time>2014-06-10T11:21:47Z</time>
      </trkpt>
      <trkpt lat="43.75735" lon="4.72808">
        <ele>195</ele>
        <time>2014-06-10T11:21:54Z</time>
      </trkpt>
      <trkpt lat="43.75744" lon="4.72813">
        <ele>195.2</ele>
        <time>2014-06-10T11:22:09Z</time>
      </trkpt>
      <trkpt lat="43.75747" lon="4.72818">
        <ele>195.4</ele>
        <time>2014-06-10T11:22:14Z</time>
      </trkpt>
      <trkpt lat="43.75707" lon="4.72841">
        <ele>195</ele>
        <time>2014-06-10T11:24:37Z</time>
      </trkpt>
      <trkpt lat="43.75701" lon="4.72842">
        <ele>194.9</ele>
        <time>2014-06-10T11:24:44Z</time>
      </trkpt>
      <trkpt lat="43.75696" lon="4.72845">
        <ele>194.9</ele>
        <time>2014-06-10T11:24:49Z</time>
      </trkpt>
      <trkpt lat="43.75691" lon="4.72847">
        <ele>194.9</ele>
        <time>2014-06-10T11:24:54Z</time>
      </trkpt>
      <trkpt lat="43.75686" lon="4.72849">
        <ele>194.8</ele>
        <time>2014-06-10T11:24:59Z</time>
      </trkpt>
      <trkpt lat="43.75681" lon="4.72851">
        <ele>194.8</ele>
        <time>2014-06-10T11:25:04Z</time>
      </trkpt>
      <trkpt lat="43.75676" lon="4.72853">
        <ele>194.8</ele>
        <time>2014-06-10T11:25:09Z</time>
      </trkpt>
      <trkpt lat="43.7567" lon="4.72855">
        <ele>194.7</ele>
        <time>2014-06-10T11:25:14Z</time>
      </trkpt>
      <trkpt lat="43.75665" lon="4.72857">
        <ele>194.5</ele>
        <time>2014-06-10T11:25:19Z</time>
      </trkpt>
      <trkpt lat="43.75658" lon="4.72859">
        <ele>194.2</ele>
        <time>2014-06-10T11:25:24Z</time>
      </trkpt>
      <trkpt lat="43.75653" lon="4.72861">
        <ele>194</ele>
        <time>2014-06-10T11:25:29Z</time>
      </trkpt>
      <trkpt lat="43.75648" lon="4.72863">
        <ele>193.9</ele>
        <time>2014-06-10T11:25:34Z</time>
      </trkpt>
      <trkpt lat="43.75643" lon="4.72865">
        <ele>193.9</ele>
        <time>2014-06-10T11:25:39Z</time>
      </trkpt>
      <trkpt lat="43.75634" lon="4.72869">
        <ele>193.9</ele>
        <time>2014-06-10T11:25:49Z</time>
      </trkpt>
      <trkpt lat="43.75629" lon="4.72872">
        <ele>194.1</ele>
        <time>2014-06-10T11:25:54Z</time>
      </trkpt>
      <trkpt lat="43.75624" lon="4.72874">
        <ele>194</ele>
        <time>2014-06-10T11:25:59Z</time>
      </trkpt>
      <trkpt lat="43.7562" lon="4.72875">
        <ele>194</ele>
        <time>2014-06-10T11:26:04Z</time>
      </trkpt>
      <trkpt lat="43.75615" lon="4.72876">
        <ele>193.8</ele>
        <time>2014-06-10T11:26:09Z</time>
      </trkpt>
      <trkpt lat="43.7561" lon="4.72878">
        <ele>193.7</ele>
        <time>2014-06-10T11:26:14Z</time>
      </trkpt>
      <trkpt lat="43.75605" lon="4.72879">
        <ele>193.3</ele>
        <time>2014-06-10T11:26:19Z</time>
      </trkpt>
      <trkpt lat="43.756" lon="4.72882">
        <ele>193</ele>
        <time>2014-06-10T11:26:24Z</time>
      </trkpt>
      <trkpt lat="43.75595" lon="4.72884">
        <ele>192.7</ele>
        <time>2014-06-10T11:26:29Z</time>
      </trkpt>
      <trkpt lat="43.75591" lon="4.72886">
        <ele>192.4</ele>
        <time>2014-06-10T11:26:34Z</time>
      </trkpt>
      <trkpt lat="43.75586" lon="4.72887">
        <ele>192.1</ele>
        <time>2014-06-10T11:26:39Z</time>
      </trkpt>
      <trkpt lat="43.75581" lon="4.7289">
        <ele>191.5</ele>
        <time>2014-06-10T11:26:44Z</time>
      </trkpt>
      <trkpt lat="43.75576" lon="4.72892">
        <ele>190.4</ele>
        <time>2014-06-10T11:26:49Z</time>
      </trkpt>
      <trkpt lat="43.75571" lon="4.72894">
        <ele>189.4</ele>
        <time>2014-06-10T11:26:54Z</time>
      </trkpt>
      <trkpt lat="43.75567" lon="4.72896">
        <ele>188.7</ele>
        <time>2014-06-10T11:26:59Z</time>
      </trkpt>
      <trkpt lat="43.75558" lon="4.72901">
        <ele>187.6</ele>
        <time>2014-06-10T11:27:09Z</time>
      </trkpt>
      <trkpt lat="43.75554" lon="4.72913">
        <ele>186.9</ele>
        <time>2014-06-10T11:27:20Z</time>
      </trkpt>
      <trkpt lat="43.7552" lon="4.72896">
        <ele>186.9</ele>
        <time>2014-06-10T11:28:29Z</time>
      </trkpt>
      <trkpt lat="43.75516" lon="4.72891">
        <ele>187.4</ele>
        <time>2014-06-10T11:28:36Z</time>
      </trkpt>
      <trkpt lat="43.75512" lon="4.72888">
        <ele>187.3</ele>
        <time>2014-06-10T11:28:41Z</time>
      </trkpt>
      <trkpt lat="43.75507" lon="4.72884">
        <ele>186.7</ele>
        <time>2014-06-10T11:28:51Z</time>
      </trkpt>
      <trkpt lat="43.755" lon="4.72878">
        <ele>185.6</ele>
        <time>2014-06-10T11:29:01Z</time>
      </trkpt>
      <trkpt lat="43.75495" lon="4.72875">
        <ele>185.3</ele>
        <time>2014-06-10T11:29:06Z</time>
      </trkpt>
      <trkpt lat="43.75491" lon="4.72872">
        <ele>184.9</ele>
        <time>2014-06-10T11:29:12Z</time>
      </trkpt>
      <trkpt lat="43.75486" lon="4.7287">
        <ele>184.7</ele>
        <time>2014-06-10T11:29:19Z</time>
      </trkpt>
      <trkpt lat="43.75481" lon="4.72867">
        <ele>184.2</ele>
        <time>2014-06-10T11:29:24Z</time>
      </trkpt>
      <trkpt lat="43.75472" lon="4.72862">
        <ele>183.2</ele>
        <time>2014-06-10T11:29:34Z</time>
      </trkpt>
      <trkpt lat="43.75467" lon="4.7286">
        <ele>182.8</ele>
        <time>2014-06-10T11:29:39Z</time>
      </trkpt>
      <trkpt lat="43.75461" lon="4.72859">
        <ele>182.8</ele>
        <time>2014-06-10T11:29:44Z</time>
      </trkpt>
      <trkpt lat="43.75456" lon="4.72857">
        <ele>182.3</ele>
        <time>2014-06-10T11:29:50Z</time>
      </trkpt>
      <trkpt lat="43.75451" lon="4.72856">
        <ele>182</ele>
        <time>2014-06-10T11:29:55Z</time>
      </trkpt>
      <trkpt lat="43.75446" lon="4.72854">
        <ele>181.6</ele>
        <time>2014-06-10T11:30:00Z</time>
      </trkpt>
      <trkpt lat="43.75441" lon="4.72854">
        <ele>181.5</ele>
        <time>2014-06-10T11:30:05Z</time>
      </trkpt>
      <trkpt lat="43.75436" lon="4.72853">
        <ele>181.3</ele>
        <time>2014-06-10T11:30:10Z</time>
      </trkpt>
      <trkpt lat="43.75431" lon="4.72853">
        <ele>181.3</ele>
        <time>2014-06-10T11:30:15Z</time>
      </trkpt>
      <trkpt lat="43.75426" lon="4.72852">
        <ele>180.9</ele>
        <time>2014-06-10T11:30:20Z</time>
      </trkpt>
      <trkpt lat="43.75422" lon="4.72851">
        <ele>180.2</ele>
        <time>2014-06-10T11:30:25Z</time>
      </trkpt>
      <trkpt lat="43.75417" lon="4.72848">
        <ele>179.3</ele>
        <time>2014-06-10T11:30:29Z</time>
      </trkpt>
      <trkpt lat="43.75413" lon="4.72845">
        <ele>178.3</ele>
        <time>2014-06-10T11:30:35Z</time>
      </trkpt>
      <trkpt lat="43.75404" lon="4.72841">
        <ele>176.8</ele>
        <time>2014-06-10T11:30:45Z</time>
      </trkpt>
      <trkpt lat="43.75399" lon="4.7284">
        <ele>176.5</ele>
        <time>2014-06-10T11:30:51Z</time>
      </trkpt>
      <trkpt lat="43.75394" lon="4.72839">
        <ele>176.1</ele>
        <time>2014-06-10T11:30:56Z</time>
      </trkpt>
      <trkpt lat="43.75388" lon="4.72839">
        <ele>175.8</ele>
        <time>2014-06-10T11:31:01Z</time>
      </trkpt>
      <trkpt lat="43.75384" lon="4.72838">
        <ele>175</ele>
        <time>2014-06-10T11:31:06Z</time>
      </trkpt>
      <trkpt lat="43.75379" lon="4.72837">
        <ele>174.1</ele>
        <time>2014-06-10T11:31:11Z</time>
      </trkpt>
      <trkpt lat="43.75374" lon="4.72835">
        <ele>173.1</ele>
        <time>2014-06-10T11:31:16Z</time>
      </trkpt>
      <trkpt lat="43.75369" lon="4.72834">
        <ele>172.3</ele>
        <time>2014-06-10T11:31:21Z</time>
      </trkpt>
      <trkpt lat="43.75365" lon="4.72833">
        <ele>171.3</ele>
        <time>2014-06-10T11:31:26Z</time>
      </trkpt>
      <trkpt lat="43.7536" lon="4.72832">
        <ele>170.4</ele>
        <time>2014-06-10T11:31:31Z</time>
      </trkpt>
      <trkpt lat="43.75351" lon="4.7283">
        <ele>169</ele>
        <time>2014-06-10T11:31:42Z</time>
      </trkpt>
      <trkpt lat="43.7534" lon="4.72829">
        <ele>167.9</ele>
        <time>2014-06-10T11:31:54Z</time>
      </trkpt>
      <trkpt lat="43.75331" lon="4.72829">
        <ele>167.2</ele>
        <time>2014-06-10T11:32:04Z</time>
      </trkpt>
      <trkpt lat="43.75322" lon="4.72825">
        <ele>165.1</ele>
        <time>2014-06-10T11:32:14Z</time>
      </trkpt>
      <trkpt lat="43.75317" lon="4.72824">
        <ele>164.4</ele>
        <time>2014-06-10T11:32:19Z</time>
      </trkpt>
      <trkpt lat="43.75312" lon="4.72823">
        <ele>163.8</ele>
        <time>2014-06-10T11:32:24Z</time>
      </trkpt>
      <trkpt lat="43.75308" lon="4.72822">
        <ele>163</ele>
        <time>2014-06-10T11:32:30Z</time>
      </trkpt>
      <trkpt lat="43.75303" lon="4.7282">
        <ele>162.2</ele>
        <time>2014-06-10T11:32:36Z</time>
      </trkpt>
      <trkpt lat="43.75299" lon="4.72819">
        <ele>161.6</ele>
        <time>2014-06-10T11:32:41Z</time>
      </trkpt>
      <trkpt lat="43.7529" lon="4.72818">
        <ele>160.8</ele>
        <time>2014-06-10T11:32:52Z</time>
      </trkpt>
      <trkpt lat="43.75285" lon="4.72815">
        <ele>159.5</ele>
        <time>2014-06-10T11:32:59Z</time>
      </trkpt>
      <trkpt lat="43.75276" lon="4.72811">
        <ele>157.3</ele>
        <time>2014-06-10T11:33:16Z</time>
      </trkpt>
      <trkpt lat="43.75267" lon="4.72809">
        <ele>156</ele>
        <time>2014-06-10T11:33:26Z</time>
      </trkpt>
      <trkpt lat="43.75262" lon="4.72808">
        <ele>155.1</ele>
        <time>2014-06-10T11:33:32Z</time>
      </trkpt>
      <trkpt lat="43.75257" lon="4.72806">
        <ele>154.5</ele>
        <time>2014-06-10T11:33:39Z</time>
      </trkpt>
      <trkpt lat="43.75253" lon="4.72802">
        <ele>152.9</ele>
        <time>2014-06-10T11:33:46Z</time>
      </trkpt>
      <trkpt lat="43.75247" lon="4.728">
        <ele>151.4</ele>
        <time>2014-06-10T11:33:54Z</time>
      </trkpt>
      <trkpt lat="43.75243" lon="4.72796">
        <ele>149.9</ele>
        <time>2014-06-10T11:34:02Z</time>
      </trkpt>
      <trkpt lat="43.75238" lon="4.72793">
        <ele>148.6</ele>
        <time>2014-06-10T11:34:09Z</time>
      </trkpt>
      <trkpt lat="43.75234" lon="4.7279">
        <ele>147.8</ele>
        <time>2014-06-10T11:34:15Z</time>
      </trkpt>
      <trkpt lat="43.75229" lon="4.72787">
        <ele>147.3</ele>
        <time>2014-06-10T11:34:22Z</time>
      </trkpt>
      <trkpt lat="43.75225" lon="4.72782">
        <ele>147</ele>
        <time>2014-06-10T11:34:29Z</time>
      </trkpt>
      <trkpt lat="43.752" lon="4.72738">
        <ele>138.7</ele>
        <time>2014-06-10T11:36:06Z</time>
      </trkpt>
      <trkpt lat="43.75197" lon="4.72733">
        <ele>138.1</ele>
        <time>2014-06-10T11:36:12Z</time>
      </trkpt>
      <trkpt lat="43.75196" lon="4.72727">
        <ele>136.8</ele>
        <time>2014-06-10T11:36:19Z</time>
      </trkpt>
      <trkpt lat="43.75193" lon="4.72721">
        <ele>135.8</ele>
        <time>2014-06-10T11:36:25Z</time>
      </trkpt>
      <trkpt lat="43.75191" lon="4.72715">
        <ele>134.9</ele>
        <time>2014-06-10T11:36:31Z</time>
      </trkpt>
      <trkpt lat="43.75188" lon="4.72708">
        <ele>133.6</ele>
        <time>2014-06-10T11:36:39Z</time>
      </trkpt>
      <trkpt lat="43.75184" lon="4.72703">
        <ele>133.4</ele>
        <time>2014-06-10T11:36:45Z</time>
      </trkpt>
      <trkpt lat="43.75181" lon="4.72698">
        <ele>133</ele>
        <time>2014-06-10T11:36:52Z</time>
      </trkpt>
      <trkpt lat="43.75179" lon="4.72691">
        <ele>132.1</ele>
        <time>2014-06-10T11:36:59Z</time>
      </trkpt>
      <trkpt lat="43.75176" lon="4.72686">
        <ele>131.2</ele>
        <time>2014-06-10T11:37:04Z</time>
      </trkpt>
      <trkpt lat="43.75171" lon="4.72676">
        <ele>129.7</ele>
        <time>2014-06-10T11:37:15Z</time>
      </trkpt>
      <trkpt lat="43.75167" lon="4.7267">
        <ele>129.1</ele>
        <time>2014-06-10T11:37:21Z</time>
      </trkpt>
      <trkpt lat="43.75164" lon="4.72665">
        <ele>128</ele>
        <time>2014-06-10T11:37:26Z</time>
      </trkpt>
      <trkpt lat="43.7516" lon="4.72661">
        <ele>127.3</ele>
        <time>2014-06-10T11:37:31Z</time>
      </trkpt>
      <trkpt lat="43.75155" lon="4.72657">
        <ele>127.1</ele>
        <time>2014-06-10T11:37:36Z</time>
      </trkpt>
      <trkpt lat="43.7515" lon="4.72654">
        <ele>126.7</ele>
        <time>2014-06-10T11:37:41Z</time>
      </trkpt>
      <trkpt lat="43.75146" lon="4.7265">
        <ele>126.3</ele>
        <time>2014-06-10T11:37:46Z</time>
      </trkpt>
      <trkpt lat="43.75137" lon="4.72646">
        <ele>126</ele>
        <time>2014-06-10T11:37:56Z</time>
      </trkpt>
      <trkpt lat="43.75128" lon="4.72644">
        <ele>124.8</ele>
        <time>2014-06-10T11:38:04Z</time>
      </trkpt>
      <trkpt lat="43.75123" lon="4.72643">
        <ele>124.2</ele>
        <time>2014-06-10T11:38:09Z</time>
      </trkpt>
      <trkpt lat="43.75119" lon="4.72642">
        <ele>123.7</ele>
        <time>2014-06-10T11:38:19Z</time>
      </trkpt>
      <trkpt lat="43.75113" lon="4.72641">
        <ele>123.4</ele>
        <time>2014-06-10T11:38:24Z</time>
      </trkpt>
      <trkpt lat="43.75108" lon="4.72644">
        <ele>123.4</ele>
        <time>2014-06-10T11:38:41Z</time>
      </trkpt>
      <trkpt lat="43.751" lon="4.72694">
        <ele>116.8</ele>
        <time>2014-06-10T11:40:55Z</time>
      </trkpt>
      <trkpt lat="43.75102" lon="4.727">
        <ele>115.6</ele>
        <time>2014-06-10T11:41:01Z</time>
      </trkpt>
      <trkpt lat="43.75104" lon="4.72706">
        <ele>114.9</ele>
        <time>2014-06-10T11:41:06Z</time>
      </trkpt>
      <trkpt lat="43.75107" lon="4.72712">
        <ele>114.4</ele>
        <time>2014-06-10T11:41:11Z</time>
      </trkpt>
      <trkpt lat="43.7511" lon="4.72717">
        <ele>114.2</ele>
        <time>2014-06-10T11:41:17Z</time>
      </trkpt>
      <trkpt lat="43.75113" lon="4.72722">
        <ele>114.5</ele>
        <time>2014-06-10T11:41:22Z</time>
      </trkpt>
      <trkpt lat="43.75116" lon="4.72729">
        <ele>114.6</ele>
        <time>2014-06-10T11:41:29Z</time>
      </trkpt>
      <trkpt lat="43.75119" lon="4.72734">
        <ele>114.8</ele>
        <time>2014-06-10T11:41:36Z</time>
      </trkpt>
      <trkpt lat="43.75124" lon="4.72745">
        <ele>114.1</ele>
        <time>2014-06-10T11:41:54Z</time>
      </trkpt>
      <trkpt lat="43.75127" lon="4.7275">
        <ele>113.6</ele>
        <time>2014-06-10T11:42:00Z</time>
      </trkpt>
      <trkpt lat="43.7513" lon="4.72756">
        <ele>112.4</ele>
        <time>2014-06-10T11:42:07Z</time>
      </trkpt>
      <trkpt lat="43.75132" lon="4.72762">
        <ele>110.7</ele>
        <time>2014-06-10T11:42:12Z</time>
      </trkpt>
      <trkpt lat="43.75134" lon="4.72768">
        <ele>108.2</ele>
        <time>2014-06-10T11:42:17Z</time>
      </trkpt>
      <trkpt lat="43.75137" lon="4.72774">
        <ele>106.7</ele>
        <time>2014-06-10T11:42:22Z</time>
      </trkpt>
      <trkpt lat="43.75141" lon="4.72779">
        <ele>106.1</ele>
        <time>2014-06-10T11:42:26Z</time>
      </trkpt>
      <trkpt lat="43.75142" lon="4.72786">
        <ele>104.8</ele>
        <time>2014-06-10T11:42:31Z</time>
      </trkpt>
      <trkpt lat="43.75144" lon="4.72793">
        <ele>104</ele>
        <time>2014-06-10T11:42:44Z</time>
      </trkpt>
      <trkpt lat="43.75147" lon="4.72799">
        <ele>103.9</ele>
        <time>2014-06-10T11:42:50Z</time>
      </trkpt>
      <trkpt lat="43.75154" lon="4.72811">
        <ele>102.8</ele>
        <time>2014-06-10T11:42:59Z</time>
      </trkpt>
      <trkpt lat="43.75157" lon="4.72816">
        <ele>102.3</ele>
        <time>2014-06-10T11:43:04Z</time>
      </trkpt>
      <trkpt lat="43.75161" lon="4.72823">
        <ele>102</ele>
        <time>2014-06-10T11:43:09Z</time>
      </trkpt>
      <trkpt lat="43.75166" lon="4.72829">
        <ele>102.3</ele>
        <time>2014-06-10T11:43:14Z</time>
      </trkpt>
      <trkpt lat="43.75171" lon="4.72833">
        <ele>103.4</ele>
        <time>2014-06-10T11:43:19Z</time>
      </trkpt>
      <trkpt lat="43.75176" lon="4.72836">
        <ele>105.3</ele>
        <time>2014-06-10T11:43:26Z</time>
      </trkpt>
      <trkpt lat="43.75179" lon="4.72839">
        <ele>106.2</ele>
        <time>2014-06-10T11:43:37Z</time>
      </trkpt>
      <trkpt lat="43.75184" lon="4.72843">
        <ele>107.4</ele>
        <time>2014-06-10T11:43:44Z</time>
      </trkpt>
      <trkpt lat="43.75189" lon="4.72846">
        <ele>108.6</ele>
        <time>2014-06-10T11:44:05Z</time>
      </trkpt>
      <trkpt lat="43.75189" lon="4.72852">
        <ele>105.8</ele>
        <time>2014-06-10T11:44:10Z</time>
      </trkpt>
      <trkpt lat="43.75192" lon="4.72858">
        <ele>104.3</ele>
        <time>2014-06-10T11:44:16Z</time>
      </trkpt>
      <trkpt lat="43.75194" lon="4.72865">
        <ele>103</ele>
        <time>2014-06-10T11:44:22Z</time>
      </trkpt>
      <trkpt lat="43.75198" lon="4.7287">
        <ele>103.2</ele>
        <time>2014-06-10T11:44:27Z</time>
      </trkpt>
      <trkpt lat="43.75202" lon="4.72874">
        <ele>103.8</ele>
        <time>2014-06-10T11:44:32Z</time>
      </trkpt>
      <trkpt lat="43.75206" lon="4.72879">
        <ele>104</ele>
        <time>2014-06-10T11:44:37Z</time>
      </trkpt>
      <trkpt lat="43.75212" lon="4.72888">
        <ele>104</ele>
        <time>2014-06-10T11:44:47Z</time>
      </trkpt>
      <trkpt lat="43.75215" lon="4.72893">
        <ele>103.9</ele>
        <time>2014-06-10T11:44:52Z</time>
      </trkpt>
      <trkpt lat="43.75219" lon="4.72898">
        <ele>104</ele>
        <time>2014-06-10T11:44:57Z</time>
      </trkpt>
      <trkpt lat="43.75222" lon="4.72903">
        <ele>103.9</ele>
        <time>2014-06-10T11:45:02Z</time>
      </trkpt>
      <trkpt lat="43.75228" lon="4.72912">
        <ele>103.6</ele>
        <time>2014-06-10T11:45:12Z</time>
      </trkpt>
      <trkpt lat="43.75236" lon="4.72922">
        <ele>104.1</ele>
        <time>2014-06-10T11:45:24Z</time>
      </trkpt>
      <trkpt lat="43.75201" lon="4.72899">
        <ele>97.4</ele>
        <time>2014-06-10T11:49:45Z</time>
      </trkpt>
      <trkpt lat="43.75197" lon="4.72894">
        <ele>96.8</ele>
        <time>2014-06-10T11:49:56Z</time>
      </trkpt>
      <trkpt lat="43.75193" lon="4.72891">
        <ele>96.1</ele>
        <time>2014-06-10T11:50:01Z</time>
      </trkpt>
      <trkpt lat="43.75188" lon="4.72887">
        <ele>95.6</ele>
        <time>2014-06-10T11:50:06Z</time>
      </trkpt>
      <trkpt lat="43.75184" lon="4.72884">
        <ele>95.1</ele>
        <time>2014-06-10T11:50:11Z</time>
      </trkpt>
      <trkpt lat="43.7518" lon="4.7288">
        <ele>94.5</ele>
        <time>2014-06-10T11:50:17Z</time>
      </trkpt>
      <trkpt lat="43.75178" lon="4.7288">
        <ele>94</ele>
        <time>2014-06-10T11:58:20Z</time>
      </trkpt>
      <trkpt lat="43.75145" lon="4.7285">
        <ele>89.5</ele>
        <time>2014-06-10T12:03:13Z</time>
      </trkpt>
      <trkpt lat="43.75137" lon="4.72841">
        <ele>88.4</ele>
        <time>2014-06-10T12:03:22Z</time>
      </trkpt>
      <trkpt lat="43.75133" lon="4.72837">
        <ele>87.9</ele>
        <time>2014-06-10T12:03:27Z</time>
      </trkpt>
      <trkpt lat="43.75129" lon="4.72833">
        <ele>87.2</ele>
        <time>2014-06-10T12:03:32Z</time>
      </trkpt>
      <trkpt lat="43.75125" lon="4.72829">
        <ele>87</ele>
        <time>2014-06-10T12:03:37Z</time>
      </trkpt>
      <trkpt lat="43.75121" lon="4.72825">
        <ele>86.6</ele>
        <time>2014-06-10T12:03:42Z</time>
      </trkpt>
      <trkpt lat="43.75117" lon="4.7282">
        <ele>85.8</ele>
        <time>2014-06-10T12:03:47Z</time>
      </trkpt>
      <trkpt lat="43.75112" lon="4.72817">
        <ele>84.9</ele>
        <time>2014-06-10T12:03:52Z</time>
      </trkpt>
      <trkpt lat="43.75108" lon="4.72812">
        <ele>84.4</ele>
        <time>2014-06-10T12:03:57Z</time>
      </trkpt>
      <trkpt lat="43.75104" lon="4.72808">
        <ele>83.9</ele>
        <time>2014-06-10T12:04:02Z</time>
      </trkpt>
      <trkpt lat="43.751" lon="4.72804">
        <ele>83.5</ele>
        <time>2014-06-10T12:04:07Z</time>
      </trkpt>
      <trkpt lat="43.75095" lon="4.728">
        <ele>83.2</ele>
        <time>2014-06-10T12:04:12Z</time>
      </trkpt>
      <trkpt lat="43.75091" lon="4.72796">
        <ele>82.8</ele>
        <time>2014-06-10T12:04:17Z</time>
      </trkpt>
      <trkpt lat="43.75086" lon="4.72792">
        <ele>81.9</ele>
        <time>2014-06-10T12:04:23Z</time>
      </trkpt>
      <trkpt lat="43.75082" lon="4.72788">
        <ele>81.4</ele>
        <time>2014-06-10T12:04:28Z</time>
      </trkpt>
      <trkpt lat="43.75078" lon="4.72784">
        <ele>81.1</ele>
        <time>2014-06-10T12:04:33Z</time>
      </trkpt>
      <trkpt lat="43.75074" lon="4.7278">
        <ele>80.8</ele>
        <time>2014-06-10T12:04:38Z</time>
      </trkpt>
      <trkpt lat="43.7507" lon="4.72775">
        <ele>80.7</ele>
        <time>2014-06-10T12:04:43Z</time>
      </trkpt>
      <trkpt lat="43.75066" lon="4.72771">
        <ele>80.7</ele>
        <time>2014-06-10T12:04:48Z</time>
      </trkpt>
      <trkpt lat="43.75063" lon="4.72767">
        <ele>80.4</ele>
        <time>2014-06-10T12:04:53Z</time>
      </trkpt>
      <trkpt lat="43.75059" lon="4.72762">
        <ele>79.8</ele>
        <time>2014-06-10T12:04:58Z</time>
      </trkpt>
      <trkpt lat="43.75055" lon="4.72758">
        <ele>79.1</ele>
        <time>2014-06-10T12:05:03Z</time>
      </trkpt>
      <trkpt lat="43.75051" lon="4.72754">
        <ele>78.9</ele>
        <time>2014-06-10T12:05:08Z</time>
      </trkpt>
      <trkpt lat="43.75047" lon="4.72749">
        <ele>78.6</ele>
        <time>2014-06-10T12:05:13Z</time>
      </trkpt>
      <trkpt lat="43.75043" lon="4.72745">
        <ele>78.7</ele>
        <time>2014-06-10T12:05:18Z</time>
      </trkpt>
      <trkpt lat="43.75038" lon="4.72741">
        <ele>78.1</ele>
        <time>2014-06-10T12:05:23Z</time>
      </trkpt>
      <trkpt lat="43.75033" lon="4.72738">
        <ele>77.1</ele>
        <time>2014-06-10T12:05:28Z</time>
      </trkpt>
      <trkpt lat="43.75028" lon="4.72737">
        <ele>75.5</ele>
        <time>2014-06-10T12:05:33Z</time>
      </trkpt>
      <trkpt lat="43.75023" lon="4.72738">
        <ele>75.5</ele>
        <time>2014-06-10T12:05:40Z</time>
      </trkpt>
      <trkpt lat="43.75037" lon="4.72786">
        <ele>79.8</ele>
        <time>2014-06-10T12:07:47Z</time>
      </trkpt>
      <trkpt lat="43.7504" lon="4.72792">
        <ele>80.5</ele>
        <time>2014-06-10T12:07:53Z</time>
      </trkpt>
      <trkpt lat="43.75044" lon="4.72797">
        <ele>80.8</ele>
        <time>2014-06-10T12:08:00Z</time>
      </trkpt>
      <trkpt lat="43.75047" lon="4.72801">
        <ele>80.4</ele>
        <time>2014-06-10T12:08:07Z</time>
      </trkpt>
      <trkpt lat="43.75051" lon="4.72806">
        <ele>79.6</ele>
        <time>2014-06-10T12:08:13Z</time>
      </trkpt>
      <trkpt lat="43.75055" lon="4.7281">
        <ele>79.5</ele>
        <time>2014-06-10T12:08:19Z</time>
      </trkpt>
      <trkpt lat="43.75059" lon="4.72815">
        <ele>80.5</ele>
        <time>2014-06-10T12:08:24Z</time>
      </trkpt>
      <trkpt lat="43.75063" lon="4.72819">
        <ele>81.1</ele>
        <time>2014-06-10T12:08:29Z</time>
      </trkpt>
      <trkpt lat="43.75067" lon="4.72823">
        <ele>81.5</ele>
        <time>2014-06-10T12:08:35Z</time>
      </trkpt>
      <trkpt lat="43.7507" lon="4.72828">
        <ele>81.5</ele>
        <time>2014-06-10T12:08:40Z</time>
      </trkpt>
      <trkpt lat="43.75078" lon="4.72838">
        <ele>81.3</ele>
        <time>2014-06-10T12:08:52Z</time>
      </trkpt>
      <trkpt lat="43.75085" lon="4.72846">
        <ele>81.7</ele>
        <time>2014-06-10T12:09:02Z</time>
      </trkpt>
      <trkpt lat="43.75091" lon="4.72855">
        <ele>82.8</ele>
        <time>2014-06-10T12:09:12Z</time>
      </trkpt>
      <trkpt lat="43.75095" lon="4.72861">
        <ele>82.9</ele>
        <time>2014-06-10T12:09:24Z</time>
      </trkpt>
      <trkpt lat="43.75098" lon="4.72868">
        <ele>83.5</ele>
        <time>2014-06-10T12:09:29Z</time>
      </trkpt>
      <trkpt lat="43.75101" lon="4.72874">
        <ele>83.4</ele>
        <time>2014-06-10T12:09:37Z</time>
      </trkpt>
      <trkpt lat="43.75104" lon="4.7288">
        <ele>83.1</ele>
        <time>2014-06-10T12:09:42Z</time>
      </trkpt>
      <trkpt lat="43.75107" lon="4.72888">
        <ele>82.7</ele>
        <time>2014-06-10T12:09:52Z</time>
      </trkpt>
      <trkpt lat="43.75109" lon="4.72894">
        <ele>82.9</ele>
        <time>2014-06-10T12:09:57Z</time>
      </trkpt>
      <trkpt lat="43.75111" lon="4.729">
        <ele>82.8</ele>
        <time>2014-06-10T12:10:02Z</time>
      </trkpt>
      <trkpt lat="43.75113" lon="4.72906">
        <ele>83.4</ele>
        <time>2014-06-10T12:10:07Z</time>
      </trkpt>
      <trkpt lat="43.75116" lon="4.72912">
        <ele>84</ele>
        <time>2014-06-10T12:10:12Z</time>
      </trkpt>
      <trkpt lat="43.75119" lon="4.72918">
        <ele>84.4</ele>
        <time>2014-06-10T12:10:24Z</time>
      </trkpt>
      <trkpt lat="43.75122" lon="4.72923">
        <ele>85.1</ele>
        <time>2014-06-10T12:10:29Z</time>
      </trkpt>
      <trkpt lat="43.75128" lon="4.72935">
        <ele>85.9</ele>
        <time>2014-06-10T12:10:38Z</time>
      </trkpt>
      <trkpt lat="43.75132" lon="4.72948">
        <ele>86.2</ele>
        <time>2014-06-10T12:10:47Z</time>
      </trkpt>
      <trkpt lat="43.75135" lon="4.72954">
        <ele>85.8</ele>
        <time>2014-06-10T12:10:52Z</time>
      </trkpt>
      <trkpt lat="43.75137" lon="4.7296">
        <ele>85.4</ele>
        <time>2014-06-10T12:10:57Z</time>
      </trkpt>
      <trkpt lat="43.7514" lon="4.72966">
        <ele>85.3</ele>
        <time>2014-06-10T12:11:02Z</time>
      </trkpt>
      <trkpt lat="43.75143" lon="4.72973">
        <ele>86</ele>
        <time>2014-06-10T12:11:07Z</time>
      </trkpt>
      <trkpt lat="43.75145" lon="4.72979">
        <ele>86.7</ele>
        <time>2014-06-10T12:11:12Z</time>
      </trkpt>
      <trkpt lat="43.75147" lon="4.72985">
        <ele>87.3</ele>
        <time>2014-06-10T12:11:17Z</time>
      </trkpt>
      <trkpt lat="43.75151" lon="4.7299">
        <ele>87.5</ele>
        <time>2014-06-10T12:11:22Z</time>
      </trkpt>
      <trkpt lat="43.75154" lon="4.72996">
        <ele>87.5</ele>
        <time>2014-06-10T12:11:27Z</time>
      </trkpt>
      <trkpt lat="43.75156" lon="4.73002">
        <ele>87.5</ele>
        <time>2014-06-10T12:11:32Z</time>
      </trkpt>
      <trkpt lat="43.75159" lon="4.73008">
        <ele>87.5</ele>
        <time>2014-06-10T12:11:37Z</time>
      </trkpt>
      <trkpt lat="43.75163" lon="4.73013">
        <ele>87</ele>
        <time>2014-06-10T12:11:43Z</time>
      </trkpt>
      <trkpt lat="43.75166" lon="4.73019">
        <ele>86.6</ele>
        <time>2014-06-10T12:11:49Z</time>
      </trkpt>
      <trkpt lat="43.75172" lon="4.73029">
        <ele>87.4</ele>
        <time>2014-06-10T12:12:02Z</time>
      </trkpt>
      <trkpt lat="43.75175" lon="4.73034">
        <ele>88</ele>
        <time>2014-06-10T12:12:08Z</time>
      </trkpt>
      <trkpt lat="43.75178" lon="4.7304">
        <ele>88.5</ele>
        <time>2014-06-10T12:12:14Z</time>
      </trkpt>
      <trkpt lat="43.7518" lon="4.73046">
        <ele>88.8</ele>
        <time>2014-06-10T12:12:19Z</time>
      </trkpt>
      <trkpt lat="43.75182" lon="4.73052">
        <ele>89.1</ele>
        <time>2014-06-10T12:12:24Z</time>
      </trkpt>
      <trkpt lat="43.75187" lon="4.73063">
        <ele>89.9</ele>
        <time>2014-06-10T12:12:35Z</time>
      </trkpt>
      <trkpt lat="43.75189" lon="4.73069">
        <ele>90.3</ele>
        <time>2014-06-10T12:12:40Z</time>
      </trkpt>
      <trkpt lat="43.75192" lon="4.73075">
        <ele>90.5</ele>
        <time>2014-06-10T12:12:47Z</time>
      </trkpt>
      <trkpt lat="43.75196" lon="4.73079">
        <ele>90.5</ele>
        <time>2014-06-10T12:12:53Z</time>
      </trkpt>
      <trkpt lat="43.75199" lon="4.73084">
        <ele>90.7</ele>
        <time>2014-06-10T12:12:58Z</time>
      </trkpt>
      <trkpt lat="43.75202" lon="4.73089">
        <ele>91</ele>
        <time>2014-06-10T12:13:03Z</time>
      </trkpt>
      <trkpt lat="43.75205" lon="4.73094">
        <ele>91.1</ele>
        <time>2014-06-10T12:13:08Z</time>
      </trkpt>
      <trkpt lat="43.75208" lon="4.731">
        <ele>91.2</ele>
        <time>2014-06-10T12:13:14Z</time>
      </trkpt>
      <trkpt lat="43.75212" lon="4.73105">
        <ele>91.2</ele>
        <time>2014-06-10T12:13:20Z</time>
      </trkpt>
      <trkpt lat="43.75214" lon="4.73111">
        <ele>91.1</ele>
        <time>2014-06-10T12:13:25Z</time>
      </trkpt>
      <trkpt lat="43.75221" lon="4.7312">
        <ele>90.9</ele>
        <time>2014-06-10T12:13:35Z</time>
      </trkpt>
      <trkpt lat="43.75224" lon="4.73128">
        <ele>91.2</ele>
        <time>2014-06-10T12:13:42Z</time>
      </trkpt>
      <trkpt lat="43.75226" lon="4.73134">
        <ele>91.5</ele>
        <time>2014-06-10T12:13:47Z</time>
      </trkpt>
      <trkpt lat="43.75227" lon="4.7314">
        <ele>92</ele>
        <time>2014-06-10T12:13:52Z</time>
      </trkpt>
      <trkpt lat="43.7523" lon="4.73152">
        <ele>93.2</ele>
        <time>2014-06-10T12:14:03Z</time>
      </trkpt>
      <trkpt lat="43.75232" lon="4.73158">
        <ele>93.7</ele>
        <time>2014-06-10T12:14:08Z</time>
      </trkpt>
      <trkpt lat="43.75236" lon="4.73164">
        <ele>93.8</ele>
        <time>2014-06-10T12:14:14Z</time>
      </trkpt>
      <trkpt lat="43.75239" lon="4.73168">
        <ele>93.7</ele>
        <time>2014-06-10T12:14:20Z</time>
      </trkpt>
      <trkpt lat="43.75244" lon="4.73173">
        <ele>93.7</ele>
        <time>2014-06-10T12:14:27Z</time>
      </trkpt>
      <trkpt lat="43.75248" lon="4.73177">
        <ele>93.6</ele>
        <time>2014-06-10T12:14:32Z</time>
      </trkpt>
      <trkpt lat="43.75276" lon="4.73218">
        <ele>94.9</ele>
        <time>2014-06-10T12:15:20Z</time>
      </trkpt>
      <trkpt lat="43.75279" lon="4.73223">
        <ele>95</ele>
        <time>2014-06-10T12:15:25Z</time>
      </trkpt>
      <trkpt lat="43.75282" lon="4.73229">
        <ele>95.3</ele>
        <time>2014-06-10T12:15:30Z</time>
      </trkpt>
      <trkpt lat="43.75287" lon="4.73239">
        <ele>95.7</ele>
        <time>2014-06-10T12:15:39Z</time>
      </trkpt>
      <trkpt lat="43.7529" lon="4.73245">
        <ele>95.9</ele>
        <time>2014-06-10T12:15:45Z</time>
      </trkpt>
      <trkpt lat="43.75293" lon="4.73252">
        <ele>96.1</ele>
        <time>2014-06-10T12:15:52Z</time>
      </trkpt>
      <trkpt lat="43.75299" lon="4.73261">
        <ele>96.4</ele>
        <time>2014-06-10T12:16:05Z</time>
      </trkpt>
      <trkpt lat="43.75302" lon="4.73266">
        <ele>96.5</ele>
        <time>2014-06-10T12:16:10Z</time>
      </trkpt>
      <trkpt lat="43.75304" lon="4.73272">
        <ele>96.8</ele>
        <time>2014-06-10T12:16:15Z</time>
      </trkpt>
      <trkpt lat="43.75307" lon="4.73277">
        <ele>96.9</ele>
        <time>2014-06-10T12:16:19Z</time>
      </trkpt>
      <trkpt lat="43.7531" lon="4.73283">
        <ele>97.4</ele>
        <time>2014-06-10T12:16:24Z</time>
      </trkpt>
      <trkpt lat="43.75314" lon="4.73288">
        <ele>97.6</ele>
        <time>2014-06-10T12:16:29Z</time>
      </trkpt>
      <trkpt lat="43.75321" lon="4.73296">
        <ele>97.7</ele>
        <time>2014-06-10T12:16:37Z</time>
      </trkpt>
      <trkpt lat="43.75324" lon="4.73309">
        <ele>98.4</ele>
        <time>2014-06-10T12:16:58Z</time>
      </trkpt>
      <trkpt lat="43.75326" lon="4.73315">
        <ele>98.6</ele>
        <time>2014-06-10T12:17:04Z</time>
      </trkpt>
      <trkpt lat="43.7533" lon="4.73321">
        <ele>98.6</ele>
        <time>2014-06-10T12:17:10Z</time>
      </trkpt>
      <trkpt lat="43.75333" lon="4.73326">
        <ele>98.6</ele>
        <time>2014-06-10T12:17:15Z</time>
      </trkpt>
      <trkpt lat="43.75336" lon="4.73333">
        <ele>99</ele>
        <time>2014-06-10T12:17:22Z</time>
      </trkpt>
      <trkpt lat="43.7534" lon="4.73338">
        <ele>99.6</ele>
        <time>2014-06-10T12:17:27Z</time>
      </trkpt>
      <trkpt lat="43.75343" lon="4.73344">
        <ele>100.1</ele>
        <time>2014-06-10T12:17:32Z</time>
      </trkpt>
      <trkpt lat="43.75347" lon="4.73348">
        <ele>100.4</ele>
        <time>2014-06-10T12:17:37Z</time>
      </trkpt>
      <trkpt lat="43.7535" lon="4.73354">
        <ele>100.7</ele>
        <time>2014-06-10T12:17:43Z</time>
      </trkpt>
      <trkpt lat="43.75353" lon="4.7336">
        <ele>100.8</ele>
        <time>2014-06-10T12:17:48Z</time>
      </trkpt>
      <trkpt lat="43.75356" lon="4.73365">
        <ele>100.8</ele>
        <time>2014-06-10T12:17:53Z</time>
      </trkpt>
      <trkpt lat="43.75359" lon="4.7337">
        <ele>100.9</ele>
        <time>2014-06-10T12:17:58Z</time>
      </trkpt>
      <trkpt lat="43.75362" lon="4.73375">
        <ele>101</ele>
        <time>2014-06-10T12:18:03Z</time>
      </trkpt>
      <trkpt lat="43.75365" lon="4.7338">
        <ele>101.2</ele>
        <time>2014-06-10T12:18:08Z</time>
      </trkpt>
      <trkpt lat="43.75369" lon="4.73383">
        <ele>101.3</ele>
        <time>2014-06-10T12:18:13Z</time>
      </trkpt>
      <trkpt lat="43.75372" lon="4.73388">
        <ele>101.6</ele>
        <time>2014-06-10T12:18:19Z</time>
      </trkpt>
      <trkpt lat="43.75375" lon="4.73393">
        <ele>101.9</ele>
        <time>2014-06-10T12:18:24Z</time>
      </trkpt>
      <trkpt lat="43.75379" lon="4.73399">
        <ele>102.2</ele>
        <time>2014-06-10T12:18:29Z</time>
      </trkpt>
      <trkpt lat="43.75382" lon="4.73404">
        <ele>102.5</ele>
        <time>2014-06-10T12:18:34Z</time>
      </trkpt>
      <trkpt lat="43.75385" lon="4.7341">
        <ele>102.8</ele>
        <time>2014-06-10T12:18:39Z</time>
      </trkpt>
      <trkpt lat="43.75388" lon="4.73415">
        <ele>103</ele>
        <time>2014-06-10T12:18:45Z</time>
      </trkpt>
      <trkpt lat="43.75391" lon="4.7342">
        <ele>103.2</ele>
        <time>2014-06-10T12:18:50Z</time>
      </trkpt>
      <trkpt lat="43.75395" lon="4.73425">
        <ele>103.5</ele>
        <time>2014-06-10T12:18:55Z</time>
      </trkpt>
      <trkpt lat="43.75398" lon="4.7343">
        <ele>103.6</ele>
        <time>2014-06-10T12:19:00Z</time>
      </trkpt>
      <trkpt lat="43.75402" lon="4.73436">
        <ele>103.8</ele>
        <time>2014-06-10T12:19:05Z</time>
      </trkpt>
      <trkpt lat="43.75405" lon="4.73441">
        <ele>103.9</ele>
        <time>2014-06-10T12:19:10Z</time>
      </trkpt>
      <trkpt lat="43.75409" lon="4.73446">
        <ele>103.9</ele>
        <time>2014-06-10T12:19:15Z</time>
      </trkpt>
      <trkpt lat="43.75413" lon="4.73451">
        <ele>103.9</ele>
        <time>2014-06-10T12:19:20Z</time>
      </trkpt>
      <trkpt lat="43.75416" lon="4.73456">
        <ele>104</ele>
        <time>2014-06-10T12:19:25Z</time>
      </trkpt>
      <trkpt lat="43.75419" lon="4.73462">
        <ele>104.1</ele>
        <time>2014-06-10T12:19:30Z</time>
      </trkpt>
      <trkpt lat="43.7542" lon="4.73468">
        <ele>104.4</ele>
        <time>2014-06-10T12:19:37Z</time>
      </trkpt>
      <trkpt lat="43.75423" lon="4.73474">
        <ele>104.6</ele>
        <time>2014-06-10T12:19:43Z</time>
      </trkpt>
      <trkpt lat="43.75426" lon="4.7348">
        <ele>104.8</ele>
        <time>2014-06-10T12:19:48Z</time>
      </trkpt>
      <trkpt lat="43.75428" lon="4.73486">
        <ele>105</ele>
        <time>2014-06-10T12:19:53Z</time>
      </trkpt>
      <trkpt lat="43.75431" lon="4.73493">
        <ele>105.1</ele>
        <time>2014-06-10T12:19:58Z</time>
      </trkpt>
      <trkpt lat="43.75433" lon="4.73499">
        <ele>105.2</ele>
        <time>2014-06-10T12:20:02Z</time>
      </trkpt>
      <trkpt lat="43.75435" lon="4.73505">
        <ele>105.2</ele>
        <time>2014-06-10T12:20:07Z</time>
      </trkpt>
      <trkpt lat="43.75437" lon="4.73511">
        <ele>105.2</ele>
        <time>2014-06-10T12:20:12Z</time>
      </trkpt>
      <trkpt lat="43.75438" lon="4.73517">
        <ele>105.3</ele>
        <time>2014-06-10T12:20:17Z</time>
      </trkpt>
      <trkpt lat="43.75441" lon="4.73524">
        <ele>105.3</ele>
        <time>2014-06-10T12:20:22Z</time>
      </trkpt>
      <trkpt lat="43.75443" lon="4.7353">
        <ele>105.4</ele>
        <time>2014-06-10T12:20:27Z</time>
      </trkpt>
      <trkpt lat="43.75445" lon="4.73536">
        <ele>105.8</ele>
        <time>2014-06-10T12:20:35Z</time>
      </trkpt>
      <trkpt lat="43.75447" lon="4.73542">
        <ele>106.3</ele>
        <time>2014-06-10T12:20:40Z</time>
      </trkpt>
      <trkpt lat="43.7545" lon="4.73548">
        <ele>106.8</ele>
        <time>2014-06-10T12:20:45Z</time>
      </trkpt>
      <trkpt lat="43.75452" lon="4.73555">
        <ele>107.1</ele>
        <time>2014-06-10T12:20:50Z</time>
      </trkpt>
      <trkpt lat="43.75455" lon="4.73561">
        <ele>107</ele>
        <time>2014-06-10T12:20:55Z</time>
      </trkpt>
      <trkpt lat="43.75457" lon="4.73567">
        <ele>107.1</ele>
        <time>2014-06-10T12:21:00Z</time>
      </trkpt>
      <trkpt lat="43.75458" lon="4.73573">
        <ele>107.1</ele>
        <time>2014-06-10T12:21:05Z</time>
      </trkpt>
      <trkpt lat="43.75461" lon="4.7358">
        <ele>107.1</ele>
        <time>2014-06-10T12:21:10Z</time>
      </trkpt>
      <trkpt lat="43.75463" lon="4.73586">
        <ele>107.1</ele>
        <time>2014-06-10T12:21:15Z</time>
      </trkpt>
      <trkpt lat="43.75465" lon="4.73591">
        <ele>107.1</ele>
        <time>2014-06-10T12:21:20Z</time>
      </trkpt>
      <trkpt lat="43.75471" lon="4.73602">
        <ele>106.8</ele>
        <time>2014-06-10T12:21:30Z</time>
      </trkpt>
      <trkpt lat="43.75474" lon="4.73607">
        <ele>106.8</ele>
        <time>2014-06-10T12:21:35Z</time>
      </trkpt>
      <trkpt lat="43.75477" lon="4.73612">
        <ele>106.9</ele>
        <time>2014-06-10T12:21:40Z</time>
      </trkpt>
      <trkpt lat="43.75481" lon="4.73618">
        <ele>107.1</ele>
        <time>2014-06-10T12:21:45Z</time>
      </trkpt>
      <trkpt lat="43.75484" lon="4.73624">
        <ele>107.3</ele>
        <time>2014-06-10T12:21:50Z</time>
      </trkpt>
      <trkpt lat="43.75487" lon="4.73629">
        <ele>107.4</ele>
        <time>2014-06-10T12:21:55Z</time>
      </trkpt>
      <trkpt lat="43.75491" lon="4.73635">
        <ele>107.5</ele>
        <time>2014-06-10T12:22:00Z</time>
      </trkpt>
      <trkpt lat="43.75494" lon="4.73641">
        <ele>107.6</ele>
        <time>2014-06-10T12:22:05Z</time>
      </trkpt>
      <trkpt lat="43.75496" lon="4.73648">
        <ele>107.7</ele>
        <time>2014-06-10T12:22:10Z</time>
      </trkpt>
      <trkpt lat="43.75497" lon="4.73655">
        <ele>107.8</ele>
        <time>2014-06-10T12:22:15Z</time>
      </trkpt>
      <trkpt lat="43.75498" lon="4.73661">
        <ele>108</ele>
        <time>2014-06-10T12:22:20Z</time>
      </trkpt>
      <trkpt lat="43.75496" lon="4.73668">
        <ele>108.4</ele>
        <time>2014-06-10T12:22:25Z</time>
      </trkpt>
      <trkpt lat="43.75496" lon="4.73675">
        <ele>108.5</ele>
        <time>2014-06-10T12:22:30Z</time>
      </trkpt>
      <trkpt lat="43.75495" lon="4.73681">
        <ele>108.6</ele>
        <time>2014-06-10T12:22:35Z</time>
      </trkpt>
      <trkpt lat="43.75495" lon="4.73688">
        <ele>108.5</ele>
        <time>2014-06-10T12:22:45Z</time>
      </trkpt>
      <trkpt lat="43.75495" lon="4.73694">
        <ele>108.6</ele>
        <time>2014-06-10T12:22:50Z</time>
      </trkpt>
      <trkpt lat="43.75493" lon="4.737">
        <ele>108.9</ele>
        <time>2014-06-10T12:22:57Z</time>
      </trkpt>
      <trkpt lat="43.75528" lon="4.73733">
        <ele>110.4</ele>
        <time>2014-06-10T12:23:54Z</time>
      </trkpt>
      <trkpt lat="43.75533" lon="4.73731">
        <ele>111.1</ele>
        <time>2014-06-10T12:24:00Z</time>
      </trkpt>
      <trkpt lat="43.75538" lon="4.7373">
        <ele>111.8</ele>
        <time>2014-06-10T12:24:05Z</time>
      </trkpt>
      <trkpt lat="43.75543" lon="4.73729">
        <ele>112.5</ele>
        <time>2014-06-10T12:24:10Z</time>
      </trkpt>
      <trkpt lat="43.75549" lon="4.73728">
        <ele>113.3</ele>
        <time>2014-06-10T12:24:17Z</time>
      </trkpt>
      <trkpt lat="43.75553" lon="4.73726">
        <ele>113.9</ele>
        <time>2014-06-10T12:24:23Z</time>
      </trkpt>
      <trkpt lat="43.75563" lon="4.73726">
        <ele>114.7</ele>
        <time>2014-06-10T12:24:34Z</time>
      </trkpt>
      <trkpt lat="43.75566" lon="4.73729">
        <ele>115.2</ele>
        <time>2014-06-10T12:24:44Z</time>
      </trkpt>
      <trkpt lat="43.75571" lon="4.73732">
        <ele>115.6</ele>
        <time>2014-06-10T12:24:49Z</time>
      </trkpt>
      <trkpt lat="43.75576" lon="4.73735">
        <ele>116</ele>
        <time>2014-06-10T12:24:54Z</time>
      </trkpt>
      <trkpt lat="43.7558" lon="4.73737">
        <ele>116.3</ele>
        <time>2014-06-10T12:24:59Z</time>
      </trkpt>
      <trkpt lat="43.75584" lon="4.7374">
        <ele>116.6</ele>
        <time>2014-06-10T12:25:04Z</time>
      </trkpt>
      <trkpt lat="43.75589" lon="4.73742">
        <ele>116.7</ele>
        <time>2014-06-10T12:25:09Z</time>
      </trkpt>
      <trkpt lat="43.75593" lon="4.73747">
        <ele>116.9</ele>
        <time>2014-06-10T12:25:18Z</time>
      </trkpt>
      <trkpt lat="43.75596" lon="4.73751">
        <ele>117</ele>
        <time>2014-06-10T12:25:22Z</time>
      </trkpt>
      <trkpt lat="43.756" lon="4.73756">
        <ele>117.3</ele>
        <time>2014-06-10T12:25:27Z</time>
      </trkpt>
      <trkpt lat="43.75605" lon="4.73759">
        <ele>117.4</ele>
        <time>2014-06-10T12:25:32Z</time>
      </trkpt>
      <trkpt lat="43.75609" lon="4.73762">
        <ele>117.5</ele>
        <time>2014-06-10T12:25:37Z</time>
      </trkpt>
      <trkpt lat="43.75614" lon="4.73764">
        <ele>117.5</ele>
        <time>2014-06-10T12:25:42Z</time>
      </trkpt>
      <trkpt lat="43.7562" lon="4.73766">
        <ele>117.6</ele>
        <time>2014-06-10T12:25:47Z</time>
      </trkpt>
      <trkpt lat="43.75629" lon="4.73771">
        <ele>117.7</ele>
        <time>2014-06-10T12:25:58Z</time>
      </trkpt>
      <trkpt lat="43.75633" lon="4.73774">
        <ele>117.9</ele>
        <time>2014-06-10T12:26:04Z</time>
      </trkpt>
      <trkpt lat="43.75638" lon="4.73776">
        <ele>117.9</ele>
        <time>2014-06-10T12:26:09Z</time>
      </trkpt>
      <trkpt lat="43.75644" lon="4.73778">
        <ele>118.3</ele>
        <time>2014-06-10T12:26:14Z</time>
      </trkpt>
      <trkpt lat="43.75648" lon="4.73781">
        <ele>118.9</ele>
        <time>2014-06-10T12:26:27Z</time>
      </trkpt>
      <trkpt lat="43.75653" lon="4.73782">
        <ele>119.3</ele>
        <time>2014-06-10T12:26:34Z</time>
      </trkpt>
      <trkpt lat="43.75677" lon="4.73735">
        <ele>118.7</ele>
        <time>2014-06-10T12:30:52Z</time>
      </trkpt>
      <trkpt lat="43.75681" lon="4.73731">
        <ele>118.9</ele>
        <time>2014-06-10T12:31:05Z</time>
      </trkpt>
      <trkpt lat="43.75686" lon="4.73729">
        <ele>119.1</ele>
        <time>2014-06-10T12:31:10Z</time>
      </trkpt>
      <trkpt lat="43.7569" lon="4.73723">
        <ele>118.7</ele>
        <time>2014-06-10T12:31:15Z</time>
      </trkpt>
      <trkpt lat="43.75693" lon="4.73718">
        <ele>118.6</ele>
        <time>2014-06-10T12:31:19Z</time>
      </trkpt>
      <trkpt lat="43.75696" lon="4.73712">
        <ele>118.4</ele>
        <time>2014-06-10T12:31:27Z</time>
      </trkpt>
      <trkpt lat="43.757" lon="4.73707">
        <ele>118.2</ele>
        <time>2014-06-10T12:31:33Z</time>
      </trkpt>
      <trkpt lat="43.75704" lon="4.73703">
        <ele>118.2</ele>
        <time>2014-06-10T12:31:38Z</time>
      </trkpt>
      <trkpt lat="43.75709" lon="4.73698">
        <ele>118.2</ele>
        <time>2014-06-10T12:31:43Z</time>
      </trkpt>
      <trkpt lat="43.75712" lon="4.73694">
        <ele>118.3</ele>
        <time>2014-06-10T12:31:47Z</time>
      </trkpt>
      <trkpt lat="43.75716" lon="4.73689">
        <ele>118.5</ele>
        <time>2014-06-10T12:31:52Z</time>
      </trkpt>
      <trkpt lat="43.75721" lon="4.73682">
        <ele>118.9</ele>
        <time>2014-06-10T12:31:57Z</time>
      </trkpt>
      <trkpt lat="43.75725" lon="4.73675">
        <ele>119.2</ele>
        <time>2014-06-10T12:32:02Z</time>
      </trkpt>
      <trkpt lat="43.75726" lon="4.73667">
        <ele>119.3</ele>
        <time>2014-06-10T12:32:07Z</time>
      </trkpt>
      <trkpt lat="43.75727" lon="4.73661">
        <ele>119.3</ele>
        <time>2014-06-10T12:32:13Z</time>
      </trkpt>
      <trkpt lat="43.75724" lon="4.73655">
        <ele>119.1</ele>
        <time>2014-06-10T12:32:18Z</time>
      </trkpt>
      <trkpt lat="43.75717" lon="4.73646">
        <ele>118.6</ele>
        <time>2014-06-10T12:32:30Z</time>
      </trkpt>
      <trkpt lat="43.75717" lon="4.73639">
        <ele>118.6</ele>
        <time>2014-06-10T12:32:35Z</time>
      </trkpt>
      <trkpt lat="43.75716" lon="4.73632">
        <ele>118.7</ele>
        <time>2014-06-10T12:32:40Z</time>
      </trkpt>
      <trkpt lat="43.75715" lon="4.73625">
        <ele>118.9</ele>
        <time>2014-06-10T12:32:45Z</time>
      </trkpt>
      <trkpt lat="43.75714" lon="4.73618">
        <ele>118.9</ele>
        <time>2014-06-10T12:32:49Z</time>
      </trkpt>
      <trkpt lat="43.75713" lon="4.73611">
        <ele>119</ele>
        <time>2014-06-10T12:32:54Z</time>
      </trkpt>
      <trkpt lat="43.75712" lon="4.73605">
        <ele>118.9</ele>
        <time>2014-06-10T12:33:00Z</time>
      </trkpt>
      <trkpt lat="43.75712" lon="4.73596">
        <ele>118.9</ele>
        <time>2014-06-10T12:33:07Z</time>
      </trkpt>
      <trkpt lat="43.75712" lon="4.73589">
        <ele>118.9</ele>
        <time>2014-06-10T12:33:12Z</time>
      </trkpt>
      <trkpt lat="43.75712" lon="4.73583">
        <ele>118.9</ele>
        <time>2014-06-10T12:33:17Z</time>
      </trkpt>
      <trkpt lat="43.75714" lon="4.73576">
        <ele>119.2</ele>
        <time>2014-06-10T12:33:23Z</time>
      </trkpt>
      <trkpt lat="43.75716" lon="4.73569">
        <ele>119.5</ele>
        <time>2014-06-10T12:33:27Z</time>
      </trkpt>
      <trkpt lat="43.75718" lon="4.73563">
        <ele>119.7</ele>
        <time>2014-06-10T12:33:33Z</time>
      </trkpt>
      <trkpt lat="43.75722" lon="4.73551">
        <ele>120</ele>
        <time>2014-06-10T12:33:47Z</time>
      </trkpt>
      <trkpt lat="43.75724" lon="4.73545">
        <ele>120.2</ele>
        <time>2014-06-10T12:33:52Z</time>
      </trkpt>
      <trkpt lat="43.75726" lon="4.73538">
        <ele>120.4</ele>
        <time>2014-06-10T12:33:57Z</time>
      </trkpt>
      <trkpt lat="43.75727" lon="4.73531">
        <ele>120.6</ele>
        <time>2014-06-10T12:34:02Z</time>
      </trkpt>
      <trkpt lat="43.7573" lon="4.73525">
        <ele>120.8</ele>
        <time>2014-06-10T12:34:07Z</time>
      </trkpt>
      <trkpt lat="43.75732" lon="4.73519">
        <ele>121</ele>
        <time>2014-06-10T12:34:14Z</time>
      </trkpt>
      <trkpt lat="43.75734" lon="4.73513">
        <ele>121.3</ele>
        <time>2014-06-10T12:34:19Z</time>
      </trkpt>
      <trkpt lat="43.75736" lon="4.73506">
        <ele>121.5</ele>
        <time>2014-06-10T12:34:25Z</time>
      </trkpt>
      <trkpt lat="43.7574" lon="4.735">
        <ele>121.9</ele>
        <time>2014-06-10T12:34:32Z</time>
      </trkpt>
      <trkpt lat="43.75743" lon="4.73494">
        <ele>122.1</ele>
        <time>2014-06-10T12:34:37Z</time>
      </trkpt>
      <trkpt lat="43.75746" lon="4.73489">
        <ele>122.2</ele>
        <time>2014-06-10T12:34:42Z</time>
      </trkpt>
      <trkpt lat="43.75749" lon="4.73482">
        <ele>122.3</ele>
        <time>2014-06-10T12:34:48Z</time>
      </trkpt>
      <trkpt lat="43.75752" lon="4.73476">
        <ele>122.4</ele>
        <time>2014-06-10T12:34:54Z</time>
      </trkpt>
      <trkpt lat="43.75754" lon="4.73469">
        <ele>122.8</ele>
        <time>2014-06-10T12:35:00Z</time>
      </trkpt>
      <trkpt lat="43.75757" lon="4.73464">
        <ele>123.5</ele>
        <time>2014-06-10T12:35:05Z</time>
      </trkpt>
      <trkpt lat="43.7576" lon="4.73458">
        <ele>124.1</ele>
        <time>2014-06-10T12:35:13Z</time>
      </trkpt>
      <trkpt lat="43.75763" lon="4.73452">
        <ele>124.6</ele>
        <time>2014-06-10T12:35:19Z</time>
      </trkpt>
      <trkpt lat="43.75766" lon="4.73447">
        <ele>125.2</ele>
        <time>2014-06-10T12:35:25Z</time>
      </trkpt>
      <trkpt lat="43.75768" lon="4.73442">
        <ele>125.6</ele>
        <time>2014-06-10T12:35:30Z</time>
      </trkpt>
      <trkpt lat="43.7577" lon="4.73436">
        <ele>125.8</ele>
        <time>2014-06-10T12:35:35Z</time>
      </trkpt>
      <trkpt lat="43.75776" lon="4.73426">
        <ele>126.2</ele>
        <time>2014-06-10T12:35:45Z</time>
      </trkpt>
      <trkpt lat="43.75779" lon="4.73421">
        <ele>126.4</ele>
        <time>2014-06-10T12:35:50Z</time>
      </trkpt>
      <trkpt lat="43.75784" lon="4.73416">
        <ele>127.1</ele>
        <time>2014-06-10T12:35:57Z</time>
      </trkpt>
      <trkpt lat="43.75787" lon="4.7341">
        <ele>127.8</ele>
        <time>2014-06-10T12:36:03Z</time>
      </trkpt>
      <trkpt lat="43.75789" lon="4.73404">
        <ele>128.3</ele>
        <time>2014-06-10T12:36:10Z</time>
      </trkpt>
      <trkpt lat="43.75791" lon="4.73397">
        <ele>128.7</ele>
        <time>2014-06-10T12:36:17Z</time>
      </trkpt>
      <trkpt lat="43.75792" lon="4.7339">
        <ele>129.1</ele>
        <time>2014-06-10T12:36:23Z</time>
      </trkpt>
      <trkpt lat="43.75794" lon="4.73384">
        <ele>129.1</ele>
        <time>2014-06-10T12:36:28Z</time>
      </trkpt>
      <trkpt lat="43.75796" lon="4.73378">
        <ele>128.9</ele>
        <time>2014-06-10T12:36:33Z</time>
      </trkpt>
      <trkpt lat="43.75796" lon="4.73371">
        <ele>128.6</ele>
        <time>2014-06-10T12:36:38Z</time>
      </trkpt>
      <trkpt lat="43.75797" lon="4.73364">
        <ele>128.2</ele>
        <time>2014-06-10T12:36:44Z</time>
      </trkpt>
      <trkpt lat="43.75798" lon="4.73357">
        <ele>128.2</ele>
        <time>2014-06-10T12:36:52Z</time>
      </trkpt>
      <trkpt lat="43.75799" lon="4.7335">
        <ele>128.4</ele>
        <time>2014-06-10T12:36:58Z</time>
      </trkpt>
      <trkpt lat="43.75787" lon="4.73294">
        <ele>131.3</ele>
        <time>2014-06-10T12:53:02Z</time>
      </trkpt>
      <trkpt lat="43.75785" lon="4.73287">
        <ele>131.7</ele>
        <time>2014-06-10T12:53:07Z</time>
      </trkpt>
      <trkpt lat="43.75783" lon="4.73281">
        <ele>132.1</ele>
        <time>2014-06-10T12:53:12Z</time>
      </trkpt>
      <trkpt lat="43.7578" lon="4.73276">
        <ele>132.3</ele>
        <time>2014-06-10T12:53:17Z</time>
      </trkpt>
      <trkpt lat="43.75777" lon="4.73269">
        <ele>132.6</ele>
        <time>2014-06-10T12:53:22Z</time>
      </trkpt>
      <trkpt lat="43.75775" lon="4.73263">
        <ele>133</ele>
        <time>2014-06-10T12:53:27Z</time>
      </trkpt>
      <trkpt lat="43.75773" lon="4.7325">
        <ele>134</ele>
        <time>2014-06-10T12:53:37Z</time>
      </trkpt>
      <trkpt lat="43.75773" lon="4.73243">
        <ele>134.5</ele>
        <time>2014-06-10T12:53:42Z</time>
      </trkpt>
      <trkpt lat="43.75774" lon="4.73237">
        <ele>135</ele>
        <time>2014-06-10T12:53:47Z</time>
      </trkpt>
      <trkpt lat="43.75776" lon="4.7323">
        <ele>135.5</ele>
        <time>2014-06-10T12:53:52Z</time>
      </trkpt>
      <trkpt lat="43.7578" lon="4.73219">
        <ele>136.3</ele>
        <time>2014-06-10T12:54:03Z</time>
      </trkpt>
      <trkpt lat="43.75783" lon="4.73213">
        <ele>136.7</ele>
        <time>2014-06-10T12:54:09Z</time>
      </trkpt>
      <trkpt lat="43.7579" lon="4.73204">
        <ele>136.6</ele>
        <time>2014-06-10T12:54:19Z</time>
      </trkpt>
      <trkpt lat="43.75789" lon="4.73197">
        <ele>136.9</ele>
        <time>2014-06-10T12:54:30Z</time>
      </trkpt>
      <trkpt lat="43.75788" lon="4.73189">
        <ele>137.9</ele>
        <time>2014-06-10T12:54:37Z</time>
      </trkpt>
      <trkpt lat="43.75784" lon="4.73186">
        <ele>138.8</ele>
        <time>2014-06-10T12:54:43Z</time>
      </trkpt>
      <trkpt lat="43.75779" lon="4.73186">
        <ele>139.5</ele>
        <time>2014-06-10T12:54:49Z</time>
      </trkpt>
      <trkpt lat="43.75774" lon="4.73186">
        <ele>139.8</ele>
        <time>2014-06-10T12:54:55Z</time>
      </trkpt>
      <trkpt lat="43.75769" lon="4.73188">
        <ele>140</ele>
        <time>2014-06-10T12:55:00Z</time>
      </trkpt>
      <trkpt lat="43.75765" lon="4.7319">
        <ele>140</ele>
        <time>2014-06-10T12:55:05Z</time>
      </trkpt>
      <trkpt lat="43.75759" lon="4.7319">
        <ele>140.2</ele>
        <time>2014-06-10T12:55:12Z</time>
      </trkpt>
      <trkpt lat="43.75754" lon="4.73187">
        <ele>140.9</ele>
        <time>2014-06-10T12:55:19Z</time>
      </trkpt>
      <trkpt lat="43.75751" lon="4.73183">
        <ele>141.7</ele>
        <time>2014-06-10T12:55:24Z</time>
      </trkpt>
      <trkpt lat="43.75748" lon="4.73177">
        <ele>142.2</ele>
        <time>2014-06-10T12:55:30Z</time>
      </trkpt>
      <trkpt lat="43.75747" lon="4.73169">
        <ele>143.2</ele>
        <time>2014-06-10T12:55:37Z</time>
      </trkpt>
      <trkpt lat="43.75746" lon="4.73162">
        <ele>143.6</ele>
        <time>2014-06-10T12:55:42Z</time>
      </trkpt>
      <trkpt lat="43.75745" lon="4.73156">
        <ele>143.8</ele>
        <time>2014-06-10T12:55:47Z</time>
      </trkpt>
      <trkpt lat="43.75743" lon="4.7315">
        <ele>144</ele>
        <time>2014-06-10T12:55:52Z</time>
      </trkpt>
      <trkpt lat="43.75741" lon="4.73144">
        <ele>144.3</ele>
        <time>2014-06-10T12:55:58Z</time>
      </trkpt>
      <trkpt lat="43.75737" lon="4.73139">
        <ele>144.5</ele>
        <time>2014-06-10T12:56:05Z</time>
      </trkpt>
      <trkpt lat="43.75732" lon="4.73134">
        <ele>145</ele>
        <time>2014-06-10T12:56:12Z</time>
      </trkpt>
      <trkpt lat="43.75728" lon="4.7313">
        <ele>145.5</ele>
        <time>2014-06-10T12:56:17Z</time>
      </trkpt>
      <trkpt lat="43.75724" lon="4.73126">
        <ele>145.9</ele>
        <time>2014-06-10T12:56:23Z</time>
      </trkpt>
      <trkpt lat="43.75719" lon="4.73125">
        <ele>146.1</ele>
        <time>2014-06-10T12:56:29Z</time>
      </trkpt>
      <trkpt lat="43.75714" lon="4.73124">
        <ele>146.1</ele>
        <time>2014-06-10T12:56:34Z</time>
      </trkpt>
      <trkpt lat="43.75709" lon="4.73122">
        <ele>146.5</ele>
        <time>2014-06-10T12:56:39Z</time>
      </trkpt>
      <trkpt lat="43.75704" lon="4.73122">
        <ele>146.6</ele>
        <time>2014-06-10T12:56:44Z</time>
      </trkpt>
      <trkpt lat="43.75699" lon="4.73121">
        <ele>146.8</ele>
        <time>2014-06-10T12:56:50Z</time>
      </trkpt>
      <trkpt lat="43.75696" lon="4.73114">
        <ele>148.3</ele>
        <time>2014-06-10T12:56:57Z</time>
      </trkpt>
      <trkpt lat="43.75697" lon="4.73108">
        <ele>149.8</ele>
        <time>2014-06-10T12:57:03Z</time>
      </trkpt>
      <trkpt lat="43.75702" lon="4.73106">
        <ele>150.1</ele>
        <time>2014-06-10T12:57:10Z</time>
      </trkpt>
      <trkpt lat="43.75707" lon="4.73104">
        <ele>150.3</ele>
        <time>2014-06-10T12:57:17Z</time>
      </trkpt>
      <trkpt lat="43.75713" lon="4.731">
        <ele>150.9</ele>
        <time>2014-06-10T12:57:22Z</time>
      </trkpt>
      <trkpt lat="43.75718" lon="4.73099">
        <ele>150.8</ele>
        <time>2014-06-10T12:57:27Z</time>
      </trkpt>
      <trkpt lat="43.75723" lon="4.731">
        <ele>150.3</ele>
        <time>2014-06-10T12:57:32Z</time>
      </trkpt>
      <trkpt lat="43.75728" lon="4.731">
        <ele>150.4</ele>
        <time>2014-06-10T12:57:38Z</time>
      </trkpt>
      <trkpt lat="43.75732" lon="4.73097">
        <ele>151</ele>
        <time>2014-06-10T12:57:57Z</time>
      </trkpt>
      <trkpt lat="43.75736" lon="4.73093">
        <ele>151.7</ele>
        <time>2014-06-10T12:58:02Z</time>
      </trkpt>
      <trkpt lat="43.75745" lon="4.73088">
        <ele>152.5</ele>
        <time>2014-06-10T12:58:12Z</time>
      </trkpt>
      <trkpt lat="43.7575" lon="4.73084">
        <ele>152.9</ele>
        <time>2014-06-10T12:58:17Z</time>
      </trkpt>
      <trkpt lat="43.75754" lon="4.7308">
        <ele>153.5</ele>
        <time>2014-06-10T12:58:22Z</time>
      </trkpt>
      <trkpt lat="43.75757" lon="4.73075">
        <ele>154.2</ele>
        <time>2014-06-10T12:58:27Z</time>
      </trkpt>
      <trkpt lat="43.75761" lon="4.73071">
        <ele>154.4</ele>
        <time>2014-06-10T12:58:32Z</time>
      </trkpt>
      <trkpt lat="43.75766" lon="4.73066">
        <ele>154.5</ele>
        <time>2014-06-10T12:58:39Z</time>
      </trkpt>
      <trkpt lat="43.75769" lon="4.7306">
        <ele>154.5</ele>
        <time>2014-06-10T12:58:44Z</time>
      </trkpt>
      <trkpt lat="43.75772" lon="4.73054">
        <ele>154.5</ele>
        <time>2014-06-10T12:58:49Z</time>
      </trkpt>
      <trkpt lat="43.75775" lon="4.73047">
        <ele>154.8</ele>
        <time>2014-06-10T12:58:54Z</time>
      </trkpt>
      <trkpt lat="43.75779" lon="4.73034">
        <ele>155.9</ele>
        <time>2014-06-10T12:59:04Z</time>
      </trkpt>
      <trkpt lat="43.75781" lon="4.73027">
        <ele>156.3</ele>
        <time>2014-06-10T12:59:09Z</time>
      </trkpt>
      <trkpt lat="43.75783" lon="4.73021">
        <ele>156.8</ele>
        <time>2014-06-10T12:59:15Z</time>
      </trkpt>
      <trkpt lat="43.75785" lon="4.73014">
        <ele>157.3</ele>
        <time>2014-06-10T12:59:20Z</time>
      </trkpt>
      <trkpt lat="43.75802" lon="4.72969">
        <ele>159.7</ele>
        <time>2014-06-10T13:00:35Z</time>
      </trkpt>
      <trkpt lat="43.75803" lon="4.72961">
        <ele>160.2</ele>
        <time>2014-06-10T13:00:42Z</time>
      </trkpt>
      <trkpt lat="43.75804" lon="4.72954">
        <ele>160.6</ele>
        <time>2014-06-10T13:00:48Z</time>
      </trkpt>
      <trkpt lat="43.75809" lon="4.72941">
        <ele>160.8</ele>
        <time>2014-06-10T13:01:02Z</time>
      </trkpt>
      <trkpt lat="43.75812" lon="4.72935">
        <ele>161.4</ele>
        <time>2014-06-10T13:01:07Z</time>
      </trkpt>
      <trkpt lat="43.75815" lon="4.72929">
        <ele>162.1</ele>
        <time>2014-06-10T13:01:13Z</time>
      </trkpt>
      <trkpt lat="43.75819" lon="4.72924">
        <ele>162.1</ele>
        <time>2014-06-10T13:01:22Z</time>
      </trkpt>
      <trkpt lat="43.75822" lon="4.72919">
        <ele>162.2</ele>
        <time>2014-06-10T13:01:28Z</time>
      </trkpt>
      <trkpt lat="43.75828" lon="4.72909">
        <ele>162.8</ele>
        <time>2014-06-10T13:01:40Z</time>
      </trkpt>
      <trkpt lat="43.7583" lon="4.72902">
        <ele>163.3</ele>
        <time>2014-06-10T13:01:47Z</time>
      </trkpt>
      <trkpt lat="43.75833" lon="4.72896">
        <ele>163.5</ele>
        <time>2014-06-10T13:01:54Z</time>
      </trkpt>
      <trkpt lat="43.75837" lon="4.72891">
        <ele>163.9</ele>
        <time>2014-06-10T13:02:02Z</time>
      </trkpt>
      <trkpt lat="43.75842" lon="4.7288">
        <ele>165.3</ele>
        <time>2014-06-10T13:02:14Z</time>
      </trkpt>
      <trkpt lat="43.75846" lon="4.72876">
        <ele>165.8</ele>
        <time>2014-06-10T13:02:22Z</time>
      </trkpt>
      <trkpt lat="43.75854" lon="4.72868">
        <ele>166.3</ele>
        <time>2014-06-10T13:02:33Z</time>
      </trkpt>
      <trkpt lat="43.75858" lon="4.72865">
        <ele>166.4</ele>
        <time>2014-06-10T13:02:40Z</time>
      </trkpt>
      <trkpt lat="43.75863" lon="4.72862">
        <ele>166.5</ele>
        <time>2014-06-10T13:02:47Z</time>
      </trkpt>
      <trkpt lat="43.75867" lon="4.72859">
        <ele>166.8</ele>
        <time>2014-06-10T13:02:53Z</time>
      </trkpt>
      <trkpt lat="43.75872" lon="4.72856">
        <ele>167.2</ele>
        <time>2014-06-10T13:03:02Z</time>
      </trkpt>
      <trkpt lat="43.75876" lon="4.72852">
        <ele>167.7</ele>
        <time>2014-06-10T13:03:08Z</time>
      </trkpt>
      <trkpt lat="43.7588" lon="4.72847">
        <ele>168.8</ele>
        <time>2014-06-10T13:03:13Z</time>
      </trkpt>
      <trkpt lat="43.75884" lon="4.72842">
        <ele>169.4</ele>
        <time>2014-06-10T13:03:27Z</time>
      </trkpt>
      <trkpt lat="43.75923" lon="4.72824">
        <ele>172</ele>
        <time>2014-06-10T13:08:02Z</time>
      </trkpt>
      <trkpt lat="43.75928" lon="4.72821">
        <ele>172.3</ele>
        <time>2014-06-10T13:08:08Z</time>
      </trkpt>
      <trkpt lat="43.75932" lon="4.72817">
        <ele>173.2</ele>
        <time>2014-06-10T13:08:13Z</time>
      </trkpt>
      <trkpt lat="43.75937" lon="4.72814">
        <ele>173.6</ele>
        <time>2014-06-10T13:08:18Z</time>
      </trkpt>
      <trkpt lat="43.75941" lon="4.72811">
        <ele>173.8</ele>
        <time>2014-06-10T13:08:23Z</time>
      </trkpt>
      <trkpt lat="43.75946" lon="4.72807">
        <ele>174.3</ele>
        <time>2014-06-10T13:08:29Z</time>
      </trkpt>
      <trkpt lat="43.75951" lon="4.72805">
        <ele>174.3</ele>
        <time>2014-06-10T13:08:35Z</time>
      </trkpt>
      <trkpt lat="43.75955" lon="4.72803">
        <ele>174.7</ele>
        <time>2014-06-10T13:08:40Z</time>
      </trkpt>
      <trkpt lat="43.7596" lon="4.728">
        <ele>175.2</ele>
        <time>2014-06-10T13:08:45Z</time>
      </trkpt>
      <trkpt lat="43.75966" lon="4.72797">
        <ele>175.4</ele>
        <time>2014-06-10T13:08:52Z</time>
      </trkpt>
      <trkpt lat="43.75971" lon="4.72794">
        <ele>175.7</ele>
        <time>2014-06-10T13:08:58Z</time>
      </trkpt>
      <trkpt lat="43.75975" lon="4.72792">
        <ele>176</ele>
        <time>2014-06-10T13:09:04Z</time>
      </trkpt>
      <trkpt lat="43.75985" lon="4.72789">
        <ele>175.9</ele>
        <time>2014-06-10T13:09:15Z</time>
      </trkpt>
      <trkpt lat="43.7599" lon="4.72787">
        <ele>176</ele>
        <time>2014-06-10T13:09:20Z</time>
      </trkpt>
      <trkpt lat="43.75994" lon="4.72784">
        <ele>176.2</ele>
        <time>2014-06-10T13:09:25Z</time>
      </trkpt>
      <trkpt lat="43.75998" lon="4.7278">
        <ele>176.5</ele>
        <time>2014-06-10T13:09:30Z</time>
      </trkpt>
      <trkpt lat="43.76003" lon="4.72775">
        <ele>177.4</ele>
        <time>2014-06-10T13:09:37Z</time>
      </trkpt>
      <trkpt lat="43.76007" lon="4.72771">
        <ele>177.5</ele>
        <time>2014-06-10T13:09:42Z</time>
      </trkpt>
      <trkpt lat="43.76011" lon="4.72767">
        <ele>177.9</ele>
        <time>2014-06-10T13:09:47Z</time>
      </trkpt>
      <trkpt lat="43.76015" lon="4.72763">
        <ele>178</ele>
        <time>2014-06-10T13:09:53Z</time>
      </trkpt>
      <trkpt lat="43.7602" lon="4.7276">
        <ele>177.4</ele>
        <time>2014-06-10T13:09:58Z</time>
      </trkpt>
      <trkpt lat="43.76023" lon="4.72756">
        <ele>177.2</ele>
        <time>2014-06-10T13:10:02Z</time>
      </trkpt>
      <trkpt lat="43.76027" lon="4.72751">
        <ele>177.2</ele>
        <time>2014-06-10T13:10:07Z</time>
      </trkpt>
      <trkpt lat="43.7603" lon="4.72746">
        <ele>177.8</ele>
        <time>2014-06-10T13:10:12Z</time>
      </trkpt>
      <trkpt lat="43.76034" lon="4.72742">
        <ele>178.6</ele>
        <time>2014-06-10T13:10:17Z</time>
      </trkpt>
      <trkpt lat="43.76038" lon="4.72737">
        <ele>179.2</ele>
        <time>2014-06-10T13:10:23Z</time>
      </trkpt>
      <trkpt lat="43.76042" lon="4.72734">
        <ele>179.4</ele>
        <time>2014-06-10T13:10:28Z</time>
      </trkpt>
      <trkpt lat="43.76047" lon="4.7273">
        <ele>179.2</ele>
        <time>2014-06-10T13:10:34Z</time>
      </trkpt>
      <trkpt lat="43.76051" lon="4.72728">
        <ele>178.6</ele>
        <time>2014-06-10T13:10:39Z</time>
      </trkpt>
      <trkpt lat="43.76056" lon="4.72725">
        <ele>178.4</ele>
        <time>2014-06-10T13:10:44Z</time>
      </trkpt>
      <trkpt lat="43.7606" lon="4.72721">
        <ele>179.1</ele>
        <time>2014-06-10T13:10:49Z</time>
      </trkpt>
      <trkpt lat="43.76064" lon="4.72718">
        <ele>179.8</ele>
        <time>2014-06-10T13:10:54Z</time>
      </trkpt>
      <trkpt lat="43.76068" lon="4.72714">
        <ele>180.5</ele>
        <time>2014-06-10T13:10:59Z</time>
      </trkpt>
      <trkpt lat="43.76076" lon="4.72707">
        <ele>181.5</ele>
        <time>2014-06-10T13:11:09Z</time>
      </trkpt>
      <trkpt lat="43.76081" lon="4.72702">
        <ele>181.9</ele>
        <time>2014-06-10T13:11:17Z</time>
      </trkpt>
      <trkpt lat="43.76085" lon="4.72699">
        <ele>182.3</ele>
        <time>2014-06-10T13:11:23Z</time>
      </trkpt>
      <trkpt lat="43.76093" lon="4.72691">
        <ele>183.2</ele>
        <time>2014-06-10T13:11:34Z</time>
      </trkpt>
      <trkpt lat="43.76095" lon="4.72686">
        <ele>183.6</ele>
        <time>2014-06-10T13:11:43Z</time>
      </trkpt>
      <trkpt lat="43.76099" lon="4.72681">
        <ele>184</ele>
        <time>2014-06-10T13:11:48Z</time>
      </trkpt>
      <trkpt lat="43.76103" lon="4.72676">
        <ele>184.3</ele>
        <time>2014-06-10T13:11:53Z</time>
      </trkpt>
      <trkpt lat="43.76107" lon="4.72672">
        <ele>184.6</ele>
        <time>2014-06-10T13:11:58Z</time>
      </trkpt>
      <trkpt lat="43.76111" lon="4.72668">
        <ele>184.9</ele>
        <time>2014-06-10T13:12:03Z</time>
      </trkpt>
      <trkpt lat="43.76115" lon="4.72664">
        <ele>185.3</ele>
        <time>2014-06-10T13:12:08Z</time>
      </trkpt>
      <trkpt lat="43.76119" lon="4.72661">
        <ele>185.6</ele>
        <time>2014-06-10T13:12:13Z</time>
      </trkpt>
      <trkpt lat="43.76123" lon="4.72657">
        <ele>185.8</ele>
        <time>2014-06-10T13:12:18Z</time>
      </trkpt>
      <trkpt lat="43.76127" lon="4.72656">
        <ele>186.1</ele>
        <time>2014-06-10T13:12:33Z</time>
      </trkpt>
      <trkpt lat="43.76122" lon="4.72654">
        <ele>185.6</ele>
        <time>2014-06-10T13:12:42Z</time>
      </trkpt>
      <trkpt lat="43.76126" lon="4.72658">
        <ele>186.1</ele>
        <time>2014-06-10T13:12:53Z</time>
      </trkpt>
      <trkpt lat="43.76131" lon="4.72656">
        <ele>186.4</ele>
        <time>2014-06-10T13:12:58Z</time>
      </trkpt>
      <trkpt lat="43.76134" lon="4.72652">
        <ele>186.5</ele>
        <time>2014-06-10T13:13:02Z</time>
      </trkpt>
      <trkpt lat="43.76137" lon="4.72646">
        <ele>186.4</ele>
        <time>2014-06-10T13:13:10Z</time>
      </trkpt>
      <trkpt lat="43.76168" lon="4.72609">
        <ele>189.1</ele>
        <time>2014-06-10T13:14:28Z</time>
      </trkpt>
      <trkpt lat="43.7617" lon="4.72602">
        <ele>189.3</ele>
        <time>2014-06-10T13:14:34Z</time>
      </trkpt>
      <trkpt lat="43.76172" lon="4.72597">
        <ele>189.4</ele>
        <time>2014-06-10T13:14:39Z</time>
      </trkpt>
      <trkpt lat="43.76174" lon="4.7259">
        <ele>189.6</ele>
        <time>2014-06-10T13:14:45Z</time>
      </trkpt>
      <trkpt lat="43.76176" lon="4.72584">
        <ele>189.7</ele>
        <time>2014-06-10T13:14:50Z</time>
      </trkpt>
      <trkpt lat="43.76179" lon="4.72578">
        <ele>190.1</ele>
        <time>2014-06-10T13:14:55Z</time>
      </trkpt>
      <trkpt lat="43.7618" lon="4.72572">
        <ele>190.2</ele>
        <time>2014-06-10T13:15:00Z</time>
      </trkpt>
      <trkpt lat="43.76182" lon="4.72565">
        <ele>190.4</ele>
        <time>2014-06-10T13:15:05Z</time>
      </trkpt>
      <trkpt lat="43.76184" lon="4.72558">
        <ele>190.5</ele>
        <time>2014-06-10T13:15:10Z</time>
      </trkpt>
      <trkpt lat="43.76185" lon="4.72552">
        <ele>190.8</ele>
        <time>2014-06-10T13:15:15Z</time>
      </trkpt>
      <trkpt lat="43.76186" lon="4.72545">
        <ele>191</ele>
        <time>2014-06-10T13:15:20Z</time>
      </trkpt>
      <trkpt lat="43.76188" lon="4.72538">
        <ele>191.3</ele>
        <time>2014-06-10T13:15:25Z</time>
      </trkpt>
      <trkpt lat="43.76188" lon="4.72532">
        <ele>191.5</ele>
        <time>2014-06-10T13:15:30Z</time>
      </trkpt>
      <trkpt lat="43.76187" lon="4.72525">
        <ele>191.5</ele>
        <time>2014-06-10T13:15:35Z</time>
      </trkpt>
      <trkpt lat="43.76186" lon="4.72519">
        <ele>191.7</ele>
        <time>2014-06-10T13:15:40Z</time>
      </trkpt>
      <trkpt lat="43.76184" lon="4.72512">
        <ele>191.8</ele>
        <time>2014-06-10T13:15:45Z</time>
      </trkpt>
      <trkpt lat="43.76183" lon="4.72506">
        <ele>191.9</ele>
        <time>2014-06-10T13:15:49Z</time>
      </trkpt>
      <trkpt lat="43.76182" lon="4.72499">
        <ele>192.1</ele>
        <time>2014-06-10T13:15:55Z</time>
      </trkpt>
      <trkpt lat="43.76179" lon="4.72493">
        <ele>191.9</ele>
        <time>2014-06-10T13:16:00Z</time>
      </trkpt>
      <trkpt lat="43.76178" lon="4.72487">
        <ele>191.9</ele>
        <time>2014-06-10T13:16:05Z</time>
      </trkpt>
      <trkpt lat="43.76176" lon="4.72481">
        <ele>191.9</ele>
        <time>2014-06-10T13:16:12Z</time>
      </trkpt>
      <trkpt lat="43.76185" lon="4.72425">
        <ele>191</ele>
        <time>2014-06-10T13:21:45Z</time>
      </trkpt>
      <trkpt lat="43.76186" lon="4.72412">
        <ele>190.7</ele>
        <time>2014-06-10T13:21:54Z</time>
      </trkpt>
      <trkpt lat="43.76187" lon="4.72405">
        <ele>190.2</ele>
        <time>2014-06-10T13:21:59Z</time>
      </trkpt>
      <trkpt lat="43.76186" lon="4.72398">
        <ele>189.9</ele>
        <time>2014-06-10T13:22:02Z</time>
      </trkpt>
      <trkpt lat="43.76185" lon="4.72389">
        <ele>189.4</ele>
        <time>2014-06-10T13:22:07Z</time>
      </trkpt>
      <trkpt lat="43.76186" lon="4.72382">
        <ele>189.1</ele>
        <time>2014-06-10T13:22:12Z</time>
      </trkpt>
      <trkpt lat="43.76187" lon="4.72375">
        <ele>188.8</ele>
        <time>2014-06-10T13:22:17Z</time>
      </trkpt>
      <trkpt lat="43.76187" lon="4.72367">
        <ele>188.5</ele>
        <time>2014-06-10T13:22:22Z</time>
      </trkpt>
      <trkpt lat="43.76187" lon="4.7236">
        <ele>188.2</ele>
        <time>2014-06-10T13:22:27Z</time>
      </trkpt>
      <trkpt lat="43.76188" lon="4.72353">
        <ele>188</ele>
        <time>2014-06-10T13:22:32Z</time>
      </trkpt>
      <trkpt lat="43.76188" lon="4.72346">
        <ele>187.7</ele>
        <time>2014-06-10T13:22:37Z</time>
      </trkpt>
      <trkpt lat="43.76188" lon="4.72338">
        <ele>187.4</ele>
        <time>2014-06-10T13:22:42Z</time>
      </trkpt>
      <trkpt lat="43.76189" lon="4.72331">
        <ele>187.2</ele>
        <time>2014-06-10T13:22:47Z</time>
      </trkpt>
      <trkpt lat="43.76189" lon="4.72322">
        <ele>187.1</ele>
        <time>2014-06-10T13:22:52Z</time>
      </trkpt>
      <trkpt lat="43.76189" lon="4.72315">
        <ele>187.1</ele>
        <time>2014-06-10T13:22:57Z</time>
      </trkpt>
      <trkpt lat="43.76189" lon="4.72307">
        <ele>187</ele>
        <time>2014-06-10T13:23:02Z</time>
      </trkpt>
      <trkpt lat="43.7619" lon="4.723">
        <ele>186.8</ele>
        <time>2014-06-10T13:23:07Z</time>
      </trkpt>
      <trkpt lat="43.7619" lon="4.72292">
        <ele>186.5</ele>
        <time>2014-06-10T13:23:12Z</time>
      </trkpt>
      <trkpt lat="43.7619" lon="4.72284">
        <ele>186.2</ele>
        <time>2014-06-10T13:23:17Z</time>
      </trkpt>
      <trkpt lat="43.7619" lon="4.72277">
        <ele>186</ele>
        <time>2014-06-10T13:23:22Z</time>
      </trkpt>
      <trkpt lat="43.76191" lon="4.7227">
        <ele>185.7</ele>
        <time>2014-06-10T13:23:27Z</time>
      </trkpt>
      <trkpt lat="43.76191" lon="4.72262">
        <ele>185.4</ele>
        <time>2014-06-10T13:23:32Z</time>
      </trkpt>
      <trkpt lat="43.76191" lon="4.72254">
        <ele>185.1</ele>
        <time>2014-06-10T13:23:37Z</time>
      </trkpt>
      <trkpt lat="43.76192" lon="4.72246">
        <ele>184.8</ele>
        <time>2014-06-10T13:23:42Z</time>
      </trkpt>
      <trkpt lat="43.76192" lon="4.72239">
        <ele>184.6</ele>
        <time>2014-06-10T13:23:47Z</time>
      </trkpt>
      <trkpt lat="43.76191" lon="4.72232">
        <ele>184.3</ele>
        <time>2014-06-10T13:23:52Z</time>
      </trkpt>
      <trkpt lat="43.76191" lon="4.72224">
        <ele>184</ele>
        <time>2014-06-10T13:23:57Z</time>
      </trkpt>
      <trkpt lat="43.76191" lon="4.72217">
        <ele>183.5</ele>
        <time>2014-06-10T13:24:02Z</time>
      </trkpt>
      <trkpt lat="43.76191" lon="4.72209">
        <ele>183</ele>
        <time>2014-06-10T13:24:07Z</time>
      </trkpt>
      <trkpt lat="43.76192" lon="4.72201">
        <ele>182.4</ele>
        <time>2014-06-10T13:24:12Z</time>
      </trkpt>
      <trkpt lat="43.76191" lon="4.72192">
        <ele>181.9</ele>
        <time>2014-06-10T13:24:17Z</time>
      </trkpt>
      <trkpt lat="43.76191" lon="4.72185">
        <ele>181.7</ele>
        <time>2014-06-10T13:24:22Z</time>
      </trkpt>
      <trkpt lat="43.76192" lon="4.72179">
        <ele>181.4</ele>
        <time>2014-06-10T13:24:27Z</time>
      </trkpt>
      <trkpt lat="43.76192" lon="4.72171">
        <ele>181.2</ele>
        <time>2014-06-10T13:24:32Z</time>
      </trkpt>
      <trkpt lat="43.76192" lon="4.72164">
        <ele>180.9</ele>
        <time>2014-06-10T13:24:37Z</time>
      </trkpt>
      <trkpt lat="43.76192" lon="4.72156">
        <ele>180.6</ele>
        <time>2014-06-10T13:24:42Z</time>
      </trkpt>
      <trkpt lat="43.76192" lon="4.72149">
        <ele>180.3</ele>
        <time>2014-06-10T13:24:47Z</time>
      </trkpt>
      <trkpt lat="43.76192" lon="4.72141">
        <ele>180.1</ele>
        <time>2014-06-10T13:24:52Z</time>
      </trkpt>
      <trkpt lat="43.76191" lon="4.72134">
        <ele>179.8</ele>
        <time>2014-06-10T13:24:57Z</time>
      </trkpt>
      <trkpt lat="43.76191" lon="4.72126">
        <ele>179.5</ele>
        <time>2014-06-10T13:25:02Z</time>
      </trkpt>
      <trkpt lat="43.76191" lon="4.72118">
        <ele>179.2</ele>
        <time>2014-06-10T13:25:07Z</time>
      </trkpt>
      <trkpt lat="43.76191" lon="4.72111">
        <ele>179</ele>
        <time>2014-06-10T13:25:12Z</time>
      </trkpt>
      <trkpt lat="43.7619" lon="4.72103">
        <ele>178.7</ele>
        <time>2014-06-10T13:25:17Z</time>
      </trkpt>
      <trkpt lat="43.7619" lon="4.72097">
        <ele>178.5</ele>
        <time>2014-06-10T13:25:22Z</time>
      </trkpt>
      <trkpt lat="43.7619" lon="4.7209">
        <ele>178.2</ele>
        <time>2014-06-10T13:25:27Z</time>
      </trkpt>
      <trkpt lat="43.76189" lon="4.72083">
        <ele>178</ele>
        <time>2014-06-10T13:25:32Z</time>
      </trkpt>
      <trkpt lat="43.76188" lon="4.72076">
        <ele>177.5</ele>
        <time>2014-06-10T13:25:37Z</time>
      </trkpt>
      <trkpt lat="43.76187" lon="4.72068">
        <ele>176.9</ele>
        <time>2014-06-10T13:25:42Z</time>
      </trkpt>
      <trkpt lat="43.76185" lon="4.7206">
        <ele>176.3</ele>
        <time>2014-06-10T13:25:47Z</time>
      </trkpt>
      <trkpt lat="43.76184" lon="4.72053">
        <ele>175.8</ele>
        <time>2014-06-10T13:25:52Z</time>
      </trkpt>
      <trkpt lat="43.76184" lon="4.72047">
        <ele>175.4</ele>
        <time>2014-06-10T13:25:57Z</time>
      </trkpt>
      <trkpt lat="43.76185" lon="4.7204">
        <ele>174.9</ele>
        <time>2014-06-10T13:26:02Z</time>
      </trkpt>
      <trkpt lat="43.76186" lon="4.72033">
        <ele>174.3</ele>
        <time>2014-06-10T13:26:07Z</time>
      </trkpt>
      <trkpt lat="43.76188" lon="4.72025">
        <ele>173.7</ele>
        <time>2014-06-10T13:26:12Z</time>
      </trkpt>
      <trkpt lat="43.7619" lon="4.72019">
        <ele>173.1</ele>
        <time>2014-06-10T13:26:17Z</time>
      </trkpt>
      <trkpt lat="43.76193" lon="4.72013">
        <ele>172.4</ele>
        <time>2014-06-10T13:26:22Z</time>
      </trkpt>
      <trkpt lat="43.76196" lon="4.72008">
        <ele>171.9</ele>
        <time>2014-06-10T13:26:28Z</time>
      </trkpt>
      <trkpt lat="43.76199" lon="4.72004">
        <ele>171.5</ele>
        <time>2014-06-10T13:26:32Z</time>
      </trkpt>
      <trkpt lat="43.76203" lon="4.72">
        <ele>171.3</ele>
        <time>2014-06-10T13:26:35Z</time>
      </trkpt>
      <trkpt lat="43.76208" lon="4.71996">
        <ele>171.1</ele>
        <time>2014-06-10T13:26:42Z</time>
      </trkpt>
      <trkpt lat="43.76213" lon="4.71994">
        <ele>171</ele>
        <time>2014-06-10T13:26:48Z</time>
      </trkpt>
      <trkpt lat="43.76217" lon="4.71992">
        <ele>171</ele>
        <time>2014-06-10T13:26:53Z</time>
      </trkpt>
      <trkpt lat="43.76225" lon="4.71984">
        <ele>170.3</ele>
        <time>2014-06-10T13:27:02Z</time>
      </trkpt>
      <trkpt lat="43.7623" lon="4.71979">
        <ele>169.9</ele>
        <time>2014-06-10T13:27:07Z</time>
      </trkpt>
      <trkpt lat="43.76234" lon="4.71974">
        <ele>169.6</ele>
        <time>2014-06-10T13:27:12Z</time>
      </trkpt>
      <trkpt lat="43.76238" lon="4.71968">
        <ele>169.3</ele>
        <time>2014-06-10T13:27:17Z</time>
      </trkpt>
      <trkpt lat="43.7624" lon="4.71961">
        <ele>169</ele>
        <time>2014-06-10T13:27:22Z</time>
      </trkpt>
      <trkpt lat="43.76243" lon="4.71954">
        <ele>168.6</ele>
        <time>2014-06-10T13:27:27Z</time>
      </trkpt>
      <trkpt lat="43.76244" lon="4.71947">
        <ele>168.2</ele>
        <time>2014-06-10T13:27:32Z</time>
      </trkpt>
      <trkpt lat="43.76245" lon="4.71938">
        <ele>167.7</ele>
        <time>2014-06-10T13:27:37Z</time>
      </trkpt>
      <trkpt lat="43.76246" lon="4.71929">
        <ele>167.4</ele>
        <time>2014-06-10T13:27:42Z</time>
      </trkpt>
      <trkpt lat="43.76248" lon="4.71921">
        <ele>167.1</ele>
        <time>2014-06-10T13:27:47Z</time>
      </trkpt>
      <trkpt lat="43.76249" lon="4.71913">
        <ele>166.8</ele>
        <time>2014-06-10T13:27:52Z</time>
      </trkpt>
      <trkpt lat="43.7625" lon="4.71905">
        <ele>166.6</ele>
        <time>2014-06-10T13:27:57Z</time>
      </trkpt>
      <trkpt lat="43.76252" lon="4.71897">
        <ele>166.2</ele>
        <time>2014-06-10T13:28:02Z</time>
      </trkpt>
      <trkpt lat="43.76254" lon="4.7189">
        <ele>165.9</ele>
        <time>2014-06-10T13:28:07Z</time>
      </trkpt>
      <trkpt lat="43.76256" lon="4.71883">
        <ele>165.6</ele>
        <time>2014-06-10T13:28:12Z</time>
      </trkpt>
      <trkpt lat="43.76257" lon="4.71875">
        <ele>165.2</ele>
        <time>2014-06-10T13:28:17Z</time>
      </trkpt>
      <trkpt lat="43.76259" lon="4.71868">
        <ele>164.9</ele>
        <time>2014-06-10T13:28:22Z</time>
      </trkpt>
      <trkpt lat="43.7626" lon="4.7186">
        <ele>164.6</ele>
        <time>2014-06-10T13:28:27Z</time>
      </trkpt>
      <trkpt lat="43.76262" lon="4.71853">
        <ele>164.3</ele>
        <time>2014-06-10T13:28:32Z</time>
      </trkpt>
      <trkpt lat="43.76263" lon="4.71846">
        <ele>164</ele>
        <time>2014-06-10T13:28:37Z</time>
      </trkpt>
      <trkpt lat="43.76264" lon="4.71837">
        <ele>163.7</ele>
        <time>2014-06-10T13:28:42Z</time>
      </trkpt>
      <trkpt lat="43.76265" lon="4.7183">
        <ele>163.3</ele>
        <time>2014-06-10T13:28:47Z</time>
      </trkpt>
      <trkpt lat="43.76267" lon="4.71822">
        <ele>162.8</ele>
        <time>2014-06-10T13:28:52Z</time>
      </trkpt>
      <trkpt lat="43.76268" lon="4.71815">
        <ele>162.5</ele>
        <time>2014-06-10T13:28:57Z</time>
      </trkpt>
      <trkpt lat="43.7627" lon="4.71808">
        <ele>162.1</ele>
        <time>2014-06-10T13:29:02Z</time>
      </trkpt>
      <trkpt lat="43.76272" lon="4.71801">
        <ele>161.8</ele>
        <time>2014-06-10T13:29:07Z</time>
      </trkpt>
      <trkpt lat="43.76273" lon="4.71792">
        <ele>161.5</ele>
        <time>2014-06-10T13:29:12Z</time>
      </trkpt>
      <trkpt lat="43.76275" lon="4.71784">
        <ele>161.2</ele>
        <time>2014-06-10T13:29:17Z</time>
      </trkpt>
      <trkpt lat="43.76277" lon="4.71771">
        <ele>160.5</ele>
        <time>2014-06-10T13:29:25Z</time>
      </trkpt>
      <trkpt lat="43.76279" lon="4.71765">
        <ele>160</ele>
        <time>2014-06-10T13:29:30Z</time>
      </trkpt>
      <trkpt lat="43.76279" lon="4.71758">
        <ele>159.6</ele>
        <time>2014-06-10T13:29:34Z</time>
      </trkpt>
      <trkpt lat="43.76281" lon="4.71752">
        <ele>159.1</ele>
        <time>2014-06-10T13:29:38Z</time>
      </trkpt>
      <trkpt lat="43.76281" lon="4.71745">
        <ele>158.8</ele>
        <time>2014-06-10T13:29:42Z</time>
      </trkpt>
      <trkpt lat="43.76283" lon="4.71737">
        <ele>158.5</ele>
        <time>2014-06-10T13:29:47Z</time>
      </trkpt>
      <trkpt lat="43.76285" lon="4.7173">
        <ele>158.3</ele>
        <time>2014-06-10T13:29:52Z</time>
      </trkpt>
      <trkpt lat="43.76286" lon="4.71723">
        <ele>158</ele>
        <time>2014-06-10T13:29:57Z</time>
      </trkpt>
      <trkpt lat="43.76287" lon="4.71716">
        <ele>157.8</ele>
        <time>2014-06-10T13:30:02Z</time>
      </trkpt>
      <trkpt lat="43.76289" lon="4.71709">
        <ele>157.5</ele>
        <time>2014-06-10T13:30:07Z</time>
      </trkpt>
      <trkpt lat="43.76291" lon="4.71701">
        <ele>157.2</ele>
        <time>2014-06-10T13:30:12Z</time>
      </trkpt>
      <trkpt lat="43.76294" lon="4.71688">
        <ele>156.8</ele>
        <time>2014-06-10T13:30:29Z</time>
      </trkpt>
      <trkpt lat="43.76297" lon="4.71682">
        <ele>156.5</ele>
        <time>2014-06-10T13:30:34Z</time>
      </trkpt>
      <trkpt lat="43.763" lon="4.71676">
        <ele>156.3</ele>
        <time>2014-06-10T13:30:38Z</time>
      </trkpt>
      <trkpt lat="43.76304" lon="4.7167">
        <ele>156.1</ele>
        <time>2014-06-10T13:30:42Z</time>
      </trkpt>
      <trkpt lat="43.76308" lon="4.71666">
        <ele>155.9</ele>
        <time>2014-06-10T13:30:47Z</time>
      </trkpt>
      <trkpt lat="43.76313" lon="4.71662">
        <ele>155.6</ele>
        <time>2014-06-10T13:30:52Z</time>
      </trkpt>
      <trkpt lat="43.76317" lon="4.71658">
        <ele>155.3</ele>
        <time>2014-06-10T13:30:57Z</time>
      </trkpt>
      <trkpt lat="43.76321" lon="4.71652">
        <ele>154.9</ele>
        <time>2014-06-10T13:31:02Z</time>
      </trkpt>
      <trkpt lat="43.76325" lon="4.71647">
        <ele>154.6</ele>
        <time>2014-06-10T13:31:07Z</time>
      </trkpt>
      <trkpt lat="43.76329" lon="4.71641">
        <ele>154.3</ele>
        <time>2014-06-10T13:31:12Z</time>
      </trkpt>
      <trkpt lat="43.76333" lon="4.71637">
        <ele>154</ele>
        <time>2014-06-10T13:31:17Z</time>
      </trkpt>
      <trkpt lat="43.76337" lon="4.71633">
        <ele>153.9</ele>
        <time>2014-06-10T13:31:22Z</time>
      </trkpt>
      <trkpt lat="43.76341" lon="4.71627">
        <ele>153.7</ele>
        <time>2014-06-10T13:31:27Z</time>
      </trkpt>
      <trkpt lat="43.76345" lon="4.71622">
        <ele>153.6</ele>
        <time>2014-06-10T13:31:32Z</time>
      </trkpt>
      <trkpt lat="43.76349" lon="4.71617">
        <ele>153.4</ele>
        <time>2014-06-10T13:31:37Z</time>
      </trkpt>
      <trkpt lat="43.76353" lon="4.71611">
        <ele>153.3</ele>
        <time>2014-06-10T13:31:42Z</time>
      </trkpt>
      <trkpt lat="43.76358" lon="4.71607">
        <ele>153</ele>
        <time>2014-06-10T13:31:47Z</time>
      </trkpt>
      <trkpt lat="43.76363" lon="4.71602">
        <ele>152.6</ele>
        <time>2014-06-10T13:31:52Z</time>
      </trkpt>
      <trkpt lat="43.76367" lon="4.71598">
        <ele>152.4</ele>
        <time>2014-06-10T13:31:57Z</time>
      </trkpt>
      <trkpt lat="43.76373" lon="4.71592">
        <ele>152.2</ele>
        <time>2014-06-10T13:32:07Z</time>
      </trkpt>
      <trkpt lat="43.76376" lon="4.71586">
        <ele>152</ele>
        <time>2014-06-10T13:32:12Z</time>
      </trkpt>
      <trkpt lat="43.7638" lon="4.7158">
        <ele>151.9</ele>
        <time>2014-06-10T13:32:17Z</time>
      </trkpt>
      <trkpt lat="43.76384" lon="4.71575">
        <ele>151.7</ele>
        <time>2014-06-10T13:32:22Z</time>
      </trkpt>
      <trkpt lat="43.76389" lon="4.71569">
        <ele>151.5</ele>
        <time>2014-06-10T13:32:27Z</time>
      </trkpt>
      <trkpt lat="43.76393" lon="4.71564">
        <ele>151.2</ele>
        <time>2014-06-10T13:32:32Z</time>
      </trkpt>
      <trkpt lat="43.76395" lon="4.71559">
        <ele>150.9</ele>
        <time>2014-06-10T13:32:47Z</time>
      </trkpt>
      <trkpt lat="43.76375" lon="4.7151">
        <ele>149.1</ele>
        <time>2014-06-10T13:33:39Z</time>
      </trkpt>
      <trkpt lat="43.76379" lon="4.71514">
        <ele>149</ele>
        <time>2014-06-10T13:33:48Z</time>
      </trkpt>
      <trkpt lat="43.76376" lon="4.71508">
        <ele>148.9</ele>
        <time>2014-06-10T13:34:02Z</time>
      </trkpt>
      <trkpt lat="43.76373" lon="4.71502">
        <ele>148.7</ele>
        <time>2014-06-10T13:34:05Z</time>
      </trkpt>
      <trkpt lat="43.76369" lon="4.71497">
        <ele>148.6</ele>
        <time>2014-06-10T13:34:10Z</time>
      </trkpt>
      <trkpt lat="43.76367" lon="4.71491">
        <ele>148.5</ele>
        <time>2014-06-10T13:34:14Z</time>
      </trkpt>
      <trkpt lat="43.76359" lon="4.7148">
        <ele>148.4</ele>
        <time>2014-06-10T13:34:22Z</time>
      </trkpt>
      <trkpt lat="43.76355" lon="4.71475">
        <ele>148.3</ele>
        <time>2014-06-10T13:34:27Z</time>
      </trkpt>
      <trkpt lat="43.7635" lon="4.7147">
        <ele>148.3</ele>
        <time>2014-06-10T13:34:32Z</time>
      </trkpt>
      <trkpt lat="43.76347" lon="4.71464">
        <ele>148.1</ele>
        <time>2014-06-10T13:34:37Z</time>
      </trkpt>
      <trkpt lat="43.76344" lon="4.71458">
        <ele>147.8</ele>
        <time>2014-06-10T13:34:42Z</time>
      </trkpt>
      <trkpt lat="43.76342" lon="4.71452">
        <ele>147.4</ele>
        <time>2014-06-10T13:34:47Z</time>
      </trkpt>
      <trkpt lat="43.76338" lon="4.71448">
        <ele>147.2</ele>
        <time>2014-06-10T13:34:52Z</time>
      </trkpt>
      <trkpt lat="43.76334" lon="4.71441">
        <ele>146.9</ele>
        <time>2014-06-10T13:34:57Z</time>
      </trkpt>
      <trkpt lat="43.76331" lon="4.71436">
        <ele>146.7</ele>
        <time>2014-06-10T13:35:02Z</time>
      </trkpt>
      <trkpt lat="43.76327" lon="4.71433">
        <ele>146.5</ele>
        <time>2014-06-10T13:35:07Z</time>
      </trkpt>
      <trkpt lat="43.76298" lon="4.71383">
        <ele>143.7</ele>
        <time>2014-06-10T13:36:15Z</time>
      </trkpt>
      <trkpt lat="43.76295" lon="4.71378">
        <ele>143.4</ele>
        <time>2014-06-10T13:36:19Z</time>
      </trkpt>
      <trkpt lat="43.76292" lon="4.71372">
        <ele>143.1</ele>
        <time>2014-06-10T13:36:23Z</time>
      </trkpt>
      <trkpt lat="43.76288" lon="4.7136">
        <ele>142.3</ele>
        <time>2014-06-10T13:36:32Z</time>
      </trkpt>
      <trkpt lat="43.76285" lon="4.71355">
        <ele>142</ele>
        <time>2014-06-10T13:36:37Z</time>
      </trkpt>
      <trkpt lat="43.76282" lon="4.71349">
        <ele>141.6</ele>
        <time>2014-06-10T13:36:42Z</time>
      </trkpt>
      <trkpt lat="43.7628" lon="4.71343">
        <ele>141.4</ele>
        <time>2014-06-10T13:36:47Z</time>
      </trkpt>
      <trkpt lat="43.76276" lon="4.71338">
        <ele>141.2</ele>
        <time>2014-06-10T13:36:52Z</time>
      </trkpt>
      <trkpt lat="43.76275" lon="4.71331">
        <ele>140.9</ele>
        <time>2014-06-10T13:36:57Z</time>
      </trkpt>
      <trkpt lat="43.76273" lon="4.71324">
        <ele>140.6</ele>
        <time>2014-06-10T13:37:03Z</time>
      </trkpt>
      <trkpt lat="43.76269" lon="4.7132">
        <ele>140.4</ele>
        <time>2014-06-10T13:37:07Z</time>
      </trkpt>
      <trkpt lat="43.76263" lon="4.71309">
        <ele>139.7</ele>
        <time>2014-06-10T13:37:20Z</time>
      </trkpt>
      <trkpt lat="43.76261" lon="4.71304">
        <ele>139.3</ele>
        <time>2014-06-10T13:37:25Z</time>
      </trkpt>
      <trkpt lat="43.76257" lon="4.71297">
        <ele>138.9</ele>
        <time>2014-06-10T13:37:32Z</time>
      </trkpt>
      <trkpt lat="43.76254" lon="4.7129">
        <ele>138.5</ele>
        <time>2014-06-10T13:37:37Z</time>
      </trkpt>
      <trkpt lat="43.76251" lon="4.71282">
        <ele>138.2</ele>
        <time>2014-06-10T13:37:42Z</time>
      </trkpt>
      <trkpt lat="43.76246" lon="4.71276">
        <ele>137.7</ele>
        <time>2014-06-10T13:37:47Z</time>
      </trkpt>
      <trkpt lat="43.76243" lon="4.7127">
        <ele>137.2</ele>
        <time>2014-06-10T13:37:52Z</time>
      </trkpt>
      <trkpt lat="43.76241" lon="4.71264">
        <ele>136.6</ele>
        <time>2014-06-10T13:37:57Z</time>
      </trkpt>
      <trkpt lat="43.76239" lon="4.71257">
        <ele>136.1</ele>
        <time>2014-06-10T13:38:02Z</time>
      </trkpt>
      <trkpt lat="43.76236" lon="4.7125">
        <ele>135.5</ele>
        <time>2014-06-10T13:38:07Z</time>
      </trkpt>
      <trkpt lat="43.76233" lon="4.71244">
        <ele>135.2</ele>
        <time>2014-06-10T13:38:12Z</time>
      </trkpt>
      <trkpt lat="43.76231" lon="4.71239">
        <ele>134.9</ele>
        <time>2014-06-10T13:38:17Z</time>
      </trkpt>
      <trkpt lat="43.76227" lon="4.71234">
        <ele>134.6</ele>
        <time>2014-06-10T13:38:22Z</time>
      </trkpt>
      <trkpt lat="43.76224" lon="4.71228">
        <ele>134.3</ele>
        <time>2014-06-10T13:38:27Z</time>
      </trkpt>
      <trkpt lat="43.76223" lon="4.71221">
        <ele>134</ele>
        <time>2014-06-10T13:38:32Z</time>
      </trkpt>
      <trkpt lat="43.76222" lon="4.71213">
        <ele>133.4</ele>
        <time>2014-06-10T13:38:37Z</time>
      </trkpt>
      <trkpt lat="43.76223" lon="4.71207">
        <ele>132.9</ele>
        <time>2014-06-10T13:38:43Z</time>
      </trkpt>
      <trkpt lat="43.7622" lon="4.71201">
        <ele>132.4</ele>
        <time>2014-06-10T13:38:48Z</time>
      </trkpt>
      <trkpt lat="43.76217" lon="4.71195">
        <ele>132</ele>
        <time>2014-06-10T13:38:53Z</time>
      </trkpt>
      <trkpt lat="43.76214" lon="4.71183">
        <ele>131.2</ele>
        <time>2014-06-10T13:39:03Z</time>
      </trkpt>
      <trkpt lat="43.76214" lon="4.71176">
        <ele>130.6</ele>
        <time>2014-06-10T13:39:08Z</time>
      </trkpt>
      <trkpt lat="43.76213" lon="4.71169">
        <ele>130.2</ele>
        <time>2014-06-10T13:39:14Z</time>
      </trkpt>
      <trkpt lat="43.76211" lon="4.71162">
        <ele>129.8</ele>
        <time>2014-06-10T13:39:19Z</time>
      </trkpt>
      <trkpt lat="43.76209" lon="4.71156">
        <ele>129.4</ele>
        <time>2014-06-10T13:39:25Z</time>
      </trkpt>
      <trkpt lat="43.76208" lon="4.71149">
        <ele>129</ele>
        <time>2014-06-10T13:39:30Z</time>
      </trkpt>
      <trkpt lat="43.76207" lon="4.71141">
        <ele>128.5</ele>
        <time>2014-06-10T13:39:37Z</time>
      </trkpt>
      <trkpt lat="43.76203" lon="4.71135">
        <ele>128</ele>
        <time>2014-06-10T13:39:42Z</time>
      </trkpt>
      <trkpt lat="43.76201" lon="4.71128">
        <ele>127.5</ele>
        <time>2014-06-10T13:39:47Z</time>
      </trkpt>
      <trkpt lat="43.762" lon="4.71122">
        <ele>127</ele>
        <time>2014-06-10T13:39:53Z</time>
      </trkpt>
      <trkpt lat="43.76203" lon="4.71118">
        <ele>126.8</ele>
        <time>2014-06-10T13:40:23Z</time>
      </trkpt>
      <trkpt lat="43.76193" lon="4.71066">
        <ele>121.9</ele>
        <time>2014-06-10T13:42:19Z</time>
      </trkpt>
      <trkpt lat="43.76187" lon="4.71056">
        <ele>121.6</ele>
        <time>2014-06-10T13:42:29Z</time>
      </trkpt>
      <trkpt lat="43.76185" lon="4.71044">
        <ele>120.7</ele>
        <time>2014-06-10T13:42:40Z</time>
      </trkpt>
      <trkpt lat="43.76184" lon="4.71038">
        <ele>120.2</ele>
        <time>2014-06-10T13:42:45Z</time>
      </trkpt>
      <trkpt lat="43.76184" lon="4.71029">
        <ele>119.5</ele>
        <time>2014-06-10T13:42:52Z</time>
      </trkpt>
      <trkpt lat="43.76184" lon="4.71023">
        <ele>119.1</ele>
        <time>2014-06-10T13:42:57Z</time>
      </trkpt>
      <trkpt lat="43.76183" lon="4.71016">
        <ele>118.8</ele>
        <time>2014-06-10T13:43:02Z</time>
      </trkpt>
      <trkpt lat="43.76182" lon="4.7101">
        <ele>118.5</ele>
        <time>2014-06-10T13:43:08Z</time>
      </trkpt>
      <trkpt lat="43.76181" lon="4.71003">
        <ele>118.2</ele>
        <time>2014-06-10T13:43:13Z</time>
      </trkpt>
      <trkpt lat="43.76179" lon="4.70991">
        <ele>117.5</ele>
        <time>2014-06-10T13:43:25Z</time>
      </trkpt>
      <trkpt lat="43.7618" lon="4.70982">
        <ele>117</ele>
        <time>2014-06-10T13:43:32Z</time>
      </trkpt>
      <trkpt lat="43.7618" lon="4.70975">
        <ele>116.6</ele>
        <time>2014-06-10T13:43:37Z</time>
      </trkpt>
      <trkpt lat="43.76178" lon="4.70961">
        <ele>116</ele>
        <time>2014-06-10T13:43:47Z</time>
      </trkpt>
      <trkpt lat="43.76175" lon="4.70948">
        <ele>115.4</ele>
        <time>2014-06-10T13:43:57Z</time>
      </trkpt>
      <trkpt lat="43.76174" lon="4.70941">
        <ele>115</ele>
        <time>2014-06-10T13:44:02Z</time>
      </trkpt>
      <trkpt lat="43.76173" lon="4.70934">
        <ele>114.5</ele>
        <time>2014-06-10T13:44:07Z</time>
      </trkpt>
      <trkpt lat="43.76173" lon="4.70927">
        <ele>114</ele>
        <time>2014-06-10T13:44:12Z</time>
      </trkpt>
      <trkpt lat="43.76173" lon="4.7092">
        <ele>113.5</ele>
        <time>2014-06-10T13:44:17Z</time>
      </trkpt>
      <trkpt lat="43.76171" lon="4.70913">
        <ele>113</ele>
        <time>2014-06-10T13:44:23Z</time>
      </trkpt>
      <trkpt lat="43.7617" lon="4.70907">
        <ele>112.7</ele>
        <time>2014-06-10T13:44:28Z</time>
      </trkpt>
      <trkpt lat="43.7617" lon="4.709">
        <ele>112.5</ele>
        <time>2014-06-10T13:44:33Z</time>
      </trkpt>
      <trkpt lat="43.76169" lon="4.70893">
        <ele>112.2</ele>
        <time>2014-06-10T13:44:38Z</time>
      </trkpt>
      <trkpt lat="43.76168" lon="4.70887">
        <ele>111.9</ele>
        <time>2014-06-10T13:44:43Z</time>
      </trkpt>
      <trkpt lat="43.76168" lon="4.7088">
        <ele>111.4</ele>
        <time>2014-06-10T13:44:48Z</time>
      </trkpt>
      <trkpt lat="43.76168" lon="4.70873">
        <ele>110.9</ele>
        <time>2014-06-10T13:44:53Z</time>
      </trkpt>
      <trkpt lat="43.76167" lon="4.70866">
        <ele>110.3</ele>
        <time>2014-06-10T13:44:58Z</time>
      </trkpt>
      <trkpt lat="43.76167" lon="4.70859">
        <ele>109.9</ele>
        <time>2014-06-10T13:45:04Z</time>
      </trkpt>
      <trkpt lat="43.76161" lon="4.70803">
        <ele>106.8</ele>
        <time>2014-06-10T13:47:13Z</time>
      </trkpt>
      <trkpt lat="43.7616" lon="4.70796">
        <ele>106.4</ele>
        <time>2014-06-10T13:47:18Z</time>
      </trkpt>
      <trkpt lat="43.7616" lon="4.7079">
        <ele>106</ele>
        <time>2014-06-10T13:47:23Z</time>
      </trkpt>
      <trkpt lat="43.76158" lon="4.70783">
        <ele>105.6</ele>
        <time>2014-06-10T13:47:28Z</time>
      </trkpt>
      <trkpt lat="43.76156" lon="4.70776">
        <ele>105.3</ele>
        <time>2014-06-10T13:47:33Z</time>
      </trkpt>
      <trkpt lat="43.76155" lon="4.70769">
        <ele>104.9</ele>
        <time>2014-06-10T13:47:38Z</time>
      </trkpt>
      <trkpt lat="43.76156" lon="4.70756">
        <ele>104.3</ele>
        <time>2014-06-10T13:47:47Z</time>
      </trkpt>
      <trkpt lat="43.76157" lon="4.70748">
        <ele>103.9</ele>
        <time>2014-06-10T13:47:53Z</time>
      </trkpt>
      <trkpt lat="43.76156" lon="4.70742">
        <ele>103.5</ele>
        <time>2014-06-10T13:47:58Z</time>
      </trkpt>
      <trkpt lat="43.76157" lon="4.70735">
        <ele>103.1</ele>
        <time>2014-06-10T13:48:02Z</time>
      </trkpt>
      <trkpt lat="43.76157" lon="4.70727">
        <ele>102.6</ele>
        <time>2014-06-10T13:48:07Z</time>
      </trkpt>
      <trkpt lat="43.76159" lon="4.7072">
        <ele>102.1</ele>
        <time>2014-06-10T13:48:13Z</time>
      </trkpt>
      <trkpt lat="43.76161" lon="4.70714">
        <ele>101.7</ele>
        <time>2014-06-10T13:48:17Z</time>
      </trkpt>
      <trkpt lat="43.76162" lon="4.70708">
        <ele>101.2</ele>
        <time>2014-06-10T13:48:22Z</time>
      </trkpt>
      <trkpt lat="43.76163" lon="4.707">
        <ele>100.7</ele>
        <time>2014-06-10T13:48:27Z</time>
      </trkpt>
      <trkpt lat="43.76165" lon="4.70694">
        <ele>100.1</ele>
        <time>2014-06-10T13:48:32Z</time>
      </trkpt>
      <trkpt lat="43.76167" lon="4.70687">
        <ele>99.2</ele>
        <time>2014-06-10T13:48:40Z</time>
      </trkpt>
      <trkpt lat="43.76166" lon="4.7068">
        <ele>98.5</ele>
        <time>2014-06-10T13:48:50Z</time>
      </trkpt>
      <trkpt lat="43.76167" lon="4.70673">
        <ele>97.7</ele>
        <time>2014-06-10T13:48:54Z</time>
      </trkpt>
      <trkpt lat="43.76168" lon="4.70666">
        <ele>97.1</ele>
        <time>2014-06-10T13:48:59Z</time>
      </trkpt>
      <trkpt lat="43.76182" lon="4.70608">
        <ele>93.8</ele>
        <time>2014-06-10T13:54:44Z</time>
      </trkpt>
      <trkpt lat="43.76182" lon="4.706">
        <ele>93.4</ele>
        <time>2014-06-10T13:54:49Z</time>
      </trkpt>
      <trkpt lat="43.76183" lon="4.70593">
        <ele>93</ele>
        <time>2014-06-10T13:54:54Z</time>
      </trkpt>
      <trkpt lat="43.76184" lon="4.70587">
        <ele>92.6</ele>
        <time>2014-06-10T13:54:58Z</time>
      </trkpt>
      <trkpt lat="43.76185" lon="4.7058">
        <ele>92.3</ele>
        <time>2014-06-10T13:55:03Z</time>
      </trkpt>
      <trkpt lat="43.76185" lon="4.70573">
        <ele>92.1</ele>
        <time>2014-06-10T13:55:08Z</time>
      </trkpt>
      <trkpt lat="43.76184" lon="4.70567">
        <ele>91.9</ele>
        <time>2014-06-10T13:55:13Z</time>
      </trkpt>
      <trkpt lat="43.76184" lon="4.7056">
        <ele>91.7</ele>
        <time>2014-06-10T13:55:18Z</time>
      </trkpt>
      <trkpt lat="43.76183" lon="4.70553">
        <ele>91.4</ele>
        <time>2014-06-10T13:55:23Z</time>
      </trkpt>
      <trkpt lat="43.76182" lon="4.70545">
        <ele>90.8</ele>
        <time>2014-06-10T13:55:28Z</time>
      </trkpt>
      <trkpt lat="43.76182" lon="4.70538">
        <ele>90.3</ele>
        <time>2014-06-10T13:55:33Z</time>
      </trkpt>
      <trkpt lat="43.76182" lon="4.7053">
        <ele>89.7</ele>
        <time>2014-06-10T13:55:38Z</time>
      </trkpt>
      <trkpt lat="43.76184" lon="4.70524">
        <ele>89.4</ele>
        <time>2014-06-10T13:55:42Z</time>
      </trkpt>
      <trkpt lat="43.76188" lon="4.70518">
        <ele>89</ele>
        <time>2014-06-10T13:55:47Z</time>
      </trkpt>
      <trkpt lat="43.7619" lon="4.70511">
        <ele>88.6</ele>
        <time>2014-06-10T13:55:52Z</time>
      </trkpt>
      <trkpt lat="43.76192" lon="4.70504">
        <ele>88.2</ele>
        <time>2014-06-10T13:55:57Z</time>
      </trkpt>
      <trkpt lat="43.76194" lon="4.70497">
        <ele>87.7</ele>
        <time>2014-06-10T13:56:02Z</time>
      </trkpt>
      <trkpt lat="43.76194" lon="4.70489">
        <ele>87.2</ele>
        <time>2014-06-10T13:56:07Z</time>
      </trkpt>
      <trkpt lat="43.76195" lon="4.70481">
        <ele>86.7</ele>
        <time>2014-06-10T13:56:12Z</time>
      </trkpt>
      <trkpt lat="43.76196" lon="4.70474">
        <ele>86.3</ele>
        <time>2014-06-10T13:56:17Z</time>
      </trkpt>
      <trkpt lat="43.76198" lon="4.70467">
        <ele>86.1</ele>
        <time>2014-06-10T13:56:22Z</time>
      </trkpt>
      <trkpt lat="43.762" lon="4.70459">
        <ele>86</ele>
        <time>2014-06-10T13:56:27Z</time>
      </trkpt>
      <trkpt lat="43.76202" lon="4.70453">
        <ele>85.9</ele>
        <time>2014-06-10T13:56:32Z</time>
      </trkpt>
      <trkpt lat="43.76205" lon="4.70446">
        <ele>85.8</ele>
        <time>2014-06-10T13:56:37Z</time>
      </trkpt>
      <trkpt lat="43.76208" lon="4.7044">
        <ele>85.6</ele>
        <time>2014-06-10T13:56:42Z</time>
      </trkpt>
      <trkpt lat="43.76211" lon="4.70435">
        <ele>85.5</ele>
        <time>2014-06-10T13:56:49Z</time>
      </trkpt>
      <trkpt lat="43.76214" lon="4.7043">
        <ele>85.3</ele>
        <time>2014-06-10T13:56:53Z</time>
      </trkpt>
      <trkpt lat="43.76218" lon="4.70425">
        <ele>85.2</ele>
        <time>2014-06-10T13:56:58Z</time>
      </trkpt>
      <trkpt lat="43.76221" lon="4.70419">
        <ele>85.1</ele>
        <time>2014-06-10T13:57:03Z</time>
      </trkpt>
      <trkpt lat="43.76224" lon="4.70415">
        <ele>84.9</ele>
        <time>2014-06-10T13:57:07Z</time>
      </trkpt>
      <trkpt lat="43.76229" lon="4.70411">
        <ele>84.6</ele>
        <time>2014-06-10T13:57:12Z</time>
      </trkpt>
      <trkpt lat="43.76235" lon="4.70408">
        <ele>84.5</ele>
        <time>2014-06-10T13:57:17Z</time>
      </trkpt>
      <trkpt lat="43.76239" lon="4.70406">
        <ele>84.5</ele>
        <time>2014-06-10T13:57:22Z</time>
      </trkpt>
      <trkpt lat="43.76245" lon="4.70403">
        <ele>84.4</ele>
        <time>2014-06-10T13:57:28Z</time>
      </trkpt>
      <trkpt lat="43.7625" lon="4.70404">
        <ele>84.5</ele>
        <time>2014-06-10T13:57:33Z</time>
      </trkpt>
      <trkpt lat="43.76254" lon="4.70403">
        <ele>84.6</ele>
        <time>2014-06-10T13:57:38Z</time>
      </trkpt>
      <trkpt lat="43.76265" lon="4.70403">
        <ele>84.8</ele>
        <time>2014-06-10T13:57:47Z</time>
      </trkpt>
      <trkpt lat="43.7627" lon="4.70401">
        <ele>84.7</ele>
        <time>2014-06-10T13:57:53Z</time>
      </trkpt>
      <trkpt lat="43.76274" lon="4.70397">
        <ele>84.6</ele>
        <time>2014-06-10T13:57:58Z</time>
      </trkpt>
      <trkpt lat="43.76278" lon="4.70393">
        <ele>84.3</ele>
        <time>2014-06-10T13:58:03Z</time>
      </trkpt>
      <trkpt lat="43.76281" lon="4.70387">
        <ele>84</ele>
        <time>2014-06-10T13:58:08Z</time>
      </trkpt>
      <trkpt lat="43.76279" lon="4.70381">
        <ele>83.8</ele>
        <time>2014-06-10T13:58:13Z</time>
      </trkpt>
      <trkpt lat="43.76278" lon="4.70375">
        <ele>83.5</ele>
        <time>2014-06-10T13:58:19Z</time>
      </trkpt>
      <trkpt lat="43.76276" lon="4.70368">
        <ele>83.2</ele>
        <time>2014-06-10T13:58:27Z</time>
      </trkpt>
      <trkpt lat="43.76273" lon="4.70362">
        <ele>82.9</ele>
        <time>2014-06-10T13:58:32Z</time>
      </trkpt>
      <trkpt lat="43.76271" lon="4.70357">
        <ele>82.6</ele>
        <time>2014-06-10T13:58:37Z</time>
      </trkpt>
      <trkpt lat="43.76267" lon="4.70352">
        <ele>82.3</ele>
        <time>2014-06-10T13:58:42Z</time>
      </trkpt>
      <trkpt lat="43.76262" lon="4.70347">
        <ele>81.9</ele>
        <time>2014-06-10T13:58:47Z</time>
      </trkpt>
      <trkpt lat="43.76258" lon="4.70342">
        <ele>81.6</ele>
        <time>2014-06-10T13:58:52Z</time>
      </trkpt>
      <trkpt lat="43.76253" lon="4.70337">
        <ele>81.2</ele>
        <time>2014-06-10T13:58:57Z</time>
      </trkpt>
      <trkpt lat="43.76249" lon="4.70332">
        <ele>80.9</ele>
        <time>2014-06-10T13:59:02Z</time>
      </trkpt>
      <trkpt lat="43.76245" lon="4.70326">
        <ele>80.5</ele>
        <time>2014-06-10T13:59:07Z</time>
      </trkpt>
      <trkpt lat="43.76242" lon="4.70321">
        <ele>80.3</ele>
        <time>2014-06-10T13:59:12Z</time>
      </trkpt>
      <trkpt lat="43.76238" lon="4.70317">
        <ele>80</ele>
        <time>2014-06-10T13:59:17Z</time>
      </trkpt>
      <trkpt lat="43.76234" lon="4.70312">
        <ele>79.6</ele>
        <time>2014-06-10T13:59:22Z</time>
      </trkpt>
      <trkpt lat="43.7623" lon="4.70307">
        <ele>79.3</ele>
        <time>2014-06-10T13:59:27Z</time>
      </trkpt>
      <trkpt lat="43.76226" lon="4.70302">
        <ele>79</ele>
        <time>2014-06-10T13:59:32Z</time>
      </trkpt>
      <trkpt lat="43.76221" lon="4.70298">
        <ele>78.7</ele>
        <time>2014-06-10T13:59:37Z</time>
      </trkpt>
      <trkpt lat="43.76217" lon="4.70293">
        <ele>78.4</ele>
        <time>2014-06-10T13:59:42Z</time>
      </trkpt>
      <trkpt lat="43.76213" lon="4.70288">
        <ele>78</ele>
        <time>2014-06-10T13:59:47Z</time>
      </trkpt>
      <trkpt lat="43.76209" lon="4.70283">
        <ele>77.7</ele>
        <time>2014-06-10T13:59:52Z</time>
      </trkpt>
      <trkpt lat="43.76206" lon="4.70277">
        <ele>77.4</ele>
        <time>2014-06-10T13:59:59Z</time>
      </trkpt>
      <trkpt lat="43.76204" lon="4.70271">
        <ele>77</ele>
        <time>2014-06-10T14:00:04Z</time>
      </trkpt>
      <trkpt lat="43.76202" lon="4.70266">
        <ele>76.5</ele>
        <time>2014-06-10T14:00:09Z</time>
      </trkpt>
      <trkpt lat="43.76198" lon="4.7026">
        <ele>75.9</ele>
        <time>2014-06-10T14:00:14Z</time>
      </trkpt>
      <trkpt lat="43.76195" lon="4.70256">
        <ele>75.4</ele>
        <time>2014-06-10T14:00:18Z</time>
      </trkpt>
      <trkpt lat="43.76192" lon="4.7025">
        <ele>74.9</ele>
        <time>2014-06-10T14:00:23Z</time>
      </trkpt>
      <trkpt lat="43.76189" lon="4.70245">
        <ele>74.7</ele>
        <time>2014-06-10T14:00:28Z</time>
      </trkpt>
      <trkpt lat="43.76185" lon="4.7024">
        <ele>74.5</ele>
        <time>2014-06-10T14:00:34Z</time>
      </trkpt>
      <trkpt lat="43.76181" lon="4.70236">
        <ele>74.2</ele>
        <time>2014-06-10T14:00:40Z</time>
      </trkpt>
      <trkpt lat="43.76177" lon="4.7023">
        <ele>73.9</ele>
        <time>2014-06-10T14:00:50Z</time>
      </trkpt>
      <trkpt lat="43.76173" lon="4.70225">
        <ele>73.5</ele>
        <time>2014-06-10T14:00:55Z</time>
      </trkpt>
      <trkpt lat="43.76169" lon="4.7022">
        <ele>73.1</ele>
        <time>2014-06-10T14:01:00Z</time>
      </trkpt>
      <trkpt lat="43.76166" lon="4.70215">
        <ele>72.6</ele>
        <time>2014-06-10T14:01:05Z</time>
      </trkpt>
      <trkpt lat="43.76162" lon="4.70211">
        <ele>72.2</ele>
        <time>2014-06-10T14:01:10Z</time>
      </trkpt>
      <trkpt lat="43.76158" lon="4.70204">
        <ele>71.7</ele>
        <time>2014-06-10T14:01:17Z</time>
      </trkpt>
      <trkpt lat="43.76155" lon="4.70199">
        <ele>71.3</ele>
        <time>2014-06-10T14:01:22Z</time>
      </trkpt>
      <trkpt lat="43.7615" lon="4.70194">
        <ele>70.8</ele>
        <time>2014-06-10T14:01:27Z</time>
      </trkpt>
      <trkpt lat="43.76146" lon="4.70189">
        <ele>70.5</ele>
        <time>2014-06-10T14:01:32Z</time>
      </trkpt>
      <trkpt lat="43.76143" lon="4.70182">
        <ele>70.3</ele>
        <time>2014-06-10T14:01:38Z</time>
      </trkpt>
      <trkpt lat="43.76139" lon="4.70178">
        <ele>70</ele>
        <time>2014-06-10T14:01:42Z</time>
      </trkpt>
      <trkpt lat="43.76135" lon="4.70174">
        <ele>69.5</ele>
        <time>2014-06-10T14:01:47Z</time>
      </trkpt>
      <trkpt lat="43.76129" lon="4.7017">
        <ele>68.8</ele>
        <time>2014-06-10T14:01:52Z</time>
      </trkpt>
      <trkpt lat="43.76125" lon="4.70165">
        <ele>68.5</ele>
        <time>2014-06-10T14:01:57Z</time>
      </trkpt>
      <trkpt lat="43.76121" lon="4.7016">
        <ele>68.2</ele>
        <time>2014-06-10T14:02:02Z</time>
      </trkpt>
      <trkpt lat="43.76118" lon="4.70155">
        <ele>68.1</ele>
        <time>2014-06-10T14:02:07Z</time>
      </trkpt>
      <trkpt lat="43.76115" lon="4.7015">
        <ele>67.9</ele>
        <time>2014-06-10T14:02:12Z</time>
      </trkpt>
      <trkpt lat="43.76111" lon="4.70146">
        <ele>67.6</ele>
        <time>2014-06-10T14:02:17Z</time>
      </trkpt>
      <trkpt lat="43.76106" lon="4.70142">
        <ele>67</ele>
        <time>2014-06-10T14:02:22Z</time>
      </trkpt>
      <trkpt lat="43.76103" lon="4.70136">
        <ele>66.7</ele>
        <time>2014-06-10T14:02:27Z</time>
      </trkpt>
      <trkpt lat="43.76102" lon="4.70076">
        <ele>63.9</ele>
        <time>2014-06-10T14:05:27Z</time>
      </trkpt>
      <trkpt lat="43.76106" lon="4.7007">
        <ele>63.4</ele>
        <time>2014-06-10T14:05:32Z</time>
      </trkpt>
      <trkpt lat="43.76109" lon="4.70064">
        <ele>62.9</ele>
        <time>2014-06-10T14:05:37Z</time>
      </trkpt>
      <trkpt lat="43.76115" lon="4.70053">
        <ele>61.7</ele>
        <time>2014-06-10T14:05:47Z</time>
      </trkpt>
      <trkpt lat="43.76121" lon="4.70049">
        <ele>61.3</ele>
        <time>2014-06-10T14:05:52Z</time>
      </trkpt>
      <trkpt lat="43.76126" lon="4.70045">
        <ele>60.9</ele>
        <time>2014-06-10T14:05:57Z</time>
      </trkpt>
      <trkpt lat="43.76131" lon="4.70043">
        <ele>60.6</ele>
        <time>2014-06-10T14:06:02Z</time>
      </trkpt>
      <trkpt lat="43.76136" lon="4.70039">
        <ele>60.2</ele>
        <time>2014-06-10T14:06:09Z</time>
      </trkpt>
      <trkpt lat="43.7614" lon="4.70037">
        <ele>60</ele>
        <time>2014-06-10T14:06:13Z</time>
      </trkpt>
      <trkpt lat="43.76144" lon="4.70032">
        <ele>59.5</ele>
        <time>2014-06-10T14:06:17Z</time>
      </trkpt>
      <trkpt lat="43.76148" lon="4.70028">
        <ele>59</ele>
        <time>2014-06-10T14:06:22Z</time>
      </trkpt>
      <trkpt lat="43.76153" lon="4.70024">
        <ele>58.6</ele>
        <time>2014-06-10T14:06:29Z</time>
      </trkpt>
      <trkpt lat="43.76157" lon="4.70021">
        <ele>58.4</ele>
        <time>2014-06-10T14:06:33Z</time>
      </trkpt>
      <trkpt lat="43.76162" lon="4.70018">
        <ele>58.2</ele>
        <time>2014-06-10T14:06:38Z</time>
      </trkpt>
      <trkpt lat="43.76171" lon="4.70011">
        <ele>57.9</ele>
        <time>2014-06-10T14:06:47Z</time>
      </trkpt>
      <trkpt lat="43.76176" lon="4.70006">
        <ele>57.6</ele>
        <time>2014-06-10T14:06:52Z</time>
      </trkpt>
      <trkpt lat="43.76181" lon="4.70001">
        <ele>57.1</ele>
        <time>2014-06-10T14:06:57Z</time>
      </trkpt>
      <trkpt lat="43.76185" lon="4.69997">
        <ele>56.8</ele>
        <time>2014-06-10T14:07:02Z</time>
      </trkpt>
      <trkpt lat="43.76191" lon="4.69988">
        <ele>56.1</ele>
        <time>2014-06-10T14:07:12Z</time>
      </trkpt>
      <trkpt lat="43.76195" lon="4.69982">
        <ele>55.7</ele>
        <time>2014-06-10T14:07:17Z</time>
      </trkpt>
      <trkpt lat="43.76199" lon="4.69975">
        <ele>55.3</ele>
        <time>2014-06-10T14:07:22Z</time>
      </trkpt>
      <trkpt lat="43.76202" lon="4.69969">
        <ele>54.8</ele>
        <time>2014-06-10T14:07:27Z</time>
      </trkpt>
      <trkpt lat="43.76205" lon="4.69963">
        <ele>54.3</ele>
        <time>2014-06-10T14:07:32Z</time>
      </trkpt>
      <trkpt lat="43.76205" lon="4.6995">
        <ele>53.4</ele>
        <time>2014-06-10T14:07:43Z</time>
      </trkpt>
      <trkpt lat="43.76207" lon="4.69937">
        <ele>52.6</ele>
        <time>2014-06-10T14:07:53Z</time>
      </trkpt>
      <trkpt lat="43.76208" lon="4.6993">
        <ele>52.2</ele>
        <time>2014-06-10T14:07:57Z</time>
      </trkpt>
      <trkpt lat="43.7621" lon="4.69921">
        <ele>51.8</ele>
        <time>2014-06-10T14:08:02Z</time>
      </trkpt>
      <trkpt lat="43.76213" lon="4.69914">
        <ele>51.4</ele>
        <time>2014-06-10T14:08:07Z</time>
      </trkpt>
      <trkpt lat="43.76216" lon="4.69908">
        <ele>51.1</ele>
        <time>2014-06-10T14:08:12Z</time>
      </trkpt>
      <trkpt lat="43.7622" lon="4.69903">
        <ele>50.9</ele>
        <time>2014-06-10T14:08:17Z</time>
      </trkpt>
      <trkpt lat="43.76224" lon="4.69896">
        <ele>50.6</ele>
        <time>2014-06-10T14:08:22Z</time>
      </trkpt>
      <trkpt lat="43.76229" lon="4.6989">
        <ele>50.3</ele>
        <time>2014-06-10T14:08:27Z</time>
      </trkpt>
      <trkpt lat="43.76233" lon="4.69884">
        <ele>50.1</ele>
        <time>2014-06-10T14:08:32Z</time>
      </trkpt>
      <trkpt lat="43.76238" lon="4.6988">
        <ele>49.9</ele>
        <time>2014-06-10T14:08:37Z</time>
      </trkpt>
      <trkpt lat="43.76243" lon="4.69876">
        <ele>49.6</ele>
        <time>2014-06-10T14:08:42Z</time>
      </trkpt>
      <trkpt lat="43.76249" lon="4.69876">
        <ele>49.6</ele>
        <time>2014-06-10T14:08:47Z</time>
      </trkpt>
      <trkpt lat="43.76255" lon="4.69878">
        <ele>49.5</ele>
        <time>2014-06-10T14:08:52Z</time>
      </trkpt>
      <trkpt lat="43.76261" lon="4.69879">
        <ele>49.4</ele>
        <time>2014-06-10T14:08:57Z</time>
      </trkpt>
      <trkpt lat="43.76266" lon="4.69882">
        <ele>49.5</ele>
        <time>2014-06-10T14:09:02Z</time>
      </trkpt>
      <trkpt lat="43.76273" lon="4.69882">
        <ele>49.2</ele>
        <time>2014-06-10T14:09:07Z</time>
      </trkpt>
      <trkpt lat="43.76279" lon="4.69884">
        <ele>49.3</ele>
        <time>2014-06-10T14:09:12Z</time>
      </trkpt>
      <trkpt lat="43.76284" lon="4.69885">
        <ele>49.5</ele>
        <time>2014-06-10T14:09:17Z</time>
      </trkpt>
      <trkpt lat="43.76291" lon="4.69886">
        <ele>49.6</ele>
        <time>2014-06-10T14:09:22Z</time>
      </trkpt>
      <trkpt lat="43.76297" lon="4.69889">
        <ele>50</ele>
        <time>2014-06-10T14:09:27Z</time>
      </trkpt>
      <trkpt lat="43.76302" lon="4.69892">
        <ele>50.3</ele>
        <time>2014-06-10T14:09:32Z</time>
      </trkpt>
      <trkpt lat="43.76307" lon="4.69893">
        <ele>50.1</ele>
        <time>2014-06-10T14:09:35Z</time>
      </trkpt>
      <trkpt lat="43.76312" lon="4.69893">
        <ele>49.5</ele>
        <time>2014-06-10T14:09:38Z</time>
      </trkpt>
      <trkpt lat="43.76317" lon="4.69894">
        <ele>48.9</ele>
        <time>2014-06-10T14:09:42Z</time>
      </trkpt>
      <trkpt lat="43.76322" lon="4.69896">
        <ele>48.4</ele>
        <time>2014-06-10T14:09:47Z</time>
      </trkpt>
      <trkpt lat="43.76326" lon="4.69901">
        <ele>48.6</ele>
        <time>2014-06-10T14:09:52Z</time>
      </trkpt>
      <trkpt lat="43.7633" lon="4.69906">
        <ele>48.8</ele>
        <time>2014-06-10T14:09:57Z</time>
      </trkpt>
      <trkpt lat="43.76336" lon="4.6991">
        <ele>49.1</ele>
        <time>2014-06-10T14:10:02Z</time>
      </trkpt>
      <trkpt lat="43.76343" lon="4.69911">
        <ele>49.1</ele>
        <time>2014-06-10T14:10:07Z</time>
      </trkpt>
      <trkpt lat="43.76348" lon="4.69913">
        <ele>49.2</ele>
        <time>2014-06-10T14:10:12Z</time>
      </trkpt>
      <trkpt lat="43.76353" lon="4.69912">
        <ele>49.1</ele>
        <time>2014-06-10T14:10:17Z</time>
      </trkpt>
      <trkpt lat="43.76359" lon="4.69913">
        <ele>49</ele>
        <time>2014-06-10T14:10:22Z</time>
      </trkpt>
      <trkpt lat="43.76363" lon="4.69915">
        <ele>49.3</ele>
        <time>2014-06-10T14:10:28Z</time>
      </trkpt>
      <trkpt lat="43.76367" lon="4.69918">
        <ele>50.3</ele>
        <time>2014-06-10T14:10:34Z</time>
      </trkpt>
      <trkpt lat="43.76372" lon="4.69921">
        <ele>51.3</ele>
        <time>2014-06-10T14:10:39Z</time>
      </trkpt>
      <trkpt lat="43.76377" lon="4.69923">
        <ele>52.2</ele>
        <time>2014-06-10T14:10:47Z</time>
      </trkpt>
      <trkpt lat="43.76381" lon="4.69925">
        <ele>53</ele>
        <time>2014-06-10T14:10:57Z</time>
      </trkpt>
      <trkpt lat="43.76386" lon="4.69927">
        <ele>53.6</ele>
        <time>2014-06-10T14:11:12Z</time>
      </trkpt>
      <trkpt lat="43.76409" lon="4.69904">
        <ele>55.9</ele>
        <time>2014-06-10T14:13:44Z</time>
      </trkpt>
      <trkpt lat="43.76415" lon="4.69902">
        <ele>56.3</ele>
        <time>2014-06-10T14:13:50Z</time>
      </trkpt>
      <trkpt lat="43.76424" lon="4.69901">
        <ele>56.5</ele>
        <time>2014-06-10T14:13:59Z</time>
      </trkpt>
      <trkpt lat="43.76466" lon="4.69914">
        <ele>58.6</ele>
        <time>2014-06-10T14:17:15Z</time>
      </trkpt>
      <trkpt lat="43.76474" lon="4.69917">
        <ele>59</ele>
        <time>2014-06-10T14:17:25Z</time>
      </trkpt>
      <trkpt lat="43.76478" lon="4.69921">
        <ele>59.3</ele>
        <time>2014-06-10T14:17:30Z</time>
      </trkpt>
      <trkpt lat="43.76483" lon="4.69923">
        <ele>59.4</ele>
        <time>2014-06-10T14:17:35Z</time>
      </trkpt>
      <trkpt lat="43.76488" lon="4.69921">
        <ele>59.3</ele>
        <time>2014-06-10T14:17:40Z</time>
      </trkpt>
      <trkpt lat="43.76493" lon="4.6992">
        <ele>59.2</ele>
        <time>2014-06-10T14:17:45Z</time>
      </trkpt>
      <trkpt lat="43.76498" lon="4.6992">
        <ele>59.3</ele>
        <time>2014-06-10T14:17:52Z</time>
      </trkpt>
      <trkpt lat="43.76503" lon="4.69921">
        <ele>59.3</ele>
        <time>2014-06-10T14:17:58Z</time>
      </trkpt>
      <trkpt lat="43.76508" lon="4.6992">
        <ele>59.3</ele>
        <time>2014-06-10T14:18:03Z</time>
      </trkpt>
      <trkpt lat="43.76513" lon="4.69919">
        <ele>59.2</ele>
        <time>2014-06-10T14:18:08Z</time>
      </trkpt>
      <trkpt lat="43.76517" lon="4.69917">
        <ele>59</ele>
        <time>2014-06-10T14:18:15Z</time>
      </trkpt>
      <trkpt lat="43.76523" lon="4.69917">
        <ele>59</ele>
        <time>2014-06-10T14:18:19Z</time>
      </trkpt>
      <trkpt lat="43.76534" lon="4.69916">
        <ele>58.9</ele>
        <time>2014-06-10T14:18:27Z</time>
      </trkpt>
      <trkpt lat="43.76541" lon="4.69913">
        <ele>58.8</ele>
        <time>2014-06-10T14:18:32Z</time>
      </trkpt>
      <trkpt lat="43.76546" lon="4.69911">
        <ele>58.6</ele>
        <time>2014-06-10T14:18:37Z</time>
      </trkpt>
      <trkpt lat="43.76551" lon="4.6991">
        <ele>58.6</ele>
        <time>2014-06-10T14:18:45Z</time>
      </trkpt>
      <trkpt lat="43.76555" lon="4.6991">
        <ele>58.5</ele>
        <time>2014-06-10T14:18:50Z</time>
      </trkpt>
      <trkpt lat="43.7656" lon="4.69908">
        <ele>58.2</ele>
        <time>2014-06-10T14:18:55Z</time>
      </trkpt>
      <trkpt lat="43.76565" lon="4.69905">
        <ele>58</ele>
        <time>2014-06-10T14:19:00Z</time>
      </trkpt>
      <trkpt lat="43.76568" lon="4.69899">
        <ele>57.6</ele>
        <time>2014-06-10T14:19:07Z</time>
      </trkpt>
      <trkpt lat="43.76573" lon="4.69889">
        <ele>57</ele>
        <time>2014-06-10T14:19:18Z</time>
      </trkpt>
      <trkpt lat="43.76577" lon="4.69887">
        <ele>56.9</ele>
        <time>2014-06-10T14:19:23Z</time>
      </trkpt>
      <trkpt lat="43.76582" lon="4.69883">
        <ele>56.8</ele>
        <time>2014-06-10T14:19:28Z</time>
      </trkpt>
      <trkpt lat="43.76586" lon="4.6988">
        <ele>56.5</ele>
        <time>2014-06-10T14:19:32Z</time>
      </trkpt>
      <trkpt lat="43.76592" lon="4.69876">
        <ele>56.1</ele>
        <time>2014-06-10T14:19:37Z</time>
      </trkpt>
      <trkpt lat="43.76596" lon="4.69873">
        <ele>55.8</ele>
        <time>2014-06-10T14:19:42Z</time>
      </trkpt>
      <trkpt lat="43.76601" lon="4.69869">
        <ele>55.5</ele>
        <time>2014-06-10T14:19:48Z</time>
      </trkpt>
      <trkpt lat="43.76604" lon="4.69864">
        <ele>55.3</ele>
        <time>2014-06-10T14:19:54Z</time>
      </trkpt>
      <trkpt lat="43.76608" lon="4.69859">
        <ele>55</ele>
        <time>2014-06-10T14:19:59Z</time>
      </trkpt>
      <trkpt lat="43.76611" lon="4.69854">
        <ele>54.8</ele>
        <time>2014-06-10T14:20:04Z</time>
      </trkpt>
      <trkpt lat="43.76615" lon="4.6985">
        <ele>54.4</ele>
        <time>2014-06-10T14:20:08Z</time>
      </trkpt>
      <trkpt lat="43.76619" lon="4.69846">
        <ele>54.2</ele>
        <time>2014-06-10T14:20:12Z</time>
      </trkpt>
      <trkpt lat="43.76623" lon="4.69841">
        <ele>54</ele>
        <time>2014-06-10T14:20:17Z</time>
      </trkpt>
      <trkpt lat="43.76628" lon="4.69838">
        <ele>54</ele>
        <time>2014-06-10T14:20:22Z</time>
      </trkpt>
      <trkpt lat="43.76632" lon="4.69835">
        <ele>54</ele>
        <time>2014-06-10T14:20:29Z</time>
      </trkpt>
      <trkpt lat="43.76636" lon="4.6983">
        <ele>53.8</ele>
        <time>2014-06-10T14:20:34Z</time>
      </trkpt>
      <trkpt lat="43.76642" lon="4.6982">
        <ele>52.6</ele>
        <time>2014-06-10T14:20:47Z</time>
      </trkpt>
      <trkpt lat="43.76642" lon="4.69807">
        <ele>51.6</ele>
        <time>2014-06-10T14:20:58Z</time>
      </trkpt>
      <trkpt lat="43.76639" lon="4.69801">
        <ele>51.6</ele>
        <time>2014-06-10T14:21:04Z</time>
      </trkpt>
      <trkpt lat="43.76639" lon="4.69794">
        <ele>51.1</ele>
        <time>2014-06-10T14:21:08Z</time>
      </trkpt>
      <trkpt lat="43.76638" lon="4.6978">
        <ele>50.1</ele>
        <time>2014-06-10T14:21:17Z</time>
      </trkpt>
      <trkpt lat="43.76639" lon="4.69773">
        <ele>49.5</ele>
        <time>2014-06-10T14:21:22Z</time>
      </trkpt>
      <trkpt lat="43.76642" lon="4.69768">
        <ele>48.9</ele>
        <time>2014-06-10T14:21:27Z</time>
      </trkpt>
      <trkpt lat="43.76644" lon="4.69762">
        <ele>48.3</ele>
        <time>2014-06-10T14:21:39Z</time>
      </trkpt>
      <trkpt lat="43.76652" lon="4.69702">
        <ele>42.6</ele>
        <time>2014-06-10T14:22:32Z</time>
      </trkpt>
      <trkpt lat="43.76652" lon="4.69694">
        <ele>41.9</ele>
        <time>2014-06-10T14:22:37Z</time>
      </trkpt>
      <trkpt lat="43.76653" lon="4.69686">
        <ele>41.4</ele>
        <time>2014-06-10T14:22:42Z</time>
      </trkpt>
      <trkpt lat="43.76654" lon="4.69678">
        <ele>40.8</ele>
        <time>2014-06-10T14:22:47Z</time>
      </trkpt>
      <trkpt lat="43.76655" lon="4.69671">
        <ele>40.4</ele>
        <time>2014-06-10T14:22:52Z</time>
      </trkpt>
      <trkpt lat="43.76657" lon="4.69664">
        <ele>40.1</ele>
        <time>2014-06-10T14:22:57Z</time>
      </trkpt>
      <trkpt lat="43.76659" lon="4.69658">
        <ele>39.5</ele>
        <time>2014-06-10T14:23:02Z</time>
      </trkpt>
      <trkpt lat="43.76659" lon="4.69652">
        <ele>38.8</ele>
        <time>2014-06-10T14:23:07Z</time>
      </trkpt>
      <trkpt lat="43.7666" lon="4.69644">
        <ele>38.1</ele>
        <time>2014-06-10T14:23:12Z</time>
      </trkpt>
      <trkpt lat="43.76661" lon="4.69637">
        <ele>37.3</ele>
        <time>2014-06-10T14:23:18Z</time>
      </trkpt>
      <trkpt lat="43.76657" lon="4.69633">
        <ele>36.5</ele>
        <time>2014-06-10T14:23:23Z</time>
      </trkpt>
      <trkpt lat="43.76655" lon="4.69627">
        <ele>35.4</ele>
        <time>2014-06-10T14:23:28Z</time>
      </trkpt>
      <trkpt lat="43.76651" lon="4.69622">
        <ele>34.4</ele>
        <time>2014-06-10T14:23:32Z</time>
      </trkpt>
      <trkpt lat="43.7665" lon="4.69615">
        <ele>33.4</ele>
        <time>2014-06-10T14:23:37Z</time>
      </trkpt>
      <trkpt lat="43.76651" lon="4.69607">
        <ele>31.6</ele>
        <time>2014-06-10T14:23:42Z</time>
      </trkpt>
      <trkpt lat="43.76653" lon="4.69595">
        <ele>28.7</ele>
        <time>2014-06-10T14:23:52Z</time>
      </trkpt>
      <trkpt lat="43.76656" lon="4.69589">
        <ele>27.8</ele>
        <time>2014-06-10T14:23:58Z</time>
      </trkpt>
      <trkpt lat="43.76659" lon="4.69583">
        <ele>26.9</ele>
        <time>2014-06-10T14:24:04Z</time>
      </trkpt>
      <trkpt lat="43.7666" lon="4.69577">
        <ele>25.7</ele>
        <time>2014-06-10T14:24:10Z</time>
      </trkpt>
      <trkpt lat="43.76662" lon="4.69571">
        <ele>24.6</ele>
        <time>2014-06-10T14:24:15Z</time>
      </trkpt>
      <trkpt lat="43.76659" lon="4.69565">
        <ele>22.6</ele>
        <time>2014-06-10T14:24:19Z</time>
      </trkpt>
      <trkpt lat="43.76658" lon="4.69559">
        <ele>21</ele>
        <time>2014-06-10T14:24:24Z</time>
      </trkpt>
      <trkpt lat="43.76659" lon="4.69552">
        <ele>20</ele>
        <time>2014-06-10T14:24:37Z</time>
      </trkpt>
      <trkpt lat="43.76658" lon="4.69545">
        <ele>19.3</ele>
        <time>2014-06-10T14:24:54Z</time>
      </trkpt>
      <trkpt lat="43.76657" lon="4.69538">
        <ele>18.7</ele>
        <time>2014-06-10T14:24:59Z</time>
      </trkpt>
      <trkpt lat="43.76647" lon="4.69491">
        <ele>14.3</ele>
        <time>2014-06-10T14:26:10Z</time>
      </trkpt>
      <trkpt lat="43.76651" lon="4.6948">
        <ele>12.9</ele>
        <time>2014-06-10T14:26:23Z</time>
      </trkpt>
      <trkpt lat="43.76654" lon="4.69475">
        <ele>12.3</ele>
        <time>2014-06-10T14:26:28Z</time>
      </trkpt>
      <trkpt lat="43.76653" lon="4.69468">
        <ele>11.8</ele>
        <time>2014-06-10T14:26:38Z</time>
      </trkpt>
      <trkpt lat="43.76652" lon="4.69462">
        <ele>11.5</ele>
        <time>2014-06-10T14:26:43Z</time>
      </trkpt>
      <trkpt lat="43.76653" lon="4.69455">
        <ele>11.1</ele>
        <time>2014-06-10T14:26:48Z</time>
      </trkpt>
      <trkpt lat="43.76657" lon="4.69452">
        <ele>10.8</ele>
        <time>2014-06-10T14:26:52Z</time>
      </trkpt>
      <trkpt lat="43.76662" lon="4.69448">
        <ele>10.4</ele>
        <time>2014-06-10T14:26:57Z</time>
      </trkpt>
      <trkpt lat="43.76667" lon="4.69443">
        <ele>9.9</ele>
        <time>2014-06-10T14:27:02Z</time>
      </trkpt>
      <trkpt lat="43.7667" lon="4.69438">
        <ele>9.4</ele>
        <time>2014-06-10T14:27:07Z</time>
      </trkpt>
      <trkpt lat="43.76673" lon="4.69433">
        <ele>9</ele>
        <time>2014-06-10T14:27:14Z</time>
      </trkpt>
      <trkpt lat="43.76683" lon="4.69434">
        <ele>8.9</ele>
        <time>2014-06-10T14:36:25Z</time>
      </trkpt>
    </trkseg>
  </trk>
</gpx>